Date StartTime U_cm/s V_cm/s W_cm/s Ustd_cm/s Vstd_cm/s Wstd_cm/s Uvar_(cm/s)^2 Vvar_(cm/s)^2 Wvar_(cm/s)^2 KE_(m/s)^2 TurbulentKE_(m/s)^2 HorizWindSpeed_cm/s FrictionSpeec_cm/s DragCoef SpeedOfSound_m/s SonicTemperature_C Pressure_mb 
08/24/2014  00:00:00     -111.320      -52.693       -7.304       34.407       20.855       15.446     1183.875      434.940      238.566        0.854        0.093      123.161       13.895        0.013      342.472       17.906      860.537
08/24/2014  00:01:00     -104.064      -62.879       -3.914       23.661       26.043       16.794      559.826      678.225      282.036        0.816        0.076      121.586       13.291        0.012      342.463       17.890      860.550
08/24/2014  00:02:00     -109.190      -30.872       -7.548       32.597       19.686       13.970     1062.559      387.557      195.149        0.729        0.082      113.471       14.844        0.017      342.418       17.814      860.553
08/24/2014  00:03:00     -135.569      -52.638       -5.037       21.939       18.018       14.853      481.315      324.651      220.607        1.110        0.051      145.430       11.361        0.006      342.365       17.723      860.552
08/24/2014  00:04:00     -115.385      -69.759       -3.825       40.602       26.689       20.817     1648.523      712.301      433.357        1.049        0.140      134.833       16.903        0.016      342.372       17.737      860.556
08/24/2014  00:05:00     -154.898      -68.127       -7.483       36.808       36.947       22.185     1354.792     1365.076      492.153        1.595        0.161      169.217       18.168        0.012      342.261       17.547      860.561
08/24/2014  00:06:00     -156.464      -63.993      -12.919       27.075       26.892       15.727      733.038      723.198      247.337        1.522        0.085      169.045       13.008        0.006      342.249       17.528      860.551
08/24/2014  00:07:00     -103.473      -52.521       -6.107       52.135       27.243       21.801     2718.030      742.195      475.305        0.872        0.197      116.039       16.033        0.019      342.239       17.508      860.546
08/24/2014  00:08:00      -76.715      -29.708       -1.482       44.173       36.222       18.311     1951.210     1312.010      335.295        0.518        0.180       82.266       11.098        0.018      342.239       17.509      860.551
08/24/2014  00:09:00      -27.802      -23.123        5.270       36.122       28.769       18.306     1304.818      827.649      335.097        0.190        0.123       36.161       19.805        0.300      342.255       17.535      860.553
08/24/2014  00:10:00      -56.542      -16.610       -3.966       20.980       14.932       16.025      440.171      222.950      256.793        0.220        0.046       58.931        9.354        0.025      342.247       17.524      860.553
08/24/2014  00:11:00      -47.074      -24.380       -2.388       30.826       28.608       18.733      950.215      818.433      350.925        0.247        0.106       53.012       17.517        0.109      342.255       17.537      860.556
08/24/2014  00:12:00      -56.690      -40.140      -13.425       37.958       31.905       20.489     1440.788     1017.900      419.815        0.394        0.144       69.462       19.192        0.076      342.144       17.349      860.568
08/24/2014  00:13:00      -15.938      -27.920       -5.971       40.060       44.057       24.306     1604.833     1941.027      590.770        0.260        0.207       32.149       24.301        0.571      342.142       17.346      860.572
08/24/2014  00:14:00      -17.382      -41.146       -0.982       43.625       42.027       30.223     1903.107     1766.281      913.400        0.329        0.229       44.667       26.735        0.358      342.173       17.396      860.576
08/24/2014  00:15:00      -10.935       -9.398       10.798       27.931       20.001       26.944      780.128      400.039      725.974        0.111        0.095       14.419       18.317        1.614      342.094       17.265      860.586
08/24/2014  00:16:00      -87.823      -36.868      -13.385       38.812       25.621       24.358     1506.350      656.440      593.316        0.600        0.138       95.247       23.013        0.058      342.199       17.441      860.592
08/24/2014  00:17:00      -62.492      -13.036        9.014       49.006       32.836       28.845     2401.613     1078.208      832.013        0.423        0.216       63.837       26.993        0.179      342.219       17.475      860.587
08/24/2014  00:18:00     -104.543      -21.701       -6.487       35.535       32.298       29.415     1262.716     1043.145      865.267        0.731        0.159      106.772       13.812        0.017      342.265       17.552      860.584
08/24/2014  00:19:00      -74.802      -38.374      -11.376       39.586       35.310       25.523     1567.032     1246.829      651.420        0.533        0.173       84.071       18.666        0.049      342.205       17.451      860.582
08/24/2014  00:20:00      -90.286      -29.384       -4.386       50.937       42.029       31.123     2594.541     1766.435      968.655        0.718        0.266       94.947       23.059        0.059      342.180       17.409      860.590
08/24/2014  00:21:00        4.896      -16.666       -1.581       33.173       15.418       18.120     1100.433      237.703      328.340        0.099        0.083       17.370        8.289        0.228      342.147       17.353      860.584
08/24/2014  00:22:00       -0.809      -22.678        5.211       35.323       28.804       24.977     1247.739      829.649      623.872        0.162        0.135       22.692       21.451        0.894      342.143       17.347      860.572
08/24/2014  00:23:00      -44.273      -49.812       -7.984       46.495       32.424       34.348     2161.825     1051.305     1179.778        0.445        0.220       66.643       32.684        0.241      342.113       17.296      860.571
08/24/2014  00:24:00     -108.548      -70.076      -13.792       30.754       33.435       17.253      945.818     1117.872      297.682        0.962        0.118      129.202       13.726        0.011      342.106       17.282      860.574
08/24/2014  00:25:00     -167.651      -46.599      -11.257       27.841       24.224       18.096      775.125      586.791      327.467        1.605        0.084      174.006       14.367        0.007      342.095       17.264      860.569
08/24/2014  00:26:00      -75.488      -77.203       -1.070       49.568       30.105       18.766     2457.020      906.289      352.180        0.769        0.186      107.976       21.814        0.041      342.137       17.334      860.561
08/24/2014  00:27:00      -51.352      -63.483        1.416       43.359       34.010       25.602     1880.016     1156.677      655.457        0.518        0.185       81.653       22.348        0.075      342.310       17.630      860.563
08/24/2014  00:28:00      -52.842      -71.371        4.935       31.664       40.722       18.446     1002.593     1658.320      340.272        0.546        0.150       88.804       12.774        0.021      342.253       17.534      860.572
08/24/2014  00:29:00     -125.900     -108.524        3.480       65.983       47.955       33.338     4353.770     2299.687     1111.393        1.770        0.388      166.217       31.134        0.035      342.209       17.456      860.567
08/24/2014  00:30:00     -114.602      -92.073        2.010       56.109       42.332       27.132     3148.214     1791.995      736.145        1.364        0.284      147.007       17.722        0.015      342.175       17.400      860.580
08/24/2014  00:31:00      -80.701      -75.598       -0.220       50.886       53.171       31.129     2589.426     2827.177      969.027        0.931        0.319      110.579       33.199        0.090      342.180       17.410      860.601
08/24/2014  00:32:00      -69.838      -71.217      -11.268       32.213       39.018       21.439     1037.657     1522.435      459.637        0.655        0.151       99.745       13.630        0.019      342.179       17.408      860.613
08/24/2014  00:33:00     -102.570      -62.058        0.538       52.992       43.306       31.728     2808.108     1875.442     1006.640        1.003        0.285      119.883       33.663        0.079      342.201       17.444      860.612
08/24/2014  00:34:00     -122.232      -77.555       -8.045       33.207       25.743       20.264     1102.732      662.690      410.644        1.160        0.109      144.760       17.846        0.015      342.196       17.438      860.619
08/24/2014  00:35:00      -99.450      -55.062        5.318       38.555       25.350       19.850     1486.470      642.625      394.005        0.774        0.126      113.675       21.620        0.036      342.228       17.491      860.620
08/24/2014  00:36:00     -100.925      -40.129        1.280       32.456       28.751       17.589     1053.386      826.597      309.374        0.699        0.109      108.610       18.693        0.030      342.206       17.453      860.618
08/24/2014  00:37:00     -106.659      -33.544       -4.207       27.498       24.174       18.061      756.155      584.401      326.189        0.709        0.083      111.810       14.157        0.016      342.222       17.482      860.623
08/24/2014  00:38:00     -122.546      -33.946        1.745       37.386       26.488       17.630     1397.691      701.618      310.808        0.929        0.121      127.161       17.135        0.018      342.139       17.340      860.626
08/24/2014  00:39:00     -153.900      -38.934       -2.859       31.309       29.758       17.362      980.249      885.523      301.451        1.369        0.108      158.749       16.365        0.011      342.032       17.159      860.616
08/24/2014  00:40:00     -126.701      -62.368       -0.924       45.295       30.637       23.994     2051.609      938.617      575.701        1.175        0.178      141.219       19.608        0.019      341.999       17.102      860.601
08/24/2014  00:41:00     -100.938      -66.659       -1.786       46.162       39.985       23.407     2130.971     1598.775      547.877        0.946        0.214      120.962       23.618        0.038      341.999       17.101      860.598
08/24/2014  00:42:00     -132.431      -72.431       -6.600       24.011       28.144       17.101      576.518      792.090      292.440        1.224        0.083      150.944       11.144        0.005      341.996       17.098      860.587
08/24/2014  00:43:00     -145.322      -70.492       -9.207       21.027       19.044       16.610      442.136      362.693      275.879        1.363        0.054      161.516       11.637        0.005      341.982       17.074      860.573
08/24/2014  00:44:00     -129.779      -47.451      -13.171       35.578       28.335       17.276     1265.773      802.853      298.468        1.082        0.118      138.182       14.735        0.011      341.989       17.084      860.565
08/24/2014  00:45:00     -137.771      -59.583      -12.533       28.773       33.087       18.089      827.887     1094.723      327.224        1.247        0.112      150.103       13.341        0.008      341.937       16.996      860.569
08/24/2014  00:46:00     -107.667      -64.550       -4.260       51.673       34.203       22.396     2670.103     1169.822      501.594        1.006        0.217      125.534       17.413        0.019      341.945       17.010      860.577
08/24/2014  00:47:00      -51.211      -56.284       11.845       59.337       46.057       31.256     3520.877     2121.274      976.917        0.627        0.331       76.095       34.300        0.203      341.889       16.917      860.585
08/24/2014  00:48:00      -74.648      -37.876        0.360       50.685       38.734       29.144     2568.941     1500.314      849.363        0.596        0.246       83.708       30.128        0.130      341.913       16.956      860.605
08/24/2014  00:49:00      -15.343      -22.528       12.491       48.583       32.358       23.532     2360.293     1047.047      553.770        0.243        0.198       27.257       30.156        1.224      341.951       17.021      860.602
08/24/2014  00:50:00      -58.576        8.719       -0.073       50.432       31.373       17.457     2543.382      984.283      304.762        0.367        0.192       59.221       16.561        0.078      341.926       16.979      860.595
08/24/2014  00:51:00     -144.038        3.501      -11.495       35.536       45.940       25.858     1262.837     2110.459      668.635        1.247        0.202      144.081       11.645        0.007      341.970       17.051      860.591
08/24/2014  00:52:00     -121.129        4.750      -19.530       47.280       42.257       23.343     2235.373     1785.661      544.898        0.982        0.228      121.222       21.508        0.031      342.038       17.170      860.595
08/24/2014  00:53:00      -50.162      -26.283       -7.024       44.836       36.639       21.320     2010.239     1342.400      454.559        0.353        0.190       56.630       14.158        0.063      341.958       17.032      860.594
08/24/2014  00:54:00      -52.690      -30.158      -11.262       51.349       26.548       19.401     2636.763      704.780      376.380        0.376        0.186       60.711       14.554        0.057      341.937       16.996      860.588
08/24/2014  00:55:00      -93.693      -36.453      -16.789       27.137       27.426       19.523      736.426      752.213      381.164        0.613        0.093      100.535       13.496        0.018      341.941       17.003      860.589
08/24/2014  00:56:00      -88.193      -57.786      -22.095       32.988       25.886       23.308     1088.239      670.073      543.281        0.695        0.115      105.438       10.886        0.011      341.947       17.013      860.584
08/24/2014  00:57:00      -86.697      -41.307      -23.031       26.324       31.606       20.313      692.962      998.962      412.615        0.593        0.105       96.035        6.648        0.005      341.927       16.978      860.576
08/24/2014  00:58:00      -35.765      -30.816      -15.809       39.937       28.209       26.659     1594.989      795.747      710.683        0.279        0.155       47.210       23.864        0.256      341.872       16.887      860.574
08/24/2014  00:59:00      -54.391      -16.724      -20.820       37.910       27.734       22.977     1437.198      769.170      527.941        0.320        0.137       56.904       15.577        0.075      341.853       16.854      860.566
08/24/2014  01:00:00      -20.437      -48.822       -7.927       31.457       44.461       22.906      989.568     1976.757      524.674        0.318        0.175       52.927       17.357        0.108      341.820       16.798      860.559
08/24/2014  01:01:00      -19.175      -37.965       -5.058       47.881       30.746       21.223     2292.638      945.302      450.425        0.276        0.184       42.532       20.615        0.235      341.798       16.761      860.558
08/24/2014  01:02:00     -120.499      -43.831      -14.819       22.013       22.908       15.230      484.582      524.773      231.959        0.895        0.062      128.224        7.865        0.004      341.809       16.779      860.566
08/24/2014  01:03:00     -133.825      -53.067      -15.031       22.586       32.438       18.435      510.116     1052.248      339.856        1.143        0.095      143.963       13.049        0.008      341.804       16.770      860.561
08/24/2014  01:04:00      -88.546      -37.772       -4.651       32.289       30.730       18.049     1042.599      944.356      325.762        0.580        0.116       96.266       11.205        0.014      341.798       16.760      860.545
08/24/2014  01:05:00      -60.502      -61.112       -0.973       49.775       33.669       24.782     2477.519     1133.618      614.167        0.581        0.211       85.995       29.145        0.115      341.771       16.716      860.548
08/24/2014  01:06:00      -38.072      -42.295        3.942       41.489       29.329       23.525     1721.304      860.175      553.404        0.319        0.157       56.907       19.747        0.120      341.763       16.700      860.562
08/24/2014  01:07:00      -95.591      -51.601      -10.628       35.496       22.722       20.146     1259.958      516.305      405.870        0.705        0.109      108.629       17.028        0.025      341.795       16.756      860.560
08/24/2014  01:08:00     -111.022      -45.906      -13.322       21.484       21.600       13.582      461.555      466.576      184.480        0.786        0.056      120.138        5.770        0.002      341.770       16.712      860.556
08/24/2014  01:09:00     -130.532      -38.272      -14.004       18.522       20.882       13.266      343.056      436.038      175.988        0.983        0.048      136.027        7.071        0.003      341.805       16.774      860.560
08/24/2014  01:10:00     -117.406      -42.306      -22.904       18.301       20.711       16.242      334.932      428.942      263.792        0.856        0.051      124.795       10.596        0.007      341.806       16.775      860.551
08/24/2014  01:11:00     -116.462      -29.900      -22.578       27.975       16.297       12.750      782.573      265.586      162.565        0.809        0.061      120.239        7.498        0.004      341.752       16.684      860.538
08/24/2014  01:12:00      -78.306      -54.319      -13.336       32.634       23.889       23.220     1064.974      570.698      539.157        0.572        0.109       95.302       13.999        0.022      341.753       16.685      860.538
08/24/2014  01:13:00     -101.521      -52.006      -19.439       23.595       19.307       14.453      556.740      372.763      208.878        0.726        0.057      114.066        8.529        0.006      341.720       16.630      860.546
08/24/2014  01:14:00     -109.953      -51.474       -8.633       18.175       18.742       14.116      330.325      351.258      199.263        0.785        0.044      121.405       12.195        0.010      341.738       16.659      860.541
08/24/2014  01:15:00      -45.087      -49.246        0.691       33.992       31.382       17.674     1155.487      984.840      312.368        0.346        0.123       66.768       22.805        0.117      341.747       16.675      860.530
08/24/2014  01:16:00      -63.907      -21.031       -2.918       23.659       19.765       12.715      559.747      390.652      161.681        0.282        0.056       67.278       12.024        0.032      341.731       16.648      860.531
08/24/2014  01:17:00      -64.256      -42.272      -12.466       18.511       13.130        9.385      342.660      172.406       88.072        0.334        0.030       76.914        8.189        0.011      341.753       16.686      860.533
08/24/2014  01:18:00      -65.514      -11.603       -0.695       26.707       19.533       15.243      713.280      381.544      232.349        0.288        0.066       66.533       14.784        0.049      341.759       16.694      860.521
08/24/2014  01:19:00      -89.743      -17.193       -8.966       14.835       15.485       11.525      220.073      239.782      132.818        0.451        0.030       91.375        9.654        0.011      341.730       16.645      860.519
08/24/2014  01:20:00      -95.036       -7.204      -10.352       19.589       16.337       12.996      383.722      266.903      168.897        0.501        0.041       95.309       12.833        0.018      341.653       16.517      860.519
08/24/2014  01:21:00      -33.702      -26.047        4.618       23.968       17.351       10.197      574.442      301.047      103.985        0.141        0.049       42.595       10.956        0.066      341.687       16.572      860.536
08/24/2014  01:22:00      -13.910      -25.458       -2.456       23.945       17.292       15.737      573.381      299.002      247.654        0.098        0.056       29.010       13.709        0.223      341.746       16.675      860.549
08/24/2014  01:23:00      -45.229      -40.972        2.048       27.252       20.738       17.037      742.665      430.060      290.251        0.260        0.073       61.027       12.937        0.045      341.716       16.623      860.552
08/24/2014  01:24:00      -81.130      -62.205       -4.099       36.279       21.694       18.487     1316.189      470.619      341.787        0.630        0.106      102.233       14.978        0.021      341.748       16.677      860.557
08/24/2014  01:25:00      -40.784      -65.340        2.593       34.479       33.911       20.411     1188.807     1149.928      416.624        0.435        0.138       77.024       20.114        0.068      341.627       16.471      860.559
08/24/2014  01:26:00      -25.570      -73.064       -9.409       26.533       15.894       12.082      703.983      252.634      145.970        0.359        0.055       77.409        5.767        0.006      341.721       16.631      860.559
08/24/2014  01:27:00      -32.463      -33.741       -8.301       24.551       13.459       10.978      602.761      181.145      120.516        0.158        0.045       46.822        7.409        0.025      341.832       16.820      860.553
08/24/2014  01:28:00      -31.327      -10.074        7.152       29.695       26.795       10.701      881.812      717.987      114.518        0.142        0.086       32.907       10.560        0.103      341.698       16.592      860.554
08/24/2014  01:29:00      -58.075      -19.732       -1.627       14.368       12.005       15.290      206.454      144.127      233.793        0.217        0.029       61.336        9.671        0.025      341.711       16.614      860.561
08/24/2014  01:30:00      -65.120      -22.209      -14.872       10.022       10.907        7.198      100.438      118.954       51.817        0.261        0.014       68.803        5.845        0.007      341.706       16.604      860.567
08/24/2014  01:31:00      -58.586      -36.892       -7.133       13.830       12.218       12.003      191.278      149.283      144.083        0.266        0.024       69.234        9.046        0.017      341.756       16.688      860.561
08/24/2014  01:32:00      -48.203      -23.310       -4.474       10.896       11.539        7.558      118.726      133.152       57.127        0.160        0.015       53.544        4.112        0.006      341.751       16.680      860.569
08/24/2014  01:33:00      -11.592      -13.208       -2.399       18.480       10.642       10.289      341.515      113.258      105.872        0.044        0.028       17.573        4.567        0.068      341.684       16.568      860.581
08/24/2014  01:34:00      -81.390      -15.358       -5.573       12.382       15.405        8.962      153.312      237.313       80.311        0.368        0.024       82.827        1.770        0.000      341.622       16.467      860.595
08/24/2014  01:35:00      -25.863      -22.227        2.907       28.516       14.416       14.603      813.147      207.833      213.240        0.120        0.062       34.102       14.326        0.176      341.530       16.307      860.611
08/24/2014  01:36:00      -79.081      -44.067      -10.234       20.427       19.241       13.692      417.273      370.210      187.471        0.464        0.049       90.530        9.060        0.010      341.581       16.392      860.607
08/24/2014  01:37:00      -76.880      -44.596      -10.816       21.905       13.011       13.000      479.817      169.285      169.001        0.442        0.041       88.878        8.968        0.010      341.538       16.318      860.604
08/24/2014  01:38:00      -82.989      -42.479      -16.200       10.276       16.482       11.425      105.595      271.658      130.530        0.473        0.025       93.228        8.111        0.008      341.567       16.368      860.601
08/24/2014  01:39:00      -81.290      -22.724       -8.666       11.341       14.034        9.279      128.623      196.959       86.109        0.381        0.021       84.406        3.762        0.002      341.551       16.341      860.609
08/24/2014  01:40:00      -88.544      -28.576      -12.106       10.643       14.915        8.551      113.278      222.469       73.117        0.461        0.020       93.041        5.997        0.004      341.536       16.317      860.611
08/24/2014  01:41:00     -104.565      -22.794      -16.585       13.659       12.204        9.217      186.568      148.947       84.960        0.607        0.021      107.021        3.315        0.001      341.514       16.278      860.620
08/24/2014  01:42:00      -97.497      -21.091       -9.060       25.916       18.666       16.255      671.625      348.417      264.236        0.566        0.064       99.752       15.402        0.024      341.411       16.105      860.625
08/24/2014  01:43:00     -102.966      -23.818       -9.320       26.273       14.879       12.459      690.277      221.370      155.228        0.616        0.053      105.685       12.270        0.013      341.351       16.002      860.637
08/24/2014  01:44:00     -109.532      -22.458      -15.776       17.452       17.210       11.336      304.561      296.187      128.500        0.674        0.036      111.811        8.908        0.006      341.295       15.909      860.650
08/24/2014  01:45:00     -113.833      -32.146      -10.834       18.435       20.442       12.011      339.861      417.859      144.271        0.751        0.045      118.285        8.169        0.005      341.267       15.862      860.666
08/24/2014  01:46:00     -121.766      -52.949      -18.229       12.795       17.648       11.539      163.714      311.448      133.157        0.929        0.030      132.780        2.571        0.000      341.339       15.982      860.675
08/24/2014  01:47:00     -113.638      -65.265      -11.013       19.214       18.315       16.581      369.170      335.449      274.917        0.914        0.049      131.047       10.932        0.007      341.297       15.911      860.681
08/24/2014  01:48:00     -129.262      -50.008       -8.184       16.972       16.996       15.672      288.042      288.861      245.622        1.005        0.041      138.598        9.836        0.005      341.320       15.950      860.690
08/24/2014  01:49:00     -131.996      -39.706       -6.571       19.844       19.573       11.244      393.772      383.097      126.420        0.997        0.045      137.838        8.103        0.003      341.378       16.049      860.696
08/24/2014  01:50:00     -135.392      -28.086      -10.905       17.001       12.754       11.400      289.032      162.663      129.962        0.991        0.029      138.274        9.780        0.005      341.339       15.984      860.684
08/24/2014  01:51:00     -109.375      -31.526       -4.423       36.676       19.551       18.616     1345.120      382.226      346.545        0.752        0.104      113.828       19.631        0.030      341.325       15.960      860.669
08/24/2014  01:52:00     -105.581      -29.712       -4.291       26.089       18.257       15.694      680.654      333.322      246.309        0.665        0.063      109.682        9.043        0.007      341.277       15.879      860.666
08/24/2014  01:53:00      -92.815      -33.354       -5.729       36.211       22.469       17.856     1311.223      504.848      318.841        0.595        0.107       98.626       18.881        0.037      341.254       15.839      860.668
08/24/2014  01:54:00      -90.919      -33.746       -3.059       25.707       21.439       15.946      660.863      459.627      254.275        0.539        0.069       96.980       15.271        0.025      341.275       15.875      860.660
08/24/2014  01:55:00      -73.834      -19.456        0.351       24.989       18.381       12.835      624.442      337.873      164.742        0.348        0.056       76.355       14.118        0.034      341.342       15.988      860.658
08/24/2014  01:56:00      -93.520      -19.476       -7.897       18.399       18.915       11.917      338.507      357.778      142.019        0.501        0.042       95.526       11.361        0.014      341.358       16.016      860.653
08/24/2014  01:57:00     -105.478      -44.723      -10.174       11.199       17.470       10.290      125.417      305.184      105.881        0.688        0.027      114.567        2.536        0.000      341.357       16.014      860.653
08/24/2014  01:58:00      -70.471      -53.024      -11.763       50.969       23.365       15.968     2597.845      545.912      254.987        0.566        0.170       88.192       18.961        0.046      341.316       15.944      860.631
08/24/2014  01:59:00      -63.100      -29.998        5.342       48.596       20.269       21.635     2361.600      410.835      468.067        0.407        0.162       69.868       24.180        0.120      341.361       16.022      860.624
08/24/2014  02:00:00      -64.528      -38.357       -0.057       23.757       19.430       14.500      564.391      377.524      210.245        0.339        0.058       75.068       12.187        0.026      341.337       15.978      860.623
08/24/2014  02:01:00      -47.959      -44.809       -5.738       42.411       19.317       17.131     1798.665      373.158      293.456        0.340        0.123       65.634       16.776        0.065      341.362       16.022      860.619
08/24/2014  02:02:00      -78.203      -44.616       -0.661       19.031       21.043       12.371      362.187      442.826      153.039        0.453        0.048       90.035        4.958        0.003      341.292       15.905      860.607
08/24/2014  02:03:00      -81.189      -45.667        1.367       32.686       27.962       14.490     1068.356      781.876      209.971        0.537        0.103       93.151        9.745        0.011      341.442       16.158      860.609
08/24/2014  02:04:00      -89.698      -61.308       -3.736       23.983       22.462       16.653      575.204      504.527      277.309        0.659        0.068      108.648        7.606        0.005      341.393       16.074      860.605
08/24/2014  02:05:00      -65.592      -54.648        2.425       38.250       19.945       16.985     1463.076      397.800      288.502        0.472        0.107       85.374       18.027        0.045      341.371       16.037      860.603
08/24/2014  02:06:00     -101.142      -60.757       -6.853       21.960       20.972       11.867      482.230      439.804      140.821        0.752        0.053      117.988        7.527        0.004      341.415       16.111      860.594
08/24/2014  02:07:00      -92.571      -56.360        0.583       25.896       26.043       14.743      670.597      678.251      217.342        0.666        0.078      108.379       11.952        0.012      341.321       15.953      860.596
08/24/2014  02:08:00      -89.443      -38.930       -1.987       33.540       25.447       19.871     1124.910      647.538      394.853        0.584        0.108       97.548       19.619        0.040      341.318       15.947      860.596
08/24/2014  02:09:00     -109.846      -32.075       -2.618       19.401       20.095       13.928      376.417      403.798      193.987        0.704        0.049      114.433        8.505        0.006      341.411       16.102      860.590
08/24/2014  02:10:00     -100.070      -42.824       -1.182       18.933       16.924       13.367      358.443      286.422      178.687        0.634        0.041      108.848       11.686        0.012      341.451       16.172      860.575
08/24/2014  02:11:00     -107.062      -41.168       -8.514       24.557       24.397       12.572      603.030      595.212      158.046        0.729        0.068      114.705        9.841        0.007      341.427       16.131      860.567
08/24/2014  02:12:00      -93.463      -10.232       -6.003       29.763       25.415       17.692      885.814      645.913      313.019        0.536        0.092       94.021       16.753        0.032      341.290       15.900      860.562
08/24/2014  02:13:00      -83.662      -24.624       -0.928       27.475       22.250       13.829      754.858      495.075      191.248        0.452        0.072       87.211       12.786        0.021      341.343       15.989      860.563
08/24/2014  02:14:00      -89.149      -20.670        0.105       25.955       21.121       14.478      673.661      446.113      209.615        0.485        0.066       91.514       13.564        0.022      341.365       16.028      860.553
08/24/2014  02:15:00      -88.162      -52.823       -3.542       29.509       20.104       16.197      870.762      404.170      262.330        0.606        0.077      102.775       16.437        0.026      341.373       16.040      860.544
08/24/2014  02:16:00      -93.526      -47.588       -4.759       21.448       21.725       14.733      460.027      471.989      217.060        0.609        0.057      104.937       10.625        0.010      341.423       16.125      860.547
08/24/2014  02:17:00      -95.143      -45.734       -5.596       37.409       17.345       13.623     1399.402      300.843      185.582        0.653        0.094      105.564       17.426        0.027      341.351       16.003      860.539
08/24/2014  02:18:00     -116.089      -45.739       -6.975       24.707       19.600       10.838      610.448      384.174      117.465        0.836        0.056      124.774        6.920        0.003      341.439       16.151      860.525
08/24/2014  02:19:00     -108.431      -48.616       -7.115       29.791       26.520       18.375      887.529      703.329      337.646        0.805        0.096      118.831       15.009        0.016      341.391       16.071      860.521
08/24/2014  02:20:00      -86.945      -56.450       -1.057       31.255       24.646       16.981      976.885      607.427      288.365        0.631        0.094      103.663       17.490        0.028      341.366       16.028      860.532
08/24/2014  02:21:00      -45.083      -51.489        5.004       49.190       35.718       24.975     2419.694     1275.808      623.764        0.451        0.216       68.437       30.174        0.194      341.392       16.072      860.541
08/24/2014  02:22:00      -52.373      -37.784        8.433       33.489       31.003       21.235     1121.546      961.212      450.918        0.339        0.127       64.580       19.977        0.096      341.411       16.106      860.545
08/24/2014  02:23:00      -38.505      -48.701        0.899       31.159       31.164       19.834      970.868      971.194      393.394        0.309        0.117       62.084       18.268        0.087      341.427       16.131      860.545
08/24/2014  02:24:00      -33.904      -35.836       14.211       50.375       37.161       22.487     2537.616     1380.923      505.665        0.353        0.221       49.333       28.498        0.334      341.464       16.195      860.544
08/24/2014  02:25:00      -66.083      -48.110       -0.330       52.068       28.521       19.286     2711.051      813.446      371.969        0.529        0.195       81.741       24.049        0.087      341.451       16.173      860.551
08/24/2014  02:26:00      -56.640      -51.359        7.028       51.251       28.712       26.609     2626.646      824.370      708.027        0.503        0.208       76.459       24.917        0.106      341.314       15.940      860.561
08/24/2014  02:27:00      -80.606      -76.286       11.453       52.416       33.677       24.159     2747.419     1134.136      583.664        0.846        0.223      110.981       20.342        0.034      341.256       15.843      860.573
08/24/2014  02:28:00      -72.699      -97.201       -2.253       67.542       46.367       30.118     4561.862     2149.893      907.084        1.118        0.381      121.380       35.468        0.085      341.164       15.688      860.582
08/24/2014  02:29:00     -109.854      -86.705       -2.893       52.676       34.714       29.410     2774.779     1205.054      864.947        1.222        0.242      139.949       25.494        0.033      341.107       15.590      860.581
08/24/2014  02:30:00      -84.007      -47.729       12.830       64.827       39.656       31.012     4202.505     1572.587      961.735        0.812        0.337       96.619       30.987        0.103      341.066       15.522      860.588
08/24/2014  02:31:00      -90.416      -60.321        7.811       67.605       43.965       35.193     4570.437     1932.897     1238.531        0.981        0.387      108.691       39.035        0.129      341.050       15.493      860.597
08/24/2014  02:32:00      -64.666      -78.751        3.295       63.562       46.322       44.706     4040.128     2145.732     1998.625        0.929        0.409      101.899       30.462        0.089      340.943       15.313      860.611
08/24/2014  02:33:00     -145.470     -141.056      -15.990       59.695       52.596       26.480     3563.510     2766.360      701.197        2.417        0.352      202.629       20.785        0.011      340.912       15.255      860.611
08/24/2014  02:34:00     -159.678     -101.665        3.177       61.701       69.315       38.778     3806.983     4804.603     1503.747        2.298        0.506      189.296       41.785        0.049      340.845       15.144      860.604
08/24/2014  02:35:00     -177.670      -78.103       -0.233       68.213       42.681       25.757     4652.999     1821.683      663.437        2.240        0.357      194.079       31.276        0.026      340.927       15.283      860.612
08/24/2014  02:36:00     -114.898      -78.708       -4.620       43.419       45.227       21.142     1885.233     2045.497      446.978        1.190        0.219      139.271       15.751        0.013      340.971       15.359      860.615
08/24/2014  02:37:00     -103.427      -58.720        0.741       42.806       29.847       22.119     1832.350      890.858      489.271        0.868        0.161      118.933       21.534        0.033      340.987       15.387      860.615
08/24/2014  02:38:00      -97.844      -80.238       -0.276       65.345       48.235       33.419     4269.985     2326.613     1116.832        1.186        0.386      126.537       38.438        0.092      340.969       15.356      860.617
08/24/2014  02:39:00     -123.211      -77.856       -1.294       44.668       38.835       27.957     1995.243     1508.120      781.619        1.276        0.214      145.748       25.478        0.031      341.003       15.413      860.624
08/24/2014  02:40:00     -108.648      -88.064       -0.998       57.934       36.891       29.015     3356.380     1360.947      841.860        1.256        0.278      139.856       29.075        0.043      341.059       15.509      860.625
08/24/2014  02:41:00      -94.148      -76.740        1.999       52.581       37.054       24.269     2764.787     1372.982      588.990        0.974        0.236      121.461       17.440        0.021      341.060       15.511      860.620
08/24/2014  02:42:00     -119.201      -88.188       -2.055       43.070       37.313       26.869     1855.006     1392.244      721.963        1.298        0.198      148.277       25.644        0.030      341.096       15.572      860.615
08/24/2014  02:43:00      -77.898      -58.728        4.356       50.440       39.247       25.062     2544.185     1540.296      628.087        0.712        0.236       97.556       22.794        0.055      341.095       15.570      860.605
08/24/2014  02:44:00     -115.292      -59.002      -10.188       28.147       23.535       17.905      792.280      553.905      320.579        0.927        0.083      129.513       11.260        0.008      341.099       15.577      860.593
08/24/2014  02:45:00     -112.015      -57.353        2.357       40.503       19.114       17.638     1640.529      365.328      311.106        0.908        0.116      125.844       17.559        0.019      341.081       15.546      860.602
08/24/2014  02:46:00      -83.619      -62.793        8.388       51.454       32.934       23.049     2647.466     1084.655      531.276        0.763        0.213      104.571       18.780        0.032      341.176       15.707      860.601
08/24/2014  02:47:00      -79.921      -69.569        2.614       44.335       40.328       22.892     1965.556     1626.337      524.057        0.767        0.206      105.959       21.984        0.043      341.223       15.787      860.601
08/24/2014  02:48:00      -97.921      -59.425        4.673       45.973       32.047       24.029     2113.483     1026.980      577.407        0.843        0.186      114.542       25.360        0.049      341.244       15.822      860.619
08/24/2014  02:49:00     -106.791      -69.021        4.467       68.030       28.218       26.403     4628.044      796.257      697.131        1.115        0.306      127.154       30.513        0.058      341.275       15.874      860.622
08/24/2014  02:50:00     -111.120      -54.829       -4.084       47.492       28.555       21.585     2255.459      815.377      465.927        0.945        0.177      123.911       25.599        0.043      341.264       15.855      860.628
08/24/2014  02:51:00     -128.832      -54.284      -15.512       30.132       20.574       17.013      907.954      423.277      289.440        1.070        0.081      139.801       10.475        0.006      341.312       15.935      860.636
08/24/2014  02:52:00      -97.578      -56.120       -0.293       31.727       31.029       18.160     1006.581      962.773      329.792        0.748        0.115      112.565       17.625        0.025      341.223       15.787      860.632
08/24/2014  02:53:00      -79.010      -46.180        2.350       43.665       24.322       18.928     1906.638      591.546      358.284        0.562        0.143       91.516       16.881        0.034      341.276       15.877      860.626
08/24/2014  02:54:00      -99.913      -15.531       -3.401       29.651       16.593       12.086      879.159      275.332      146.067        0.577        0.065      101.113       13.025        0.017      341.206       15.757      860.631
08/24/2014  02:55:00     -112.919      -32.066       -1.458       33.841       23.255       20.350     1145.228      540.796      414.116        0.794        0.105      117.383       17.614        0.023      341.169       15.696      860.631
08/24/2014  02:56:00     -131.511      -35.705       -3.893       28.644       22.272       13.604      820.498      496.030      185.070        1.004        0.075      136.272        7.395        0.003      341.174       15.704      860.619
08/24/2014  02:57:00     -102.603      -45.625       -0.946       24.017       26.087       16.247      576.815      680.548      263.975        0.707        0.076      112.290       11.221        0.010      341.078       15.541      860.624
08/24/2014  02:58:00     -126.167      -56.585       -4.603       26.166       28.110       20.790      684.667      790.145      432.213        1.052        0.095      138.275       16.348        0.014      340.975       15.367      860.618
08/24/2014  02:59:00     -131.738      -34.686      -12.285       26.282       29.105       18.988      690.755      847.115      360.550        1.030        0.095      136.228       14.958        0.012      340.900       15.239      860.610
08/24/2014  03:00:00     -108.006      -21.129       -5.112       39.056       28.528       17.949     1525.387      813.867      322.171        0.740        0.133      110.053       17.853        0.026      340.944       15.314      860.605
08/24/2014  03:01:00     -122.015      -30.641       -7.587       18.675       22.167       15.041      348.741      491.393      226.246        0.848        0.053      125.804        8.984        0.005      340.923       15.279      860.607
08/24/2014  03:02:00     -131.822      -48.451       -0.326       21.334       22.064       17.964      455.128      486.838      322.689        1.049        0.063      140.444       13.280        0.009      340.983       15.380      860.607
08/24/2014  03:03:00     -124.026      -40.481       -1.669       38.425       20.812       14.755     1476.491      433.151      217.709        0.958        0.106      130.465       17.735        0.018      340.978       15.372      860.594
08/24/2014  03:04:00     -111.578      -42.217        2.194       36.741       28.665       18.304     1349.902      821.682      335.052        0.837        0.125      119.298       19.932        0.028      341.066       15.521      860.589
08/24/2014  03:05:00     -128.260      -48.541       -2.403       35.406       30.880       20.505     1253.605      953.546      420.465        1.072        0.131      137.139       17.543        0.016      341.109       15.594      860.582
08/24/2014  03:06:00      -94.399      -48.200        1.255       45.900       31.992       19.121     2106.851     1023.517      365.613        0.737        0.175      105.993       22.709        0.046      341.121       15.615      860.587
08/24/2014  03:07:00     -132.524      -74.614       -3.102       33.353       28.010       19.305     1112.438      784.559      372.684        1.270        0.113      152.085       16.316        0.012      341.162       15.683      860.586
08/24/2014  03:08:00     -116.786      -62.522        5.321       50.939       37.698       24.364     2594.757     1421.155      593.587        1.109        0.230      132.468       24.958        0.035      341.152       15.666      860.575
08/24/2014  03:09:00     -109.263      -31.681       -2.381       54.243       33.118       21.387     2942.321     1096.834      457.398        0.872        0.225      113.763       21.598        0.036      341.133       15.635      860.562
08/24/2014  03:10:00     -113.498      -30.076        2.833       42.387       27.128       22.730     1796.653      735.938      516.640        0.842        0.152      117.415       22.098        0.035      341.071       15.528      860.559
08/24/2014  03:11:00     -131.267      -50.491        1.689       34.539       28.194       16.477     1192.922      794.882      271.489        1.102        0.113      140.643       13.440        0.009      341.081       15.546      860.566
08/24/2014  03:12:00     -112.734      -42.667        6.220       40.964       32.439       20.436     1678.059     1052.289      417.648        0.886        0.157      120.539       19.825        0.027      341.021       15.446      860.555
08/24/2014  03:13:00      -94.330      -49.624        2.276       47.533       31.428       18.607     2259.396      987.742      346.236        0.748        0.180      106.587       15.529        0.021      340.969       15.357      860.551
08/24/2014  03:14:00     -106.639      -73.116       -1.426       29.805       20.430       18.011      888.361      417.405      324.389        0.917        0.082      129.297       12.597        0.009      340.928       15.288      860.545
08/24/2014  03:15:00     -120.886      -65.131       -6.103       32.318       19.815       16.602     1044.455      392.639      275.626        1.030        0.086      137.315        6.570        0.002      340.830       15.121      860.541
08/24/2014  03:16:00      -95.709      -61.523       -4.640       31.922       18.314       15.110     1019.003      335.391      228.298        0.727        0.079      113.778       13.558        0.014      340.758       14.998      860.531
08/24/2014  03:17:00     -113.887      -61.341       -9.003       14.926       15.322       12.470      222.787      234.764      155.494        0.871        0.031      129.356        7.718        0.004      340.721       14.937      860.525
08/24/2014  03:18:00      -81.734      -46.754       -5.751       42.984       28.664       19.049     1847.583      821.634      362.863        0.597        0.152       94.162       25.526        0.073      340.675       14.860      860.520
08/24/2014  03:19:00      -47.122      -34.617        1.803       39.930       23.887       20.253     1594.384      570.571      410.164        0.300        0.129       58.471       20.734        0.126      340.646       14.810      860.514
08/24/2014  03:20:00      -30.454      -31.252       13.740       33.812       27.329       19.820     1143.277      746.868      392.815        0.219        0.114       43.636       17.812        0.167      340.672       14.854      860.508
08/24/2014  03:21:00      -66.429      -51.815        7.201       31.454       33.800       20.033      989.341     1142.471      401.339        0.484        0.127       84.247       12.241        0.021      340.625       14.773      860.508
08/24/2014  03:22:00      -51.517      -64.017        7.987       38.255       41.853       20.052     1463.429     1751.672      402.065        0.522        0.181       82.172       17.425        0.045      340.689       14.883      860.515
08/24/2014  03:23:00      -47.055      -57.183        5.807       32.604       34.147       23.142     1063.020     1166.000      535.562        0.414        0.138       74.055       19.903        0.072      340.631       14.785      860.524
08/24/2014  03:24:00      -72.116     -119.009       -6.214       40.100       45.261       22.187     1608.030     2048.517      492.284        1.177        0.207      139.154       21.987        0.025      340.632       14.785      860.529
08/24/2014  03:25:00      -78.687      -58.536        2.172       39.550       39.818       25.287     1564.232     1585.456      639.453        0.671        0.189       98.072       27.566        0.079      340.550       14.648      860.518
08/24/2014  03:26:00     -104.333      -77.438        3.602       50.755       35.046       24.695     2576.111     1228.190      609.852        1.065        0.221      129.931       26.127        0.040      340.554       14.655      860.502
08/24/2014  03:27:00      -95.625      -65.748       -4.367       43.930       36.982       23.838     1929.832     1367.652      568.269        0.868        0.193      116.047       18.862        0.026      340.556       14.659      860.503
08/24/2014  03:28:00      -62.028      -49.379        3.234       36.309       30.655       22.133     1318.334      939.734      489.888        0.452        0.137       79.283       19.374        0.060      340.535       14.623      860.504
08/24/2014  03:29:00      -42.223      -46.595        5.359       35.650       28.022       20.746     1270.929      785.256      430.414        0.323        0.124       62.880       20.373        0.105      340.473       14.518      860.510
08/24/2014  03:30:00      -67.169      -72.484        0.170       19.219       28.140       15.324      369.381      791.888      234.832        0.558        0.070       98.821       10.011        0.010      340.524       14.605      860.512
08/24/2014  03:31:00      -84.351      -73.435       -6.879       28.031       20.721       23.837      785.744      429.341      568.184        0.717        0.089      111.839       17.781        0.025      340.522       14.601      860.502
08/24/2014  03:32:00      -67.360      -55.131        4.318       47.561       33.322       22.028     2262.036     1110.371      485.219        0.573        0.193       87.044       24.887        0.082      340.497       14.558      860.502
08/24/2014  03:33:00     -121.974      -53.662       -4.945       40.294       19.160       17.204     1623.570      367.114      295.977        1.003        0.114      133.256       18.245        0.019      340.555       14.657      860.493
08/24/2014  03:34:00      -81.589      -63.064        2.641       38.019       23.999       19.625     1445.465      575.928      385.157        0.652        0.120      103.121       16.723        0.026      340.487       14.542      860.489
08/24/2014  03:35:00      -72.269      -58.408        4.812       33.945       22.984       18.791     1152.266      528.283      353.083        0.535        0.102       92.921       19.709        0.045      340.472       14.516      860.489
08/24/2014  03:36:00      -74.285      -63.390       -1.186       38.761       24.692       19.236     1502.409      609.679      370.042        0.601        0.124       97.655       22.089        0.051      340.512       14.582      860.498
08/24/2014  03:37:00      -58.893      -37.318        1.817       32.276       21.049       15.341     1041.759      443.055      235.352        0.329        0.086       69.721        9.411        0.018      340.458       14.492      860.507
08/24/2014  03:38:00      -68.322      -53.533        1.543       32.273       21.653       14.665     1041.514      468.861      215.072        0.463        0.086       86.797       15.588        0.032      340.479       14.527      860.507
08/24/2014  03:39:00     -110.529      -44.503      -12.796       14.266       10.270        9.640      203.516      105.465       92.939        0.738        0.020      119.152        5.224        0.002      340.514       14.589      860.518
08/24/2014  03:40:00     -107.625      -52.201      -14.149        7.345       11.214        7.379       53.946      125.759       54.452        0.737        0.012      119.616        3.830        0.001      340.469       14.510      860.514
08/24/2014  03:41:00     -106.607      -53.776      -15.276       12.383       13.110        9.699      153.338      171.885       94.063        0.745        0.021      119.402        4.191        0.001      340.529       14.613      860.506
08/24/2014  03:42:00     -107.747      -47.656       -8.949       12.196       11.933        9.498      148.739      142.388       90.221        0.717        0.019      117.816        5.939        0.003      340.515       14.588      860.494
08/24/2014  03:43:00      -88.344      -42.378       -8.483       23.314       15.073       14.900      543.563      227.203      222.018        0.533        0.050       97.982       10.112        0.011      340.510       14.579      860.485
08/24/2014  03:44:00      -86.495      -55.333       -0.085       29.393       20.602       17.784      863.959      424.422      316.281        0.607        0.080      102.680       16.513        0.026      340.470       14.513      860.495
08/24/2014  03:45:00      -87.877      -37.398       -2.850       18.114       18.945       10.782      328.124      358.926      116.245        0.497        0.040       95.504        7.369        0.006      340.477       14.524      860.494
08/24/2014  03:46:00      -99.197      -39.679       -6.467       20.909       21.188       11.370      437.183      448.918      129.277        0.624        0.051      106.839       10.565        0.010      340.517       14.592      860.496
08/24/2014  03:47:00     -126.221      -39.333      -15.166       14.270       18.474        9.978      203.619      341.297       99.561        0.918        0.032      132.208        3.108        0.001      340.501       14.563      860.496
08/24/2014  03:48:00     -141.415      -50.479       -8.529       15.393       21.478       14.666      236.955      461.286      215.086        1.177        0.046      150.154        8.850        0.003      340.453       14.485      860.496
08/24/2014  03:49:00     -152.351      -34.540       -7.557       20.629       21.091       13.674      425.559      444.818      186.991        1.276        0.053      156.217        9.586        0.004      340.385       14.370      860.500
08/24/2014  03:50:00     -119.835      -40.052      -11.411       17.025       15.029       11.132      289.844      225.862      123.927        0.837        0.032      126.351        3.421        0.001      340.316       14.252      860.509
08/24/2014  03:51:00      -68.599      -51.108       -6.647       22.799       21.350       16.062      519.791      455.832      257.997        0.430        0.062       85.545        9.561        0.012      340.296       14.219      860.518
08/24/2014  03:52:00      -80.994      -55.947        1.482       24.319       26.222       15.926      591.396      687.573      253.626        0.561        0.077       98.439       14.665        0.022      340.342       14.296      860.528
08/24/2014  03:53:00      -77.803      -47.129       -6.098       26.064       15.105       15.765      679.313      228.168      248.524        0.473        0.058       90.964       13.656        0.023      340.344       14.301      860.541
08/24/2014  03:54:00      -88.804      -53.768       -5.832       18.315       16.175       14.022      335.440      261.619      196.621        0.580        0.040      103.813        1.954        0.000      340.362       14.330      860.550
08/24/2014  03:55:00     -103.667      -38.136      -10.196       10.236       17.056       10.091      104.768      290.920      101.826        0.640        0.025      110.459        6.704        0.004      340.339       14.290      860.556
08/24/2014  03:56:00      -83.297      -32.174      -11.809       12.201       15.923       10.551      148.863      253.528      111.334        0.431        0.026       89.295        6.605        0.005      340.284       14.197      860.559
08/24/2014  03:57:00      -57.594      -39.481        0.141       24.024       18.546       13.760      577.156      343.969      189.349        0.299        0.056       69.828       12.483        0.032      340.348       14.306      860.563
08/24/2014  03:58:00      -24.379      -34.731       -1.973       35.182       22.333       23.313     1237.775      498.743      543.484        0.204        0.114       42.434       19.716        0.216      340.350       14.309      860.564
08/24/2014  03:59:00      -52.217      -68.169       -0.055       31.737       37.848       23.696     1007.229     1432.457      561.514        0.519        0.150       85.870       20.515        0.057      340.282       14.196      860.570
08/24/2014  04:00:00      -75.495      -41.281       -2.621       30.356       25.771       19.005      921.484      664.124      361.199        0.468        0.097       86.044       10.039        0.014      340.271       14.175      860.573
08/24/2014  04:01:00      -81.822      -76.596       -3.361       33.334       42.881       20.970     1111.151     1838.790      439.744        0.798        0.169      112.079       17.268        0.024      340.239       14.122      860.562
08/24/2014  04:02:00      -88.931      -59.527       -6.525       46.251       41.291       26.052     2139.121     1704.938      678.720        0.801        0.226      107.015       27.191        0.065      340.243       14.128      860.553
08/24/2014  04:03:00     -109.536      -59.748       -3.956       24.590       24.886       17.132      604.686      619.313      293.519        0.855        0.076      124.771        8.889        0.005      340.216       14.084      860.554
08/24/2014  04:04:00      -98.926      -64.866        2.847       39.488       44.117       25.052     1559.339     1946.331      627.620        0.907        0.207      118.296       18.474        0.024      340.183       14.027      860.544
08/24/2014  04:05:00     -104.905      -48.039        4.641       34.134       34.128       20.783     1165.106     1164.692      431.953        0.805        0.138      115.381       15.989        0.019      340.188       14.037      860.536
08/24/2014  04:06:00      -99.686      -63.432       -0.151       30.030       23.872       16.923      901.811      569.880      286.379        0.786        0.088      118.157       13.887        0.014      340.187       14.035      860.534
08/24/2014  04:07:00     -102.903      -58.662       -9.136       15.467       20.205       10.188      239.241      408.229      103.799        0.743        0.038      118.449        7.463        0.004      340.163       13.993      860.541
08/24/2014  04:08:00      -83.680      -39.654       -6.523       15.172       14.910       13.969      230.186      222.319      195.131        0.463        0.032       92.600        9.551        0.011      340.180       14.022      860.554
08/24/2014  04:09:00      -75.805      -51.151       -5.086       25.764       20.199       12.306      663.786      408.000      151.446        0.481        0.061       91.449        8.337        0.008      340.189       14.037      860.547
08/24/2014  04:10:00      -64.390      -42.767        0.492       36.288       18.950       13.681     1316.816      359.095      187.166        0.392        0.093       77.299       13.960        0.033      340.163       13.993      860.546
08/24/2014  04:11:00     -111.087      -76.124      -10.072       23.434       23.847       15.523      549.176      568.692      240.953        0.980        0.068      134.667        8.684        0.004      340.200       14.057      860.545
08/24/2014  04:12:00     -123.387      -77.435       -5.085       39.404       28.991       23.496     1552.652      840.470      552.066        1.210        0.147      145.672       24.048        0.027      340.155       13.981      860.541
08/24/2014  04:13:00      -80.206      -45.318        3.220       56.163       51.494       32.278     3154.303     2651.596     1041.852        0.767        0.342       92.123       34.209        0.138      340.139       13.953      860.542
08/24/2014  04:14:00     -113.187      -72.674      -10.366       40.343       45.361       24.377     1627.521     2057.637      594.218        1.124        0.214      134.510       17.160        0.016      340.144       13.961      860.541
08/24/2014  04:15:00      -91.571      -50.722       -3.395       45.187       33.291       23.596     2041.887     1108.321      556.782        0.734        0.185      104.680       21.785        0.043      340.067       13.833      860.545
08/24/2014  04:16:00      -85.308      -56.436        1.056       53.125       27.538       23.511     2822.294      758.315      552.784        0.730        0.207      102.286       21.143        0.043      340.068       13.833      860.537
08/24/2014  04:17:00     -108.654      -57.706       -2.104       32.652       26.611       21.517     1066.166      708.121      462.970        0.869        0.112      123.027       19.736        0.026      340.052       13.806      860.528
08/24/2014  04:18:00     -113.846      -63.831       -1.390       27.250       23.130       16.145      742.589      535.011      260.664        0.929        0.077      130.519       14.725        0.013      340.027       13.765      860.532
08/24/2014  04:19:00     -123.464      -63.813       -4.890       26.455       22.799       14.088      699.854      519.804      198.478        1.038        0.071      138.980       10.979        0.006      340.059       13.818      860.533
08/24/2014  04:20:00      -99.643      -67.111       -3.413       31.669       25.192       19.268     1002.928      634.637      371.237        0.823        0.100      120.136       13.329        0.012      340.080       13.854      860.532
08/24/2014  04:21:00     -121.493      -74.686      -12.170       30.091       23.755       16.466      905.486      564.290      271.143        1.111        0.087      142.613       13.441        0.009      340.133       13.945      860.531
08/24/2014  04:22:00      -93.640      -64.221       -0.376       37.850       29.513       24.232     1432.656      871.016      587.198        0.789        0.145      113.546       19.267        0.029      340.088       13.867      860.534
08/24/2014  04:23:00      -99.532      -50.056        0.937       37.183       27.827       20.006     1382.598      774.325      400.231        0.748        0.128      111.411       16.616        0.022      340.054       13.810      860.544
08/24/2014  04:24:00      -67.255      -60.508        7.784       34.766       46.452       21.953     1208.664     2157.807      481.928        0.605        0.192       90.468       14.323        0.025      340.044       13.794      860.548
08/24/2014  04:25:00     -103.194      -72.498       -9.424       35.150       34.232       23.002     1235.495     1171.827      529.108        0.946        0.147      126.115       13.284        0.011      340.074       13.845      860.565
08/24/2014  04:26:00      -90.182      -49.959        6.978       35.350       40.742       20.174     1249.634     1659.951      407.000        0.700        0.166      103.096       15.588        0.023      340.026       13.763      860.574
08/24/2014  04:27:00     -115.697      -62.818        1.109       33.717       32.699       23.287     1136.816     1069.249      542.273        1.004        0.137      131.651       21.030        0.026      340.033       13.774      860.568
08/24/2014  04:28:00      -60.098      -45.411        6.328       44.194       28.976       18.697     1953.067      839.582      349.564        0.443        0.157       75.325       19.574        0.068      340.017       13.748      860.581
08/24/2014  04:29:00     -100.999      -72.896       -0.292       34.569       38.894       21.986     1195.014     1512.740      483.392        0.935        0.160      124.558       21.129        0.029      340.040       13.788      860.596
08/24/2014  04:30:00      -86.399      -50.048       -1.683       41.788       23.360       21.843     1746.249      545.712      477.127        0.637        0.138       99.848       21.547        0.047      340.033       13.776      860.602
08/24/2014  04:31:00      -86.800      -67.290      -14.353       18.422       27.000       14.281      339.358      729.024      203.959        0.677        0.064      109.828        9.252        0.007      340.103       13.893      860.613
08/24/2014  04:32:00      -58.370      -73.050       -8.483       28.187       31.396       22.407      794.530      985.715      502.070        0.555        0.114       93.506       11.997        0.016      340.070       13.838      860.628
08/24/2014  04:33:00      -74.124      -64.326       -0.819       22.407       48.285       17.975      502.072     2331.483      323.101        0.639        0.158       98.144       18.263        0.035      340.041       13.789      860.630
08/24/2014  04:34:00      -88.642      -60.343      -14.313       25.414       24.658       20.556      645.866      608.011      422.529        0.669        0.084      107.232       13.308        0.015      340.027       13.765      860.624
08/24/2014  04:35:00      -85.210      -46.310       -1.999       29.911       32.216       15.476      894.673     1037.887      239.515        0.579        0.109       96.981        8.023        0.007      339.992       13.704      860.622
08/24/2014  04:36:00      -72.690      -41.335       -0.018       30.663       28.683       17.222      940.200      822.707      296.609        0.453        0.103       83.621       15.842        0.036      339.970       13.669      860.623
08/24/2014  04:37:00      -50.025      -31.824        1.092       17.997       19.684       14.872      323.885      387.454      221.174        0.222        0.047       59.290       10.473        0.031      339.953       13.640      860.620
08/24/2014  04:38:00      -39.949      -24.650        3.436       19.103       12.997       11.380      364.906      168.913      129.507        0.144        0.033       46.942        5.915        0.016      339.991       13.706      860.622
08/24/2014  04:39:00      -44.523      -21.951        0.408       17.185        9.335        9.965      295.327       87.149       99.298        0.147        0.024       49.640        7.829        0.025      340.005       13.727      860.635
08/24/2014  04:40:00      -33.081      -34.776       -1.242       28.738       16.343       15.750      825.861      267.101      248.066        0.182        0.067       47.997       16.994        0.125      339.993       13.707      860.642
08/24/2014  04:41:00      -58.713      -40.292       -4.234       29.520       19.962       16.283      871.408      398.477      265.131        0.331        0.077       71.208       17.446        0.060      339.947       13.630      860.640
08/24/2014  04:42:00      -64.414      -37.941       -1.642       29.320       17.713       17.192      859.634      313.762      295.573        0.353        0.073       74.758        7.537        0.010      340.018       13.750      860.640
08/24/2014  04:43:00      -78.042      -29.740       -3.975       27.040       17.015       12.609      731.181      289.497      158.989        0.409        0.059       83.517        6.693        0.006      340.024       13.761      860.648
08/24/2014  04:44:00      -83.256      -34.865       -0.247       36.748       28.793       20.990     1350.432      829.061      440.572        0.538        0.131       90.262       15.094        0.028      340.008       13.732      860.658
08/24/2014  04:45:00      -84.330      -47.032       -6.678       20.343       22.334       16.257      413.842      498.818      264.300        0.527        0.059       96.558       15.257        0.025      340.010       13.736      860.650
08/24/2014  04:46:00     -106.885      -43.287        1.939       24.305       29.315       19.349      590.712      859.350      374.373        0.756        0.091      115.317       11.173        0.009      339.935       13.610      860.649
08/24/2014  04:47:00      -81.061      -55.092       -2.130       22.833       28.948       18.488      521.333      838.013      341.823        0.566        0.085       98.010       13.584        0.019      339.932       13.605      860.642
08/24/2014  04:48:00      -49.655      -39.738        3.972       46.763       23.149       20.611     2186.819      535.861      424.832        0.360        0.157       63.598       24.026        0.143      339.968       13.665      860.651
08/24/2014  04:49:00      -81.403      -31.980       -5.592       15.879       15.652       13.316      252.150      244.974      177.319        0.418        0.034       87.460       10.363        0.014      339.886       13.527      860.650
08/24/2014  04:50:00      -88.539      -32.669      -14.482       11.300       10.368       11.052      127.685      107.489      122.138        0.474        0.018       94.374        7.095        0.006      339.895       13.540      860.643
08/24/2014  04:51:00      -87.114      -32.789       -5.367       13.836       15.701       10.323      191.441      246.534      106.566        0.462        0.027       93.080        6.281        0.005      339.911       13.569      860.648
08/24/2014  04:52:00      -91.480      -20.224       -9.211       14.189       13.811        9.142      201.314      190.740       83.569        0.467        0.024       93.689        6.032        0.004      339.936       13.609      860.665
08/24/2014  04:53:00      -91.403      -22.173       -8.625       19.454       18.047       13.009      378.450      325.710      169.225        0.490        0.044       94.054       11.744        0.016      339.848       13.463      860.670
08/24/2014  04:54:00      -73.993      -11.855       -8.676       22.842       12.046       11.226      521.751      145.107      126.014        0.324        0.040       74.936        7.623        0.010      339.854       13.473      860.670
08/24/2014  04:55:00      -60.938       -6.660        0.492       17.525       14.868       11.424      307.141      221.058      130.511        0.221        0.033       61.301        9.064        0.022      339.795       13.372      860.673
08/24/2014  04:56:00      -69.841      -19.834      -10.192       11.201       11.560        9.668      125.453      133.634       93.474        0.286        0.018       72.602        5.196        0.005      339.871       13.501      860.672
08/24/2014  04:57:00      -77.183      -35.122       -4.187       11.711       13.435       10.253      137.143      180.494      105.131        0.382        0.021       84.798        5.604        0.004      339.912       13.569      860.669
08/24/2014  04:58:00      -70.415      -42.395       -5.630       25.248       17.736       15.398      637.447      314.548      237.088        0.399        0.059       82.192        8.748        0.011      339.868       13.496      860.661
08/24/2014  04:59:00      -71.927      -56.763       -0.542       30.399       25.732       21.114      924.095      662.119      445.813        0.521        0.102       91.627       12.037        0.017      339.772       13.335      860.655
08/24/2014  05:00:00      -92.798      -76.194       -3.572       24.403       24.176       17.339      595.515      584.456      300.624        0.795        0.074      120.071        9.934        0.007      339.674       13.169      860.648
08/24/2014  05:01:00      -72.650      -67.328       -0.890       36.399       35.535       20.833     1324.853     1262.738      434.021        0.642        0.151       99.051       16.518        0.028      339.724       13.254      860.655
08/24/2014  05:02:00      -99.414      -84.211       -1.396       33.886       35.060       24.150     1148.273     1229.213      583.228        0.997        0.148      130.287       18.217        0.020      339.792       13.370      860.650
08/24/2014  05:03:00      -88.012      -85.740      -10.310       38.581       44.944       20.929     1488.469     2019.960      438.027        0.957        0.197      122.872       18.019        0.022      339.855       13.474      860.642
08/24/2014  05:04:00      -61.715      -55.575       -0.384       36.112       40.520       24.684     1304.108     1641.854      609.284        0.523        0.178       83.050       24.280        0.085      339.837       13.443      860.632
08/24/2014  05:05:00     -109.660     -120.572      -12.411       29.044       34.375       16.606      843.532     1181.630      275.763        1.451        0.115      162.982       13.775        0.007      339.851       13.469      860.638
08/24/2014  05:06:00     -102.009      -75.154       -1.206       39.207       39.679       28.190     1537.194     1574.414      794.672        0.998        0.195      126.704       24.416        0.037      339.790       13.365      860.631
08/24/2014  05:07:00     -122.514      -75.400       -4.485       30.379       24.256       17.774      922.862      588.347      315.913        1.127        0.091      143.857       11.812        0.007      339.827       13.427      860.622
08/24/2014  05:08:00      -86.743      -49.048        5.498       51.676       32.040       23.513     2670.361     1026.570      552.872        0.710        0.212       99.650       23.617        0.056      339.744       13.288      860.622
08/24/2014  05:09:00      -83.307      -78.552        7.745       44.477       36.988       21.710     1978.177     1368.138      471.331        0.849        0.191      114.501       26.212        0.052      339.752       13.301      860.622
08/24/2014  05:10:00      -97.114      -52.590        1.233       44.077       27.221       23.585     1942.814      740.981      556.262        0.772        0.162      110.439       23.246        0.044      339.743       13.287      860.624
08/24/2014  05:11:00      -86.855      -52.820       -3.607       26.169       36.070       17.430      684.791     1301.051      303.801        0.632        0.114      101.655       10.656        0.011      339.782       13.354      860.631
08/24/2014  05:12:00      -93.816      -66.445      -17.108       34.660       25.702       18.093     1201.349      660.604      327.352        0.785        0.109      114.963       15.020        0.017      339.775       13.343      860.619
08/24/2014  05:13:00      -71.994      -72.734       -2.447       24.199       24.707       16.543      585.603      610.452      273.666        0.597        0.073      102.340       14.506        0.020      339.770       13.331      860.614
08/24/2014  05:14:00      -78.021      -73.433       -1.497       30.552       24.557       14.975      933.421      603.050      224.237        0.662        0.088      107.143        9.854        0.008      339.735       13.272      860.608
08/24/2014  05:15:00      -87.376      -60.859        2.565       31.268       30.360       17.885      977.679      921.718      319.858        0.678        0.111      106.482        8.888        0.007      339.724       13.254      860.611
08/24/2014  05:16:00      -45.994      -39.074        8.696       46.612       30.469       21.588     2172.636      928.363      466.043        0.364        0.178       60.351       23.016        0.145      339.660       13.145      860.615
08/24/2014  05:17:00      -67.220      -61.406        1.282       30.473       30.613       19.429      928.630      937.135      377.476        0.527        0.112       91.046       14.054        0.024      339.718       13.243      860.631
08/24/2014  05:18:00      -54.912      -77.563        0.285       41.017       36.792       30.815     1682.430     1353.626      949.554        0.651        0.199       95.034       17.058        0.032      339.693       13.201      860.640
08/24/2014  05:19:00     -109.626      -52.596       -0.894       62.379       39.084       33.352     3891.165     1527.567     1112.325        1.066        0.327      121.590       31.502        0.067      339.604       13.050      860.645
08/24/2014  05:20:00      -93.122      -62.929        3.715       52.177       58.451       26.507     2722.420     3416.479      702.605        0.974        0.342      112.391       25.396        0.051      339.549       12.958      860.642
08/24/2014  05:21:00     -107.772     -115.330       -1.266       52.371       39.300       33.209     2742.755     1544.505     1102.849        1.515        0.270      157.847       33.035        0.044      339.577       13.006      860.634
08/24/2014  05:22:00     -145.289     -110.589      -19.707       44.283       35.304       25.774     1961.027     1246.362      664.290        1.880        0.194      182.589       20.430        0.013      339.603       13.048      860.631
08/24/2014  05:23:00     -132.183      -87.925        5.079       71.185       50.029       30.808     5067.291     2502.882      949.119        1.687        0.426      158.756       32.367        0.042      339.584       13.015      860.619
08/24/2014  05:24:00     -128.373      -98.393       -3.490       60.832       47.416       27.888     3700.477     2248.287      777.716        1.645        0.336      161.743       30.717        0.036      339.584       13.016      860.614
08/24/2014  05:25:00      -71.816      -64.614        7.994       50.132       40.069       25.670     2513.171     1605.538      658.969        0.709        0.239       96.605       28.262        0.086      339.607       13.057      860.616
08/24/2014  05:26:00     -112.491      -66.145       -3.847       27.809       26.416       21.473      773.357      697.826      461.070        0.949        0.097      130.497       12.327        0.009      339.608       13.057      860.631
08/24/2014  05:27:00     -101.330      -72.239       -2.305       51.065       30.242       24.275     2607.625      914.566      589.271        0.980        0.206      124.443       20.131        0.026      339.614       13.067      860.637
08/24/2014  05:28:00      -69.884      -52.776       10.137       61.037       42.149       29.919     3725.541     1776.545      895.136        0.708        0.320       87.573       30.359        0.120      339.543       12.948      860.635
08/24/2014  05:29:00     -107.657     -100.344       -1.889       46.837       43.508       28.986     2193.700     1892.913      840.204        1.329        0.246      147.170       31.100        0.045      339.573       12.999      860.633
08/24/2014  05:30:00     -115.793      -84.416       -4.496       33.896       34.540       23.325     1148.917     1193.012      544.071        1.172        0.144      143.297       25.129        0.031      339.588       13.024      860.641
08/24/2014  05:31:00     -109.321      -72.249       -6.569       35.004       28.515       21.494     1225.299      813.120      461.990        0.986        0.125      131.038       17.176        0.017      339.623       13.083      860.641
08/24/2014  05:32:00     -102.879      -84.299       -8.847       33.128       34.161       16.860     1097.455     1166.988      284.257        1.016        0.127      133.005       17.357        0.017      339.594       13.034      860.632
08/24/2014  05:33:00      -90.972      -67.624        2.093       47.464       30.531       24.758     2252.810      932.155      612.980        0.832        0.190      113.353       26.771        0.056      339.583       13.015      860.619
08/24/2014  05:34:00      -94.818      -90.397       -0.474       56.165       44.826       31.880     3154.469     2009.338     1016.311        1.167        0.309      131.004       35.670        0.074      339.541       12.947      860.615
08/24/2014  05:35:00      -88.440      -75.181        3.025       33.610       32.785       23.253     1129.606     1074.828      540.709        0.811        0.137      116.076       20.486        0.031      339.512       12.896      860.606
08/24/2014  05:36:00      -74.866      -57.369        5.966       34.155       29.030       23.973     1166.541      842.766      574.696        0.576        0.129       94.320       19.543        0.043      339.579       13.011      860.602
08/24/2014  05:37:00      -97.649      -53.559       -6.191       38.731       33.050       19.956     1500.111     1092.306      398.224        0.772        0.150      111.372       17.447        0.025      339.573       12.998      860.619
08/24/2014  05:38:00      -97.167      -68.339        1.221       43.634       29.260       21.242     1903.947      856.143      451.231        0.866        0.161      118.793       19.121        0.026      339.550       12.961      860.620
08/24/2014  05:39:00      -63.036      -55.697        2.344       35.956       25.890       28.015     1292.838      670.289      784.861        0.491        0.137       84.117       23.027        0.075      339.563       12.982      860.618
08/24/2014  05:40:00      -74.895      -55.980        3.104       39.867       29.835       20.976     1589.386      890.154      439.978        0.584        0.146       93.504       21.802        0.054      339.492       12.862      860.637
08/24/2014  05:41:00      -83.206      -35.588       -4.718       23.919       26.608       11.377      572.124      707.966      129.432        0.481        0.070       90.497        8.120        0.008      339.532       12.929      860.659
08/24/2014  05:42:00      -73.508      -40.263        1.586       24.421       21.396       18.533      596.401      457.791      343.455        0.421        0.070       83.813       14.800        0.031      339.584       13.017      860.660
08/24/2014  05:43:00      -74.551      -48.006       -2.679       32.605       22.595       12.448     1063.086      510.514      154.957        0.480        0.086       88.670        7.661        0.007      339.567       12.990      860.656
08/24/2014  05:44:00      -68.458      -10.116      -10.069       20.101       15.114       11.397      404.040      228.436      129.900        0.283        0.038       69.202        7.195        0.011      339.442       12.778      860.659
08/24/2014  05:45:00      -76.034      -11.933       -0.154       24.098       20.300       15.365      580.693      412.070      236.097        0.358        0.061       76.964       12.532        0.027      339.419       12.739      860.643
08/24/2014  05:46:00     -127.801      -46.326       -3.837       22.246       25.586       13.851      494.865      654.653      191.840        0.992        0.067      135.938       11.324        0.007      339.543       12.948      860.622
08/24/2014  05:47:00     -122.448      -22.920       -4.764       36.889       23.594       17.761     1360.830      556.688      315.469        0.889        0.112      124.575       17.964        0.021      339.487       12.853      860.607
08/24/2014  05:48:00      -82.337      -20.376       -2.742       21.126       18.284       10.945      446.322      334.318      119.782        0.405        0.045       84.821       11.022        0.017      339.518       12.905      860.607
08/24/2014  05:49:00      -51.003      -16.004       -7.514       22.529       13.002        9.014      507.553      169.050       81.248        0.184        0.038       53.455        5.368        0.010      339.504       12.882      860.613
08/24/2014  05:50:00      -49.072      -25.998       -2.806       18.291       14.056        8.723      334.563      197.573       76.082        0.185        0.030       55.534        5.361        0.009      339.490       12.858      860.621
08/24/2014  05:51:00      -34.165      -30.753        5.610       23.131       12.327       12.316      535.051      151.962      151.681        0.149        0.042       45.968       12.905        0.079      339.525       12.918      860.643
08/24/2014  05:52:00      -63.560      -33.239       -8.114       15.686       19.666       12.038      246.038      386.737      144.925        0.299        0.039       71.727       12.200        0.029      339.627       13.089      860.657
08/24/2014  05:53:00      -87.428      -31.013       -5.361       14.722       15.231        9.016      216.751      231.979       81.297        0.458        0.027       92.765        6.997        0.006      339.659       13.144      860.664
08/24/2014  05:54:00      -99.941      -43.891      -12.134       26.391       12.641        9.983      696.481      159.806       99.655        0.651        0.048      109.154        6.427        0.003      339.529       12.923      860.674
08/24/2014  05:55:00      -49.147      -38.832        3.801       40.193       23.898       19.358     1615.502      571.099      374.723        0.325        0.128       62.637       15.173        0.059      339.414       12.732      860.686
08/24/2014  05:56:00      -56.310      -53.446        5.600       59.669       32.623       25.475     3560.418     1064.238      648.980        0.567        0.264       77.636       32.229        0.172      339.412       12.726      860.702
08/24/2014  05:57:00     -109.151      -56.498      -11.104       29.237       34.868       20.830      854.779     1215.776      433.901        0.887        0.125      122.906       18.883        0.024      339.426       12.750      860.715
08/24/2014  05:58:00     -123.633      -66.888       -9.251       28.131       51.872       21.862      791.329     2690.755      477.926        1.190        0.198      140.568        9.184        0.004      339.482       12.845      860.716
08/24/2014  05:59:00     -102.121      -53.422        4.486       52.846       45.960       23.046     2792.722     2112.324      531.095        0.937        0.272      115.250       23.760        0.043      339.443       12.779      860.719
08/24/2014  06:00:00      -96.057      -82.199       -4.850       29.923       33.472       21.710      895.358     1120.361      471.309        0.925        0.124      126.426       15.393        0.015      339.471       12.825      860.724
08/24/2014  06:01:00      -57.033      -39.238        1.599       36.814       31.049       21.335     1355.272      964.042      455.166        0.378        0.139       69.227       18.987        0.075      339.444       12.783      860.730
08/24/2014  06:02:00      -86.524      -52.526       -0.414       34.377       21.898       18.250     1181.752      479.542      333.053        0.612        0.100      101.220       17.944        0.031      339.413       12.729      860.740
08/24/2014  06:03:00      -74.803       -5.654       -4.775       25.962       26.192       16.563      674.027      686.019      274.342        0.364        0.082       75.016       13.736        0.034      339.334       12.595      860.747
08/24/2014  06:04:00      -89.107       -5.421        1.981       28.381       18.706       17.887      805.488      349.908      319.953        0.472        0.074       89.272       17.388        0.038      339.244       12.443      860.743
08/24/2014  06:05:00      -70.896      -24.286        2.448       26.636       26.973       16.530      709.465      727.555      273.257        0.367        0.086       74.940       14.282        0.036      339.229       12.418      860.741
08/24/2014  06:06:00      -75.867      -15.658        0.063       27.677       22.930       16.974      765.990      525.782      288.122        0.379        0.079       77.466       16.680        0.046      339.169       12.318      860.738
08/24/2014  06:07:00      -78.457      -27.224        3.144       33.670       19.789       18.838     1133.696      391.599      354.862        0.439        0.094       83.046       18.171        0.048      339.230       12.421      860.735
08/24/2014  06:08:00      -94.587      -40.508        1.148       45.622       30.932       15.714     2081.387      956.817      246.936        0.694        0.164      102.895       12.146        0.014      339.281       12.506      860.724
08/24/2014  06:09:00      -75.928      -50.296        0.040       44.424       26.592       17.448     1973.480      707.135      304.429        0.564        0.149       91.076       13.842        0.023      339.354       12.629      860.727
08/24/2014  06:10:00      -69.927      -57.095       -1.369       44.029       45.085       31.514     1938.512     2032.641      993.109        0.656        0.248       90.275       31.262        0.120      339.326       12.582      860.727
08/24/2014  06:11:00     -109.014      -76.501       -6.958       42.107       30.509       27.716     1773.023      930.792      768.183        1.063        0.174      133.179       17.289        0.017      339.333       12.594      860.731
08/24/2014  06:12:00      -88.597      -67.722       -0.169       41.094       36.886       29.620     1688.743     1360.545      877.356        0.818        0.196      111.515       27.199        0.059      339.318       12.570      860.740
08/24/2014  06:13:00     -107.078      -91.798      -14.595       37.692       32.087       20.835     1420.665     1029.588      434.107        1.149        0.144      141.041       16.062        0.013      339.326       12.584      860.747
08/24/2014  06:14:00      -80.142      -70.402       -5.176       49.004       40.840       27.625     2401.347     1667.893      763.133        0.812        0.242      106.673       27.359        0.066      339.320       12.571      860.757
08/24/2014  06:15:00      -80.184     -101.008       -2.221       44.973       58.374       27.707     2022.540     3407.530      767.700        1.142        0.310      128.966       31.043        0.058      339.292       12.524      860.758
08/24/2014  06:16:00     -137.785     -110.392       -6.708       47.550       48.171       28.853     2261.003     2320.491      832.472        1.831        0.271      176.553       22.388        0.016      339.263       12.475      860.768
08/24/2014  06:17:00     -127.216      -80.749       -1.097       45.529       40.382       24.232     2072.903     1630.740      587.200        1.350        0.215      150.680       20.833        0.019      339.255       12.462      860.786
08/24/2014  06:18:00     -124.423      -87.623      -14.434       33.648       41.102       22.654     1132.167     1689.401      513.198        1.335        0.167      152.181       18.027        0.014      339.250       12.455      860.802
08/24/2014  06:19:00     -135.828      -75.553       -2.530       59.860       48.358       26.349     3583.189     2338.518      694.292        1.539        0.331      155.427       23.958        0.024      339.204       12.377      860.805
08/24/2014  06:20:00     -134.018      -68.076       -4.843       35.909       33.860       25.620     1289.430     1146.521      656.397        1.285        0.155      150.317       21.485        0.020      339.184       12.343      860.807
08/24/2014  06:21:00     -102.716      -62.387        0.956       52.038       35.358       28.458     2707.964     1250.209      809.851        0.960        0.238      120.178       32.691        0.074      339.177       12.333      860.809
08/24/2014  06:22:00     -122.212      -68.685       -2.367       45.276       30.038       20.803     2049.884      902.285      432.745        1.152        0.169      140.190       15.934        0.013      339.179       12.335      860.816
08/24/2014  06:23:00      -97.986      -39.395        0.543       36.366       40.197       18.908     1322.473     1615.805      357.495        0.722        0.165      105.609       20.434        0.037      339.205       12.378      860.833
08/24/2014  06:24:00      -93.535      -94.360       -1.443       41.494       46.539       22.547     1721.719     2165.854      508.384        1.102        0.220      132.863       20.842        0.025      339.223       12.409      860.850
08/24/2014  06:25:00     -115.661      -71.002        2.572       53.540       37.413       27.899     2866.529     1399.765      778.369        1.173        0.252      135.716       24.249        0.032      339.194       12.359      860.856
08/24/2014  06:26:00      -61.711      -65.629        8.863       48.230       31.526       26.030     2326.092      993.900      677.580        0.610        0.200       90.086       24.487        0.074      339.269       12.488      860.866
08/24/2014  06:27:00     -120.847      -67.256        8.114       54.803       39.903       24.885     3003.378     1592.272      619.246        1.220        0.261      138.301       24.549        0.032      339.179       12.335      860.884
08/24/2014  06:28:00     -110.624      -55.976       -1.910       46.355       35.210       21.080     2148.822     1239.759      444.359        0.960        0.192      123.980       14.677        0.014      339.236       12.431      860.899
08/24/2014  06:29:00     -114.118      -64.179       -5.618       50.744       34.484       19.394     2574.968     1189.180      376.125        1.066        0.207      130.927       13.635        0.011      339.216       12.399      860.901
08/24/2014  06:30:00      -85.789      -68.698        6.076       61.355       46.195       23.496     3764.383     2133.938      552.051        0.928        0.323      109.905       19.802        0.032      339.186       12.344      860.910
08/24/2014  06:31:00     -113.470      -76.718        1.494       53.198       49.329       26.090     2830.009     2433.371      680.680        1.235        0.297      136.971       22.192        0.026      339.177       12.333      860.917
08/24/2014  06:32:00      -90.135      -63.848        1.076       53.559       45.996       30.602     2868.525     2115.600      936.491        0.906        0.296      110.458       30.504        0.076      339.155       12.295      860.937
08/24/2014  06:33:00     -129.071      -71.209       -0.170       61.082       39.762       23.015     3730.989     1581.042      529.697        1.378        0.292      147.411       31.490        0.046      339.158       12.297      860.946
08/24/2014  06:34:00     -125.406      -50.404       -6.250       42.047       35.056       25.890     1767.944     1228.925      670.288        1.099        0.183      135.156       21.589        0.026      339.176       12.330      860.952
08/24/2014  06:35:00      -89.746      -74.591       -5.191       44.521       42.463       27.028     1982.113     1803.094      730.501        0.908        0.226      116.697       28.059        0.058      339.156       12.296      860.971
08/24/2014  06:36:00      -98.747      -85.311      -10.815       36.221       37.321       21.056     1311.933     1392.843      443.372        1.015        0.157      130.495       12.229        0.009      339.200       12.371      860.977
08/24/2014  06:37:00      -87.053      -71.811        0.230       37.083       39.340       21.109     1375.115     1547.617      445.575        0.805        0.168      112.849       17.985        0.025      339.168       12.317      860.976
08/24/2014  06:38:00     -113.652      -53.502        3.258       28.570       39.193       21.274      816.256     1536.066      452.595        0.930        0.140      125.615       17.039        0.018      339.172       12.324      860.977
08/24/2014  06:39:00     -104.024      -68.439       -2.904       38.707       25.442       21.343     1498.223      647.303      455.504        0.906        0.130      124.519        9.342        0.006      339.158       12.300      860.981
08/24/2014  06:40:00      -97.447      -99.046       -1.624       38.692       40.243       24.180     1497.092     1619.509      584.663        1.150        0.185      138.946       20.612        0.022      339.114       12.225      860.978
08/24/2014  06:41:00     -122.849      -61.677        0.279       58.126       28.403       26.943     3378.587      806.738      725.948        1.190        0.246      137.462       25.735        0.035      339.157       12.298      860.982
08/24/2014  06:42:00     -110.978      -65.629        5.600       46.322       38.425       24.520     2145.763     1476.446      601.221        1.044        0.211      128.932       23.479        0.033      339.130       12.251      860.981
08/24/2014  06:43:00      -87.583      -67.240       -5.682       32.420       39.681       20.676     1051.036     1574.582      427.516        0.764        0.153      110.418       17.126        0.024      339.186       12.346      860.992
08/24/2014  06:44:00      -84.549      -85.273        2.388       49.176       31.482       27.493     2418.308      991.114      755.870        0.929        0.208      120.084       30.240        0.063      339.145       12.277      860.999
08/24/2014  06:45:00     -124.102      -83.876      -11.302       36.888       43.468       27.631     1360.760     1889.448      763.457        1.329        0.201      149.788       27.980        0.035      339.171       12.322      861.006
08/24/2014  06:46:00      -89.109      -67.150       -9.223       45.738       31.361       28.204     2091.927      983.487      795.479        0.820        0.194      111.578       23.279        0.044      339.180       12.339      861.019
08/24/2014  06:47:00     -110.553     -129.349       -5.626       57.515       63.648       34.513     3308.008     4051.125     1191.168        1.877        0.428      170.156       35.850        0.044      339.149       12.283      861.029
08/24/2014  06:48:00     -118.979      -74.793        2.971       43.896       59.802       27.782     1926.849     3576.309      771.848        1.302        0.314      140.535       21.829        0.024      339.135       12.260      861.040
08/24/2014  06:49:00     -154.655      -85.555      -19.718       32.806       56.915       28.774     1076.219     3239.317      827.922        1.838        0.257      176.742       22.115        0.016      339.110       12.218      861.050
08/24/2014  06:50:00     -127.030      -48.078       -1.289       51.227       31.908       24.938     2624.202     1018.093      621.907        1.136        0.213      135.824       24.924        0.034      339.140       12.269      861.054
08/24/2014  06:51:00     -119.135      -70.156       -0.931       34.863       34.287       24.428     1215.429     1175.574      596.736        1.105        0.149      138.257       19.969        0.021      339.131       12.253      861.057
08/24/2014  06:52:00      -87.625      -40.411        3.980       47.265       32.859       21.996     2233.954     1079.726      483.806        0.656        0.190       96.495       24.389        0.064      339.175       12.328      861.061
08/24/2014  06:53:00      -54.687      -52.850        6.571       34.395       35.804       20.852     1182.991     1281.917      434.794        0.436        0.145       76.052       21.967        0.083      339.260       12.471      861.074
08/24/2014  06:54:00      -84.990      -84.881      -10.269       18.941       23.797       15.238      358.773      566.277      232.195        0.785        0.058      120.116        9.649        0.006      339.242       12.440      861.076
08/24/2014  06:55:00      -67.600      -57.918       -3.950       31.920       30.567       20.256     1018.879      934.350      410.296        0.515        0.118       89.018       20.426        0.053      339.338       12.603      861.080
08/24/2014  06:56:00      -79.057      -53.475        1.637       28.729       23.109       23.494      825.359      534.006      551.982        0.551        0.096       95.444       18.271        0.037      339.290       12.521      861.083
08/24/2014  06:57:00      -67.133      -56.273        3.948       43.644       32.844       20.908     1904.821     1078.725      437.125        0.555        0.171       87.599       23.309        0.071      339.297       12.533      861.088
08/24/2014  06:58:00      -43.873      -35.818        6.637       38.070       28.009       20.128     1449.352      784.494      405.154        0.294        0.132       56.638       18.395        0.105      339.347       12.617      861.104
08/24/2014  06:59:00      -52.609      -37.027        4.925       36.290       28.840       16.722     1316.930      831.756      279.610        0.330        0.121       64.333       16.730        0.068      339.342       12.610      861.115
08/24/2014  07:00:00     -107.168      -46.642       -4.256       25.257       29.795       17.547      637.896      887.727      307.910        0.776        0.092      116.878        8.751        0.006      339.312       12.558      861.110
08/24/2014  07:01:00     -108.477      -32.359       -0.177       32.932       24.021       17.278     1084.538      577.031      298.544        0.739        0.098      113.201       14.196        0.016      339.260       12.471      861.114
08/24/2014  07:02:00      -82.769      -40.060        1.439       30.746       26.133       18.338      945.293      682.910      336.295        0.521        0.098       91.954       16.052        0.030      339.319       12.571      861.124
08/24/2014  07:03:00      -28.839      -18.798        1.450       23.205       28.005       13.099      538.458      784.263      171.596        0.134        0.075       34.425       13.501        0.154      339.426       12.752      861.127
08/24/2014  07:04:00      -41.222      -17.482        6.263       42.594       14.407       19.686     1814.221      207.553      387.550        0.223        0.120       44.775       25.105        0.314      339.522       12.916      861.131
08/24/2014  07:05:00      -74.781      -21.500       -5.166       17.188       17.254       12.720      295.417      297.715      161.788        0.342        0.038       77.811        6.374        0.007      339.466       12.819      861.136
08/24/2014  07:06:00      -92.962      -19.249       -9.334       16.189       16.467       12.551      262.079      271.150      157.526        0.490        0.035       94.934        9.959        0.011      339.412       12.728      861.127
08/24/2014  07:07:00      -94.190      -21.117       -7.012       17.394       13.737       10.220      302.543      188.697      104.441        0.498        0.030       96.528        8.378        0.008      339.454       12.799      861.124
08/24/2014  07:08:00      -81.363      -30.124       -6.211       14.088       18.254       10.480      198.461      333.209      109.826        0.410        0.032       86.761        6.836        0.006      339.469       12.822      861.132
08/24/2014  07:09:00      -29.287      -12.764        6.861       25.224       23.144       11.859      636.247      535.632      140.641        0.119        0.066       31.948       15.014        0.221      339.666       13.156      861.135
08/24/2014  07:10:00      -36.732      -19.463       -1.069       15.197       20.813       10.051      230.963      433.193      101.015        0.125        0.038       41.570        5.424        0.017      339.537       12.939      861.151
08/24/2014  07:11:00      -49.072      -19.110       -0.341       18.711       12.321       11.505      350.089      151.806      132.373        0.170        0.032       52.662       11.586        0.048      339.526       12.921      861.167
08/24/2014  07:12:00      -48.639      -13.160       -0.204       21.099       20.608       15.096      445.161      424.688      227.875        0.182        0.055       50.388       13.684        0.074      339.555       12.969      861.180
08/24/2014  07:13:00      -45.475      -31.215        2.263       24.232       18.372       15.018      587.173      337.539      225.550        0.210        0.058       55.158       10.765        0.038      339.569       12.992      861.185
08/24/2014  07:14:00      -33.871      -56.321        3.428       37.138       30.793       17.783     1379.219      948.203      316.230        0.349        0.132       65.721       20.030        0.093      339.583       13.015      861.188
08/24/2014  07:15:00      -59.333      -57.012        1.719       27.794       27.590       16.473      772.499      761.233      271.353        0.429        0.090       82.285       17.158        0.043      339.514       12.900      861.186
08/24/2014  07:16:00      -86.771      -68.800       -8.084       17.275       19.288       13.339      298.440      372.013      177.931        0.659        0.042      110.737        9.770        0.008      339.549       12.957      861.186
08/24/2014  07:17:00      -67.708      -48.364       -8.188       18.559       18.842       11.968      344.448      355.026      143.237        0.392        0.042       83.208        6.752        0.007      339.648       13.124      861.179
08/24/2014  07:18:00      -62.539      -61.595       -2.711       19.854       17.240       15.491      394.162      297.231      239.977        0.432        0.047       87.778       13.576        0.024      339.626       13.090      861.181
08/24/2014  07:19:00      -46.740      -47.321        2.762       38.764       20.644       19.142     1502.618      426.186      366.413        0.336        0.115       66.513       18.518        0.078      339.699       13.211      861.164
08/24/2014  07:20:00      -58.172      -53.413        4.756       42.782       25.090       21.073     1830.282      629.505      444.077        0.458        0.145       78.974       25.132        0.101      339.696       13.206      861.157
08/24/2014  07:21:00      -25.308      -33.890        9.032       30.592       24.455       23.026      935.877      598.059      530.193        0.197        0.103       42.297       19.007        0.202      339.774       13.339      861.150
08/24/2014  07:22:00      -64.146      -47.078        4.897       37.690       24.048       17.955     1420.520      578.310      322.391        0.434        0.116       79.568       18.432        0.054      339.804       13.388      861.151
08/24/2014  07:23:00      -50.222      -44.004        3.689       35.166       31.243       21.695     1236.628      976.129      470.680        0.358        0.134       66.772       20.648        0.096      339.840       13.450      861.152
08/24/2014  07:24:00      -54.825      -34.285        9.235       54.089       26.075       21.533     2925.637      679.931      463.687        0.417        0.203       64.663       30.946        0.229      339.993       13.707      861.152
08/24/2014  07:25:00      -27.622      -30.570       10.940       37.595       21.926       19.722     1413.414      480.750      388.963        0.205        0.114       41.201       24.329        0.349      340.056       13.815      861.158
08/24/2014  07:26:00      -35.965      -34.874        3.327       28.174       24.298       20.373      793.786      590.412      415.064        0.216        0.090       50.097       18.092        0.130      339.977       13.679      861.154
08/24/2014  07:27:00      -49.498      -42.468       -1.152       23.387       19.248       14.304      546.941      370.496      204.612        0.269        0.056       65.219       12.949        0.039      339.995       13.710      861.150
08/24/2014  07:28:00      -48.004      -25.561       -0.998       14.310       17.026       13.633      204.790      289.885      185.867        0.182        0.034       54.386        9.943        0.033      339.983       13.690      861.150
08/24/2014  07:29:00      -64.533      -25.584       -0.275       28.526       29.274       15.266      813.736      856.990      233.062        0.336        0.095       69.420       12.728        0.034      340.002       13.722      861.151
08/24/2014  07:30:00      -75.062      -11.993       -3.647       18.093       22.783       14.678      327.364      519.052      215.439        0.343        0.053       76.014       11.746        0.024      340.014       13.743      861.143
08/24/2014  07:31:00      -39.666       -6.601       -0.838       16.306       11.940       14.489      265.880      142.566      209.942        0.112        0.031       40.211        9.664        0.058      340.060       13.821      861.150
08/24/2014  07:32:00      -27.623      -15.717        3.048       14.860       23.161       10.829      220.832      536.448      117.268        0.095        0.044       31.781        6.812        0.046      340.209       14.072      861.149
08/24/2014  07:33:00      -33.873      -22.356       -5.013       15.445       10.706       10.539      238.552      114.622      111.078        0.107        0.023       40.586        6.554        0.026      340.235       14.114      861.148
08/24/2014  07:34:00      -18.116       -3.997       -4.016       11.773        9.384       15.851      138.606       88.052      251.260        0.042        0.024       18.552        9.140        0.243      340.471       14.514      861.156
08/24/2014  07:35:00       -0.296      -49.202       -3.381       25.444       23.061       10.701      647.404      531.795      114.502        0.186        0.065       49.203       11.194        0.052      340.181       14.025      861.162
08/24/2014  07:36:00      -31.918      -76.670       -5.494       12.390       13.082       12.541      153.514      171.135      157.280        0.370        0.024       83.048        4.901        0.003      340.202       14.060      861.174
08/24/2014  07:37:00      -34.513      -63.695       -5.950       11.897        8.454        9.714      141.539       71.466       94.368        0.280        0.015       72.445        6.784        0.009      340.212       14.075      861.175
08/24/2014  07:38:00      -21.108      -37.328        5.926       16.132       19.247       12.838      260.229      370.448      164.819        0.133        0.040       42.883       11.825        0.076      340.410       14.411      861.184
08/24/2014  07:39:00      -21.271      -36.875        3.271       13.599       17.493       13.221      184.945      305.998      174.806        0.124        0.033       42.570        5.984        0.020      340.336       14.286      861.184
08/24/2014  07:40:00      -15.951      -16.839        3.164       11.579       15.626        9.592      134.077      244.184       92.004        0.051        0.024       23.195        8.964        0.149      340.438       14.458      861.181
08/24/2014  07:41:00        6.015       -3.870       17.656       10.829       15.409       14.491      117.262      237.440      209.976        0.046        0.028        7.152       11.266        2.481      340.972       15.362      861.179
08/24/2014  07:42:00        1.783       -5.281       23.838       13.398       18.452       17.595      179.501      340.472      309.573        0.071        0.041        5.574        9.710        3.034      341.000       15.411      861.183
08/24/2014  07:43:00        2.702      -30.973       14.420       20.038       20.957       16.165      401.540      439.200      261.310        0.114        0.055       31.091       10.126        0.106      340.437       14.456      861.176
08/24/2014  07:44:00       -8.737      -12.892        9.692       21.968       18.590       19.276      482.601      345.586      371.572        0.077        0.060       15.574        9.188        0.348      340.555       14.657      861.178
08/24/2014  07:45:00       18.085       -2.804       18.274       23.508       24.092       20.341      552.629      580.415      413.772        0.111        0.077       18.301       16.430        0.806      340.743       14.975      861.186
08/24/2014  07:46:00       19.796       -3.887        8.324       19.104       18.465       14.811      364.947      340.943      219.363        0.070        0.046       20.174        7.341        0.132      340.468       14.509      861.190
08/24/2014  07:47:00       18.235        4.444        7.085       16.406       17.679       21.371      269.170      312.556      456.734        0.072        0.052       18.769       13.679        0.531      340.747       14.980      861.183
08/24/2014  07:48:00        8.152        3.867       20.417       12.976       13.300        9.581      168.380      176.892       91.802        0.047        0.022        9.022        7.955        0.777      340.815       15.097      861.187
08/24/2014  07:49:00        8.256       -3.810       16.921       20.482       20.901       19.930      419.507      436.862      397.191        0.081        0.063        9.093       18.022        3.928      341.014       15.432      861.196
08/24/2014  07:50:00       10.823        4.831       14.943       19.621       14.927       22.725      384.992      222.810      516.421        0.074        0.056       11.852       15.560        1.724      340.949       15.324      861.199
08/24/2014  07:51:00        0.073       -6.508       12.120       14.253       14.509       17.344      203.141      210.513      300.824        0.045        0.036        6.508       12.349        3.600      340.994       15.400      861.217
08/24/2014  07:52:00       -5.461       -0.400       -2.957       16.126       12.577       19.776      260.043      158.176      391.106        0.042        0.040        5.476        5.994        1.198      340.925       15.281      861.230
08/24/2014  07:53:00        8.990       11.845       18.860       18.523       30.131       23.097      343.096      907.893      533.467        0.118        0.089       14.870       15.575        1.097      340.992       15.397      861.230
08/24/2014  07:54:00       15.969       -2.986       20.085       25.223       22.855       23.965      636.188      522.364      574.340        0.120        0.087       16.246       19.206        1.398      341.098       15.575      861.236
08/24/2014  07:55:00       24.680        8.463       23.067       28.158       23.666       22.097      792.850      560.069      488.294        0.153        0.092       26.090       21.092        0.654      341.005       15.418      861.235
08/24/2014  07:56:00       34.219        8.682       12.108       35.727       23.577       17.017     1276.445      555.887      289.591        0.176        0.106       35.303        8.851        0.063      340.681       14.870      861.226
08/24/2014  07:57:00        8.038       12.946       26.418       13.917       21.220       21.196      193.687      450.296      449.254        0.101        0.055       15.238       15.135        0.986      341.266       15.861      861.219
08/24/2014  07:58:00       13.016        7.825       19.756       29.560       16.740       26.274      873.790      280.243      690.318        0.123        0.092       15.187       21.259        1.959      341.364       16.027      861.217
08/24/2014  07:59:00       10.503       10.507       31.589       32.861       24.135       24.302     1079.840      582.475      590.571        0.174        0.113       14.856       19.057        1.645      341.257       15.846      861.220
08/24/2014  08:00:00        9.544       -1.691       19.559       24.884       23.155       20.814      619.234      536.150      433.227        0.103        0.079        9.693       10.435        1.159      341.086       15.554      861.227
08/24/2014  08:01:00        5.002       -7.584        9.942       17.594       32.744       20.581      309.553     1072.157      423.558        0.099        0.090        9.085       11.322        1.553      341.275       15.876      861.220
08/24/2014  08:02:00       15.687      -17.450       12.108       18.997       22.998       17.212      360.902      528.917      296.266        0.094        0.059       23.465       13.934        0.353      341.075       15.535      861.220
08/24/2014  08:03:00       11.604       16.636        4.563       13.768       17.944       20.923      189.553      321.984      437.773        0.069        0.047       20.283       16.833        0.689      341.398       16.084      861.226
08/24/2014  08:04:00        2.977       10.169      -11.937       10.370        9.721       13.419      107.536       94.490      180.062        0.032        0.019       10.596       10.191        0.925      341.210       15.764      861.228
08/24/2014  08:05:00        2.033       -0.026       10.850       25.208       11.941       16.494      635.443      142.582      272.040        0.059        0.053        2.033        4.973        5.982      341.428       16.134      861.238
08/24/2014  08:06:00      -20.133      -13.102       -5.001       23.640       17.295       21.902      558.869      299.120      479.685        0.097        0.067       24.021       12.323        0.263      341.173       15.702      861.230
08/24/2014  08:07:00      -28.512       -7.404       14.259       18.533       15.897       14.315      343.479      252.713      204.922        0.094        0.040       29.458       13.712        0.217      341.382       16.056      861.218
08/24/2014  08:08:00      -28.222       -6.189       14.432       22.873       16.418       15.626      523.163      269.558      244.171        0.104        0.052       28.893        5.236        0.033      341.246       15.826      861.208
08/24/2014  08:09:00      -40.017       -1.414        9.018       18.571       17.430       13.926      344.870      303.794      193.945        0.126        0.042       40.042       12.675        0.100      341.254       15.840      861.203
08/24/2014  08:10:00      -31.599        0.351        4.864       21.254       21.147       16.295      451.741      447.188      265.524        0.109        0.058       31.601       10.647        0.114      341.304       15.924      861.197
08/24/2014  08:11:00      -49.917      -22.190        4.185       32.284       29.583       25.046     1042.281      875.165      627.299        0.277        0.127       54.627       26.234        0.231      341.386       16.064      861.186
08/24/2014  08:12:00      -52.160      -50.501       -9.761       28.170       21.436       18.234      793.524      459.489      332.482        0.348        0.079       72.602       14.576        0.040      341.089       15.561      861.183
08/24/2014  08:13:00      -37.779      -23.787        7.113       25.846       17.942       16.465      668.038      321.909      271.085        0.165        0.063       44.644        9.511        0.045      341.286       15.894      861.170
08/24/2014  08:14:00      -27.145      -16.882       16.300       27.775       27.761       20.964      771.431      770.654      439.479        0.163        0.099       31.966       23.336        0.533      341.734       16.653      861.153
08/24/2014  08:15:00      -12.629      -12.925       13.913       13.412       18.942       18.371      179.895      358.781      337.486        0.070        0.044       18.070       14.606        0.653      341.811       16.784      861.148
08/24/2014  08:16:00        0.607       -8.875        6.330       16.330       20.396       23.654      266.679      415.978      559.529        0.068        0.062        8.895       16.542        3.458      341.652       16.514      861.139
08/24/2014  08:17:00      -17.008      -20.085        9.634       12.217       22.166       19.330      149.256      491.350      373.638        0.090        0.051       26.319       14.740        0.314      341.424       16.126      861.128
08/24/2014  08:18:00      -12.351      -59.383       -1.902       29.620       35.448       24.479      877.327     1256.591      599.246        0.321        0.137       60.654       13.672        0.051      341.318       15.946      861.130
08/24/2014  08:19:00       22.406      -58.587        6.132       32.463       47.942       33.897     1053.847     2298.468     1149.034        0.424        0.225       62.725       32.801        0.273      341.594       16.416      861.130
08/24/2014  08:20:00       30.298       -3.660       24.598       33.266       27.561       25.201     1106.649      759.582      635.069        0.202        0.125       30.518       19.589        0.412      341.649       16.510      861.130
08/24/2014  08:21:00      -27.487       -6.217        7.355       26.101       16.662       19.739      681.236      277.622      389.611        0.110        0.067       28.181       12.904        0.210      341.456       16.182      861.130
08/24/2014  08:22:00      -39.645      -27.777        0.701       21.724       23.776       15.573      471.926      565.278      242.526        0.181        0.064       48.407       11.909        0.061      341.360       16.020      861.138
08/24/2014  08:23:00      -30.462      -23.522       10.653       47.243       28.433       19.996     2231.884      808.426      399.845        0.252        0.172       38.486       20.093        0.273      341.549       16.339      861.138
08/24/2014  08:24:00      -48.609      -30.457        8.756       36.039       30.808       19.685     1298.804      949.157      387.515        0.300        0.132       57.362       17.603        0.094      341.545       16.332      861.133
08/24/2014  08:25:00      -67.061      -42.984       -2.039       33.875       21.084       14.467     1147.486      444.552      209.304        0.407        0.090       79.654       15.530        0.038      341.428       16.133      861.131
08/24/2014  08:26:00      -25.814      -26.065        4.593       25.050       23.154       15.724      627.496      536.118      247.242        0.139        0.071       36.684       13.706        0.140      341.693       16.583      861.137
08/24/2014  08:27:00      -37.436      -48.216        0.354       25.550       22.443       16.900      652.802      503.683      285.621        0.258        0.072       61.043       18.317        0.090      341.550       16.340      861.143
08/24/2014  08:28:00      -40.118      -66.048       -1.813       17.445       30.239       13.274      304.328      914.389      176.202        0.368        0.070       77.277        8.489        0.012      341.481       16.223      861.147
08/24/2014  08:29:00      -42.535      -74.526       -2.217       16.027       15.997       11.128      256.851      255.905      123.825        0.400        0.032       85.810        4.036        0.002      341.429       16.134      861.154
08/24/2014  08:30:00      -46.174      -69.968       -4.342       17.020       14.555       15.138      289.674      211.846      229.165        0.389        0.037       83.831       13.227        0.025      341.483       16.229      861.159
08/24/2014  08:31:00      -50.746      -55.166      -10.559       17.225       20.465       16.582      296.706      418.834      274.968        0.336        0.050       74.957       12.944        0.030      341.514       16.279      861.168
08/24/2014  08:32:00      -36.494      -27.459        3.920       35.211       20.183       22.484     1239.837      407.367      505.519        0.213        0.108       45.670       25.118        0.302      341.703       16.600      861.165
08/24/2014  08:33:00      -59.956      -43.677       -3.435       26.111       21.781       15.053      681.761      474.391      226.595        0.345        0.069       74.178       13.999        0.036      341.621       16.460      861.170
08/24/2014  08:34:00      -47.104      -36.697       -0.156       25.521       16.247       13.043      651.328      263.967      170.124        0.233        0.054       59.711       11.240        0.035      341.697       16.590      861.171
08/24/2014  08:35:00      -41.529      -20.376        0.219       12.307       15.416       13.150      151.472      237.647      172.932        0.135        0.028       46.258       12.698        0.075      341.677       16.554      861.167
08/24/2014  08:36:00      -31.423       15.074      -13.478        7.740        8.621        6.591       59.914       74.316       43.445        0.079        0.009       34.852        3.884        0.012      341.698       16.590      861.166
08/24/2014  08:37:00       13.823        0.851        8.521       23.541       12.889       14.568      554.201      166.122      212.233        0.060        0.047       13.849       11.129        0.646      342.046       17.182      861.162
08/24/2014  08:38:00       24.123      -17.254       10.351       16.587       14.846       20.005      275.129      220.390      400.208        0.094        0.045       29.658       12.486        0.177      342.003       17.111      861.157
08/24/2014  08:39:00        8.785        4.066       13.950       18.095       19.425       18.506      327.411      377.349      342.478        0.067        0.052        9.680        7.075        0.534      342.192       17.431      861.149
08/24/2014  08:40:00        7.667       -1.920       14.955       18.063       16.811       20.892      326.255      282.600      436.477        0.067        0.052        7.904       16.275        4.240      342.411       17.803      861.135
08/24/2014  08:41:00        9.003       -1.709       28.583       17.616       12.410       11.625      310.334      154.014      135.143        0.075        0.030        9.164        8.973        0.959      342.538       18.018      861.121
08/24/2014  08:42:00        2.578       -3.409       20.328       13.188       16.374       11.561      173.923      268.122      133.657        0.050        0.029        4.274        6.744        2.489      342.373       17.737      861.105
08/24/2014  08:43:00       -7.991       -4.689       14.524        8.589        6.968        9.993       73.770       48.551       99.865        0.026        0.011        9.265        6.417        0.480      342.598       18.120      861.096
08/24/2014  08:44:00      -13.687       -0.835        8.740        9.073        9.039        7.638       82.324       81.701       58.342        0.024        0.011       13.713        7.603        0.307      342.401       17.785      861.082
08/24/2014  08:45:00      -14.984       -1.575        5.468       13.711       13.994       12.340      187.994      195.829      152.267        0.040        0.027       15.067        5.649        0.141      342.402       17.786      861.078
08/24/2014  08:46:00      -10.044       -2.962        7.745       13.531        9.671       11.349      183.084       93.521      128.801        0.029        0.020       10.471        2.245        0.046      342.519       17.987      861.076
08/24/2014  08:47:00      -17.340       -7.031       11.088       14.172       13.453       14.908      200.839      180.981      222.236        0.054        0.030       18.711       10.512        0.316      342.674       18.250      861.062
08/24/2014  08:48:00      -22.526      -20.564        7.633       27.937       26.760       18.120      780.500      716.085      328.332        0.141        0.091       30.501       18.229        0.357      342.493       17.942      861.053
08/24/2014  08:49:00      -44.245      -13.327       -1.639       17.404       32.496       14.119      302.900     1056.011      199.352        0.185        0.078       46.208       11.213        0.059      342.185       17.419      861.043
08/24/2014  08:50:00      -20.659      -12.936        8.859       23.677       16.078       18.568      560.623      258.501      344.772        0.092        0.058       24.375        8.720        0.128      342.512       17.974      861.035
08/24/2014  08:51:00      -27.115        5.334        8.197       19.685       17.727       21.021      387.516      314.246      441.880        0.099        0.057       27.634       16.219        0.344      342.713       18.317      861.027
08/24/2014  08:52:00       -6.161       -4.115       10.460       18.579       11.393       15.196      345.167      129.789      230.907        0.043        0.035        7.409       10.817        2.131      342.686       18.269      861.021
08/24/2014  08:53:00      -11.294       -2.567       11.671       13.527       14.521       15.802      182.969      210.865      249.692        0.046        0.032       11.582       10.533        0.827      342.808       18.478      861.008
08/24/2014  08:54:00      -26.587       -4.906        0.633       12.798        9.471        9.183      163.791       89.702       84.328        0.053        0.017       27.036        7.088        0.069      342.402       17.785      861.006
08/24/2014  08:55:00      -22.546        8.058        9.195       13.112       14.124       16.745      171.931      199.486      280.400        0.065        0.033       23.943       11.131        0.216      342.748       18.375      861.003
08/24/2014  08:56:00        0.475        0.067        1.245       43.611       16.516       17.187     1901.880      272.764      295.389        0.124        0.124        0.480        5.388      126.190      342.308       17.628      860.997
08/24/2014  08:57:00      -30.303      -21.566       -0.216       28.534       18.393       13.218      814.190      338.290      174.719        0.136        0.066       37.194       12.697        0.117      342.405       17.791      861.007
08/24/2014  08:58:00      -45.469      -22.339       -0.571       17.844       16.956       10.198      318.419      287.516      104.002        0.164        0.035       50.661        4.801        0.009      342.315       17.637      861.011
08/24/2014  08:59:00      -16.957        0.339       15.249       12.365       11.291       14.453      152.881      127.479      208.899        0.050        0.024       16.961        8.853        0.272      343.158       19.075      861.008
08/24/2014  09:00:00       -9.923      -13.345        8.968       10.516       14.094       15.186      110.589      198.651      230.617        0.045        0.027       16.630       11.377        0.468      342.948       18.716      861.011
08/24/2014  09:01:00      -26.498        6.688        5.658       14.307       13.723       16.704      204.677      188.324      279.025        0.073        0.034       27.329       12.859        0.221      342.811       18.483      861.007
08/24/2014  09:02:00      -35.169       15.613        1.307       16.226       12.431       13.688      263.289      154.537      187.348        0.104        0.030       38.479        5.966        0.024      342.616       18.153      861.001
08/24/2014  09:03:00      -25.990        0.398        8.193       16.784       15.416       20.381      281.707      237.654      415.403        0.084        0.047       25.993       16.073        0.382      343.067       18.920      860.997
08/24/2014  09:04:00      -31.538       -9.571        7.336       29.420       11.433       18.814      865.545      130.720      353.948        0.124        0.068       32.958       21.028        0.407      343.073       18.930      860.988
08/24/2014  09:05:00      -14.101       -6.904       21.782       18.186       14.541       15.535      330.742      211.431      241.327        0.075        0.039       15.700       14.388        0.840      343.468       19.601      860.978
08/24/2014  09:06:00       -9.082       -2.061       25.142       14.035       19.491       13.002      196.983      379.909      169.054        0.073        0.037        9.313        9.928        1.137      343.663       19.934      860.975
08/24/2014  09:07:00       -0.441      -18.082       21.251       20.121       22.346       16.952      404.866      499.351      287.386        0.098        0.060       18.087       16.353        0.817      343.396       19.478      860.967
08/24/2014  09:08:00       17.580      -32.425        8.875       22.117       20.798       17.674      489.168      432.565      312.358        0.134        0.062       36.884       12.105        0.108      342.708       18.308      860.949
08/24/2014  09:09:00      -59.231      -46.408       -4.428       16.745       17.138        7.368      280.388      293.696       54.280        0.315        0.031       75.246        6.481        0.007      342.559       18.054      860.941
08/24/2014  09:10:00      -43.083      -37.880       -3.538       13.901       15.927       12.917      193.241      253.661      166.859        0.196        0.031       57.367        9.942        0.030      342.614       18.146      860.931
08/24/2014  09:11:00      -48.413      -17.802       -3.539       10.535       10.851        8.137      110.990      117.754       66.213        0.148        0.015       51.582        6.292        0.015      342.669       18.240      860.922
08/24/2014  09:12:00      -38.288      -31.910        2.848       14.825       12.386        8.838      219.778      153.422       78.115        0.147        0.023       49.841        6.928        0.019      342.732       18.348      860.914
08/24/2014  09:13:00      -49.439      -19.499        5.684       12.074       12.620       11.855      145.777      159.275      140.547        0.165        0.022       53.145        7.633        0.021      342.707       18.305      860.905
08/24/2014  09:14:00      -16.126        8.073       28.331       17.520        8.868       10.120      306.958       78.645      102.413        0.081        0.024       18.034        6.160        0.117      343.551       19.742      860.904
08/24/2014  09:15:00      -39.427      -10.169      -11.545       17.187       14.504       14.501      295.384      210.363      210.287        0.125        0.036       40.717        9.086        0.050      342.831       18.515      860.901
08/24/2014  09:16:00      -47.045      -34.679      -17.272       13.499       16.580       13.504      182.231      274.897      182.370        0.218        0.032       58.445        3.447        0.003      342.836       18.523      860.895
08/24/2014  09:17:00      -11.699       -2.186       15.531       16.353       12.775       18.208      267.433      163.204      331.542        0.057        0.038       11.901       14.821        1.551      343.880       20.306      860.881
08/24/2014  09:18:00      -12.585       -5.165       14.698       19.451       37.654       19.607      378.350     1417.850      384.428        0.129        0.109       13.603       12.546        0.851      343.471       19.606      860.877
08/24/2014  09:19:00        7.020       94.790        0.860       31.978       30.747       26.195     1022.583      945.377      686.189        0.584        0.133       95.049       16.419        0.030      343.437       19.550      860.867
08/24/2014  09:20:00       32.414       76.484       -5.980       36.877       31.989       27.965     1359.917     1023.325      782.048        0.505        0.158       83.069       19.323        0.054      343.239       19.211      860.863
08/24/2014  09:21:00       73.877       44.582        8.113       42.325       38.298       23.355     1791.379     1466.726      545.470        0.566        0.190       86.286       14.733        0.029      343.259       19.244      860.852
08/24/2014  09:22:00       -2.171       -8.696       11.367       18.485       32.666       23.582      341.689     1067.062      556.105        0.109        0.098        8.963       15.300        2.914      343.619       19.859      860.845
08/24/2014  09:23:00       57.971       21.025       12.408       27.550       55.921       21.694      759.020     3127.175      470.614        0.416        0.218       61.666        5.701        0.009      343.095       18.966      860.845
08/24/2014  09:24:00       35.883       38.740       10.798       31.768       30.298       24.236     1009.236      917.984      587.376        0.271        0.126       52.805       14.080        0.071      343.357       19.411      860.846
08/24/2014  09:25:00       12.842       17.846       25.534       65.682       59.326       52.967     4314.078     3519.580     2805.556        0.589        0.532       21.986       40.471        3.388      342.934       18.692      860.847
08/24/2014  09:26:00       78.574       92.206       59.126       50.188       25.854       41.321     2518.818      668.435     1707.426        1.153        0.245      121.144       28.490        0.055      342.838       18.529      860.844
08/24/2014  09:27:00       35.592       50.191       55.247       40.252       33.682       25.494     1620.190     1134.458      649.935        0.512        0.170       61.530       19.563        0.101      343.244       19.219      860.839
08/24/2014  09:28:00       51.977       45.566       25.026       28.712       24.962       34.355      824.351      623.081     1180.267        0.402        0.131       69.122       14.865        0.046      343.210       19.161      860.843
08/24/2014  09:29:00       46.420       37.986       26.721       41.538       23.697       30.027     1725.428      561.562      901.646        0.375        0.159       59.981        9.247        0.024      343.411       19.503      860.838
08/24/2014  09:30:00       96.823       57.420       21.167       35.429       23.872       31.139     1255.215      569.894      969.610        0.796        0.140      112.569       16.422        0.021      343.209       19.160      860.834
08/24/2014  09:31:00       58.191       42.899        8.392       58.915       40.554       31.678     3470.952     1644.593     1003.469        0.571        0.306       72.295       23.982        0.110      343.454       19.577      860.828
08/24/2014  09:32:00       31.137       36.858       -6.203       35.583       31.993       29.500     1266.185     1023.521      870.266        0.276        0.158       48.250       20.109        0.174      343.479       19.620      860.818
08/24/2014  09:33:00       19.247       57.017        0.898       30.292       37.989       28.031      917.612     1443.140      785.730        0.338        0.157       60.178       23.459        0.152      343.651       19.914      860.821
08/24/2014  09:34:00       21.724        5.509       29.789       26.417       37.020       15.297      697.856     1370.504      233.996        0.185        0.115       22.412        9.557        0.182      343.927       20.385      860.815
08/24/2014  09:35:00       22.090      -12.271       22.090       26.000       44.663       23.467      676.007     1994.741      550.681        0.217        0.161       25.269       17.251        0.466      343.511       19.674      860.810
08/24/2014  09:36:00       30.238      -18.064       16.137       41.981       53.248       33.647     1762.439     2835.324     1132.134        0.361        0.286       35.223       36.253        1.059      343.475       19.614      860.804
08/24/2014  09:37:00        0.454      -11.467       24.213       27.361       47.910       22.215      748.625     2295.362      493.526        0.213        0.177       11.476       14.049        1.499      343.842       20.239      860.796
08/24/2014  09:38:00       35.103       -2.303       37.064       28.751       34.624       31.918      826.639     1198.820     1018.744        0.283        0.152       35.179       25.427        0.522      343.790       20.151      860.788
08/24/2014  09:39:00       -9.795        7.016       29.107       16.878       22.650       23.690      284.852      513.014      561.203        0.118        0.068       12.048       17.556        2.123      344.312       21.043      860.776
08/24/2014  09:40:00      -45.385       24.344       11.418       25.314       17.066       25.127      640.782      291.236      631.362        0.217        0.078       51.502       17.042        0.109      343.842       20.239      860.762
08/24/2014  09:41:00      -35.572        7.080       28.222       21.699       14.991       16.981      470.844      224.716      288.347        0.155        0.049       36.269       14.651        0.163      343.977       20.470      860.752
08/24/2014  09:42:00        4.377        8.053       18.421       33.924       18.694       19.843     1150.819      349.454      393.756        0.116        0.095        9.166       20.527        5.015      344.030       20.561      860.742
08/24/2014  09:43:00       90.292       49.222       23.365       79.236       47.268       31.069     6278.372     2234.269      965.264        1.030        0.474      102.838       19.345        0.035      343.812       20.187      860.721
08/24/2014  09:44:00        2.381       12.667       27.033       43.020       42.865       38.569     1850.756     1837.369     1487.569        0.304        0.259       12.889       15.005        1.355      343.997       20.503      860.712
08/24/2014  09:45:00       18.451       40.267       42.097       40.191       37.070       42.678     1615.320     1374.196     1821.376        0.427        0.241       44.293       22.201        0.251      344.548       21.446      860.707
08/24/2014  09:46:00       71.325       86.673        8.280       50.450       31.344       35.262     2545.252      982.436     1243.436        0.872        0.239      112.247       19.592        0.030      343.875       20.295      860.698
08/24/2014  09:47:00       81.621       74.375       -0.668       29.033       29.480       26.399      842.906      869.093      696.898        0.730        0.120      110.425       17.880        0.026      343.833       20.224      860.701
08/24/2014  09:48:00       32.351       54.392       -2.608       23.808       31.723       20.983      566.830     1006.370      440.305        0.301        0.101       63.286       14.730        0.054      343.795       20.159      860.710
08/24/2014  09:49:00       17.540       26.199       -7.591       15.319       22.037       18.714      234.676      485.629      350.209        0.106        0.054       31.528        9.300        0.087      343.831       20.220      860.710
08/24/2014  09:50:00      -16.941       -7.122       13.012       25.982       14.675       12.672      675.079      215.366      160.570        0.078        0.053       18.378        8.621        0.220      344.112       20.700      860.710
08/24/2014  09:51:00      -61.423       17.242       10.071       24.659       20.410       25.024      608.065      416.558      626.204        0.291        0.083       63.797       16.948        0.071      343.801       20.168      860.703
08/24/2014  09:52:00      -28.508      -11.430        5.950       26.292       12.464       24.230      691.249      155.345      587.084        0.121        0.072       30.714       21.596        0.494      344.092       20.667      860.704
08/24/2014  09:53:00       18.009       23.229       37.183       28.456       21.858       17.179      809.717      477.779      295.108        0.191        0.079       29.393       15.097        0.264      344.413       21.215      860.716
08/24/2014  09:54:00       39.424        4.221       13.420       26.959       26.866       23.294      726.810      721.768      542.629        0.187        0.100       39.649       18.333        0.214      344.143       20.754      860.721
08/24/2014  09:55:00       34.173       52.573       13.018       35.644       47.934       32.202     1270.516     2297.628     1036.946        0.435        0.230       62.703       30.355        0.234      344.394       21.182      860.727
08/24/2014  09:56:00      118.640       87.133       26.139       35.103       33.857       30.933     1232.215     1146.273      956.833        1.284        0.167      147.200       20.875        0.020      344.024       20.548      860.722
08/24/2014  09:57:00       57.902       22.112       29.591       22.802       51.437       20.744      519.947     2645.776      430.327        0.416        0.180       61.980       17.901        0.083      343.878       20.299      860.722
08/24/2014  09:58:00        8.834       -4.721       10.195       18.995       38.851       21.253      360.801     1509.435      451.710        0.126        0.116       10.017       17.702        3.123      344.071       20.628      860.721
08/24/2014  09:59:00        2.752       -0.521       12.379       23.965       23.517       20.429      574.302      553.029      417.354        0.085        0.077        2.801       15.837       31.968      344.329       21.072      860.710
08/24/2014  10:00:00       10.605       17.786       24.726       24.229       20.708       22.008      587.068      428.822      484.351        0.127        0.075       20.708       12.075        0.340      344.644       21.611      860.706
08/24/2014  10:01:00      106.918      105.567       11.343       60.214       51.526       36.612     3625.785     2654.978     1340.462        1.516        0.381      150.253       30.464        0.041      344.086       20.655      860.705
08/24/2014  10:02:00       64.032       95.901       -3.904       38.021       31.675       30.826     1445.575     1003.321      950.272        0.836        0.170      115.313       23.282        0.041      344.283       20.994      860.711
08/24/2014  10:03:00       21.229       73.568       -2.426       37.808       25.251       34.566     1429.466      637.620     1194.797        0.456        0.163       76.570       18.785        0.060      344.304       21.029      860.715
08/24/2014  10:04:00       -6.205       34.526       12.955       34.186       46.139       23.156     1168.709     2128.773      536.206        0.262        0.192       35.079       28.587        0.664      344.706       21.716      860.704
08/24/2014  10:05:00        0.533       28.446       11.098       17.807       33.664       25.532      317.080     1133.289      651.896        0.152        0.105       28.451       20.530        0.521      345.100       22.389      860.703
08/24/2014  10:06:00       25.729      -12.140       29.920       33.729       46.355       33.235     1137.667     2148.766     1104.543        0.305        0.220       28.449       29.488        1.074      344.762       21.811      860.700
08/24/2014  10:07:00       37.290       -1.024       11.082       36.058       55.585       40.194     1300.163     3089.710     1615.526        0.376        0.300       37.304       30.613        0.673      344.407       21.205      860.689
08/24/2014  10:08:00       20.214       13.290       38.164       24.514       27.771       21.770      600.915      771.205      473.954        0.194        0.092       24.191       10.392        0.185      345.092       22.375      860.692
08/24/2014  10:09:00       17.621        4.049       -2.954       23.731       39.716       25.406      563.148     1577.340      645.463        0.156        0.139       18.080       12.351        0.467      344.425       21.235      860.674
08/24/2014  10:10:00       38.086      -31.164        9.622       38.532       34.413       20.314     1484.751     1184.222      412.644        0.280        0.154       49.211       15.583        0.100      344.488       21.344      860.664
08/24/2014  10:11:00       -0.506       23.179       15.495       14.001       33.887       19.752      196.017     1148.312      390.149        0.126        0.087       23.184       18.615        0.645      345.128       22.437      860.646
08/24/2014  10:12:00       60.317       18.772        9.430       24.510       28.690       25.264      600.745      823.130      638.272        0.307        0.103       63.170        6.669        0.011      344.625       21.577      860.622
08/24/2014  10:13:00      110.992       61.162       30.529       54.738       62.324       36.726     2996.208     3884.240     1348.806        1.261        0.411      126.728       22.199        0.031      344.707       21.717      860.610
08/24/2014  10:14:00       34.072       35.870       53.439       50.414       57.011       39.273     2541.523     3250.268     1542.335        0.632        0.367       49.473       30.259        0.374      345.035       22.279      860.600
08/24/2014  10:15:00       31.632        1.548       43.994       37.119       58.760       40.361     1377.799     3452.783     1629.045        0.470        0.323       31.670       41.846        1.746      344.815       21.902      860.597
08/24/2014  10:16:00       44.473       13.583       33.065       32.719       30.695       26.370     1070.553      942.153      695.387        0.298        0.135       46.502       19.449        0.175      344.762       21.811      860.577
08/24/2014  10:17:00      120.970       62.637       23.342       44.741       37.302       36.269     2001.776     1391.424     1315.426        1.190        0.235      136.225       19.141        0.020      344.526       21.407      860.563
08/24/2014  10:18:00       74.969       59.940       17.743       45.278       33.418       29.751     2050.084     1116.776      885.097        0.679        0.203       95.985       16.883        0.031      344.468       21.307      860.561
08/24/2014  10:19:00       84.017       36.162       18.609       43.227       39.306       27.897     1868.573     1544.956      778.233        0.645        0.210       91.469       19.375        0.045      344.714       21.728      860.546
08/24/2014  10:20:00       31.370        9.048       36.855       41.584       41.782       30.551     1729.242     1745.698      933.381        0.342        0.220       32.649       24.253        0.552      344.982       22.188      860.547
08/24/2014  10:21:00      113.134       71.574       52.978       79.334      103.718       49.507     6293.919    10757.440     2450.978        2.011        0.975      133.873       44.658        0.111      344.731       21.756      860.531
08/24/2014  10:22:00      155.464       16.078       37.611       78.623       74.367       45.197     6181.537     5530.469     2042.805        1.980        0.688      156.293       23.011        0.022      344.609       21.548      860.552
08/24/2014  10:23:00       31.883      -10.898       -0.857       26.768       31.854       26.591      716.506     1014.699      707.106        0.179        0.122       33.694       13.710        0.166      344.823       21.916      860.547
08/24/2014  10:24:00      -14.710      125.720       -6.435       42.122       43.161       25.816     1774.271     1862.841      666.441        1.018        0.215      126.578       11.398        0.008      345.092       22.375      860.558
08/24/2014  10:25:00      -40.723       46.727      -25.214       32.516       55.281       16.165     1057.259     3056.033      261.305        0.443        0.219       61.982       19.904        0.103      344.683       21.676      860.556
08/24/2014  10:26:00       44.972       40.631       27.108       59.202       28.810       36.062     3504.915      830.033     1300.484        0.502        0.282       60.608       19.153        0.100      345.402       22.908      860.553
08/24/2014  10:27:00      119.500       79.254       13.962       54.338       61.765       39.569     2952.571     3814.900     1565.712        1.454        0.417      143.393       28.850        0.040      345.186       22.537      860.548
08/24/2014  10:28:00       82.011       72.669       38.981       72.725       42.804       46.069     5288.912     1832.145     2122.314        1.138        0.462      109.575       28.545        0.068      345.114       22.412      860.534
08/24/2014  10:29:00       54.952       23.679       18.324       37.648       38.379       34.640     1417.345     1472.925     1199.927        0.400        0.205       59.837       25.881        0.187      345.017       22.248      860.520
08/24/2014  10:30:00       58.578       63.619       52.342       59.926       42.534       48.338     3591.144     1809.133     2336.559        0.898        0.387       86.480       26.613        0.095      345.276       22.693      860.507
08/24/2014  10:31:00       69.829      105.211       87.093       60.137       53.552       55.579     3616.435     2867.805     3089.067        1.655        0.479      126.275       46.531        0.136      344.877       22.007      860.501
08/24/2014  10:32:00      154.588      110.220       27.218       47.148       43.370       50.753     2222.900     1880.956     2575.887        2.173        0.334      189.858       37.090        0.038      344.712       21.725      860.489
08/24/2014  10:33:00      145.558       98.973       21.561       63.396       51.809       35.783     4019.046     2684.212     1280.418        1.971        0.399      176.019       24.972        0.020      345.086       22.365      860.471
08/24/2014  10:34:00      149.931      103.202       11.647       49.492       42.251       38.565     2449.475     1785.129     1487.296        1.949        0.286      182.016       25.321        0.019      345.117       22.417      860.456
08/24/2014  10:35:00       72.162       82.911       68.618       80.618       62.163       46.132     6499.332     3864.246     2128.117        1.464        0.625      109.917       43.239        0.155      345.388       22.882      860.450
08/24/2014  10:36:00      132.270      120.169       87.188       76.594       33.539       52.946     5866.715     1124.833     2803.263        2.466        0.490      178.706       40.301        0.051      344.942       22.117      860.454
08/24/2014  10:37:00       61.972        8.067       17.459       68.853       59.183       29.113     4740.772     3502.682      847.575        0.665        0.455       62.495       23.019        0.136      344.915       22.072      860.451
08/24/2014  10:38:00       78.023       -3.429       40.462       66.729       71.598       53.877     4452.797     5126.326     2902.730        1.011        0.624       78.098       48.900        0.392      345.102       22.393      860.442
08/24/2014  10:39:00       42.868      -15.708       24.624       44.086       52.833       35.449     1943.552     2791.315     1256.626        0.434        0.300       45.656       34.726        0.579      345.051       22.306      860.433
08/24/2014  10:40:00       23.029      -28.454       21.793       25.851       44.034       29.617      668.278     1938.989      877.157        0.265        0.174       36.606       27.834        0.578      345.329       22.783      860.413
08/24/2014  10:41:00       50.298      -11.236       22.580       28.841       58.738       38.440      831.809     3450.207     1477.649        0.446        0.288       51.538       43.590        0.715      345.139       22.457      860.385
08/24/2014  10:42:00       63.940       -4.491       23.197       58.823       43.721       34.223     3460.150     1911.561     1171.210        0.559        0.327       64.098       21.988        0.118      345.143       22.465      860.373
08/24/2014  10:43:00      120.181       87.688       25.216       69.763       53.282       48.014     4866.843     2838.949     2305.307        1.639        0.501      148.771       22.874        0.024      345.664       23.355      860.355
08/24/2014  10:44:00      104.323       78.424       41.622       80.632       86.809       62.355     6501.445     7535.853     3888.092        1.834        0.896      130.513       50.324        0.149      345.709       23.432      860.334
08/24/2014  10:45:00      100.507       42.345       80.731       91.187       62.050       48.619     8315.045     3850.187     2363.813        1.647        0.726      109.063       44.612        0.167      345.528       23.123      860.339
08/24/2014  10:46:00       95.460       68.504       74.805       85.528       68.248       44.990     7315.033     4657.722     2024.136        1.670        0.700      117.496       36.846        0.098      345.313       22.753      860.335
08/24/2014  10:47:00      119.878       60.004       11.273       64.388       33.213       42.770     4145.834     1103.134     1829.279        1.259        0.354      134.057       22.771        0.029      345.040       22.285      860.334
08/24/2014  10:48:00       18.673       41.362        4.607       31.989       28.443       28.940     1023.274      808.990      837.531        0.237        0.133       45.382       22.609        0.248      345.566       23.187      860.315
08/24/2014  10:49:00      124.099       95.103       46.478       57.385       49.838       40.077     3292.987     2483.793     1606.171        1.699        0.369      156.350       17.362        0.012      345.470       23.022      860.302
08/24/2014  10:50:00       28.609       42.754       19.345       36.805       37.712       43.600     1354.589     1422.177     1901.002        0.385        0.234       51.443       28.322        0.303      345.472       23.028      860.309
08/24/2014  10:51:00       49.684       31.530       22.425       49.193       43.389       42.751     2419.948     1882.575     1827.616        0.505        0.307       58.844       39.917        0.460      345.162       22.496      860.294
08/24/2014  10:52:00       31.088      -36.638       36.714       33.041       78.167       38.039     1091.695     6110.145     1446.928        0.615        0.432       48.050       47.545        0.979      345.566       23.188      860.282
08/24/2014  10:53:00       77.388      -82.162        5.994       55.159       84.847       54.754     3042.516     7198.973     2997.950        1.300        0.662      112.869       58.996        0.273      345.956       23.857      860.254
08/24/2014  10:54:00       95.155       37.297       65.850       65.162       92.874       61.372     4246.062     8625.536     3766.494        1.571        0.832      102.203       51.936        0.258      346.071       24.055      860.223
08/24/2014  10:55:00      114.826       70.451       15.149       74.000       56.681       45.684     5475.989     3212.701     2087.031        1.457        0.539      134.716       37.237        0.076      345.720       23.450      860.231
08/24/2014  10:56:00       11.245       52.034        4.372       53.045       53.585       32.721     2813.736     2871.373     1070.655        0.480        0.338       53.236       25.079        0.222      346.165       24.217      860.208
08/24/2014  10:57:00       63.009       14.397        1.138       28.552       71.472       27.130      815.244     5108.188      736.060        0.542        0.333       64.633       18.438        0.081      345.803       23.593      860.196
08/24/2014  10:58:00      138.969      -25.994       70.198      103.494      143.795       95.303    10710.938    20677.027     9082.609        3.269        2.024      141.380       97.494        0.476      346.047       24.013      860.157
08/24/2014  10:59:00       86.222       11.721       76.303       87.057       94.162       71.593     7578.956     8866.430     5125.510        1.748        1.079       87.015       73.505        0.714      345.920       23.796      860.160
08/24/2014  11:00:00      101.931      -60.284       36.255       63.869       74.098       50.979     4079.207     5490.533     2598.843        1.375        0.608      118.423       55.894        0.223      345.765       23.530      860.139
08/24/2014  11:01:00       71.062       76.755       64.942       72.664       66.253       52.229     5280.085     4389.509     2727.838        1.378        0.620      104.600       46.620        0.199      346.004       23.938      860.111
08/24/2014  11:02:00       74.282       79.409       22.357       63.640       43.281       38.423     4050.099     1873.222     1476.304        0.986        0.370      108.737       31.446        0.084      345.894       23.751      860.097
08/24/2014  11:03:00      108.289       51.105       11.320       43.811       42.244       33.581     1919.447     1784.550     1127.691        0.965        0.242      119.743       22.095        0.034      345.726       23.463      860.087
08/24/2014  11:04:00       29.813       38.793       56.712       44.763       57.733       51.650     2003.728     3333.065     2667.728        0.681        0.400       48.926       45.189        0.853      346.608       24.979      860.073
08/24/2014  11:05:00       82.592       59.069       85.231      101.642      100.006       64.068    10331.088    10001.163     4104.696        2.100        1.222      101.541       59.742        0.346      346.222       24.313      860.072
08/24/2014  11:06:00       48.084       37.363       92.560       73.875       96.940       77.537     5457.509     9397.363     6012.020        1.657        1.043       60.893       72.029        1.399      346.186       24.252      860.089
08/24/2014  11:07:00       72.902       67.446      124.815      102.264      101.667       73.015    10457.885    10336.240     5331.186        2.578        1.306       99.316       84.263        0.720      345.971       23.883      860.085
08/24/2014  11:08:00       69.898       73.378       89.907       66.371       76.122       53.261     4405.159     5794.546     2836.708        1.569        0.652      101.342       50.594        0.249      346.116       24.131      860.100
08/24/2014  11:09:00      151.235       83.850       70.921       73.821       65.588       76.603     5449.515     4301.778     5867.961        2.527        0.781      172.924       49.414        0.082      345.682       23.384      860.110
08/24/2014  11:10:00      112.657       18.759       63.885       78.953       71.805       48.449     6233.522     5155.913     2347.281        1.543        0.687      114.208       49.015        0.184      345.813       23.612      860.139
08/24/2014  11:11:00       14.977       15.472       74.718       45.859       63.232       43.124     2103.070     3998.224     1859.710        0.700        0.398       21.534       47.031        4.770      346.297       24.444      860.143
08/24/2014  11:12:00       28.533       11.791       49.585       32.837       25.344       19.771     1078.280      642.320      390.897        0.276        0.106       30.873       13.660        0.196      346.344       24.525      860.164
08/24/2014  11:13:00       26.165       36.617       42.076       63.578       99.059       49.307     4042.136     9812.752     2431.223        1.004        0.814       45.004       52.723        1.372      346.237       24.340      860.172
08/24/2014  11:14:00       83.123     -175.236      -29.949       72.321       59.397       35.969     5230.268     3528.002     1293.794        2.428        0.503      193.951       29.456        0.023      345.917       23.788      860.182
08/24/2014  11:15:00       12.047       -7.839       27.238       20.346       40.280       36.339      413.943     1622.496     1320.534        0.215        0.168       14.373       35.724        6.178      346.836       25.371      860.192
08/24/2014  11:16:00       21.218       47.997       40.768       32.738       29.688       36.210     1071.770      881.405     1311.141        0.384        0.163       52.478       28.336        0.292      346.243       24.352      860.189
08/24/2014  11:17:00       74.576      -14.243        7.105       77.476       58.449       32.376     6002.561     3416.286     1048.230        0.814        0.523       75.924       31.794        0.175      345.859       23.690      860.165
08/24/2014  11:18:00       19.890       54.971       -0.307       40.068       50.904       36.421     1605.479     2591.168     1326.454        0.447        0.276       58.459       32.083        0.301      346.518       24.823      860.141
08/24/2014  11:19:00       25.768       36.530        0.634       39.453       37.881       33.203     1556.561     1434.933     1102.434        0.305        0.205       44.704       24.197        0.293      346.702       25.140      860.105
08/24/2014  11:20:00      -17.836       21.766       53.836       20.403       32.361       37.252      416.277     1047.207     1387.715        0.327        0.143       28.141       29.081        1.068      347.163       25.934      860.074
08/24/2014  11:21:00       31.293       53.715       12.648       53.288       54.245       38.340     2839.581     2942.572     1469.945        0.564        0.363       62.165       30.418        0.239      346.298       24.445      860.038
08/24/2014  11:22:00       77.531      -35.861       19.829       62.093       70.117       40.903     3855.568     4916.339     1673.081        0.907        0.522       85.423       41.980        0.242      346.415       24.647      860.005
08/24/2014  11:23:00       33.281     -120.196       35.786       62.356      118.527       65.853     3888.324    14048.547     4336.580        1.955        1.114      124.719       70.509        0.320      346.498       24.788      859.971
08/24/2014  11:24:00      143.634     -151.958        8.198       95.228      107.534       58.423     9068.423    11563.579     3413.267        3.391        1.202      209.098       61.766        0.087      346.351       24.534      859.939
08/24/2014  11:25:00       56.479       90.427      125.616       76.867      110.229       81.821     5908.579    12150.400     6694.748        2.595        1.238      106.616       80.371        0.568      346.610       24.979      859.918
08/24/2014  11:26:00       96.261       75.996      104.225      104.903      128.926       96.674    11004.706    16622.012     9345.825        3.143        1.849      122.644      100.463        0.671      346.307       24.459      859.934
08/24/2014  11:27:00       63.336       11.557       63.308       70.527       92.228       67.522     4974.079     8505.934     4559.161        1.309        0.902       64.381       64.280        0.997      346.548       24.874      859.917
08/24/2014  11:28:00       62.618       22.452       86.526       65.238       59.730       41.713     4256.011     3567.685     1739.957        1.074        0.478       66.522       36.190        0.296      346.745       25.215      859.919
08/24/2014  11:29:00        9.415       18.873       53.479       37.134       48.856       46.283     1378.954     2386.950     2142.077        0.461        0.295       21.091       27.614        1.714      346.934       25.539      859.895
08/24/2014  11:30:00       39.465       39.220       66.411       65.251       75.015       44.796     4257.662     5627.306     2006.647        0.970        0.595       55.640       36.089        0.421      346.578       24.925      859.882
08/24/2014  11:31:00       58.476     -108.922       24.128       82.532      137.777       69.295     6811.452    18982.600     4801.755        2.322        1.530      123.626       88.070        0.507      346.389       24.599      859.883
08/24/2014  11:32:00       55.096       -1.213       73.259       63.789      124.666       82.378     4069.090    15541.628     6786.155        1.740        1.320       55.109       89.667        2.647      346.315       24.473      859.875
08/24/2014  11:33:00      134.814     -182.456      -37.197       71.644       88.356       52.050     5132.860     7806.699     2709.210        3.425        0.782      226.858       30.014        0.018      346.290       24.428      859.886
08/24/2014  11:34:00        0.846      -57.889        4.576       54.554       62.896       47.179     2976.123     3955.954     2225.900        0.626        0.458       57.895       27.236        0.221      346.567       24.908      859.904
08/24/2014  11:35:00       35.395       -3.483       34.238       53.079       59.057       44.132     2817.335     3487.764     1947.665        0.534        0.413       35.566       45.930        1.668      346.755       25.231      859.901
08/24/2014  11:36:00       -0.418      -26.858       39.318       47.091       64.551       43.947     2217.581     4166.792     1931.361        0.529        0.416       26.861       34.675        1.666      347.043       25.727      859.906
08/24/2014  11:37:00      119.915       81.141       83.775       98.006       86.054       77.965     9605.243     7405.371     6078.483        2.553        1.154      144.788       70.657        0.238      346.259       24.376      859.911
08/24/2014  11:38:00      149.170       90.781       60.496      105.937       68.692       57.003    11222.641     4718.597     3249.364        2.667        0.960      174.622       48.199        0.076      346.362       24.554      859.887
08/24/2014  11:39:00      182.750      106.011       19.608      104.955       66.829       51.346    11015.535     4466.156     2636.376        3.157        0.906      211.272       40.248        0.036      346.233       24.329      859.881
08/24/2014  11:40:00       83.231       90.277       62.273      100.926       61.728       71.601    10185.984     3810.398     5126.671        1.904        0.956      122.789       67.415        0.301      346.662       25.068      859.850
08/24/2014  11:41:00       67.379      165.648        1.200       88.404       87.252       53.977     7815.268     7612.849     2913.505        2.516        0.917      178.828       43.876        0.060      346.280       24.412      859.834
08/24/2014  11:42:00      104.648      101.761       14.853       72.931       58.724       51.603     5318.890     3448.531     2662.857        1.648        0.572      145.967       37.363        0.066      346.065       24.041      859.826
08/24/2014  11:43:00       98.668       78.107       19.665       56.540       46.308       39.844     3196.809     2144.438     1587.522        1.157        0.346      125.841       20.391        0.026      346.239       24.343      859.794
08/24/2014  11:44:00       70.501       55.961        8.491       67.568       51.276       47.091     4565.394     2629.245     2217.536        0.879        0.471       90.011       24.555        0.074      346.755       25.231      859.758
08/24/2014  11:45:00       63.098       42.511        3.091       67.748       52.698       27.736     4589.735     2777.127      769.263        0.697        0.407       76.083       18.015        0.056      346.735       25.197      859.743
08/24/2014  11:46:00       87.909       63.874       32.695       45.836       50.902       56.167     2100.942     2590.990     3154.709        1.036        0.392      108.664       36.636        0.114      346.644       25.040      859.725
08/24/2014  11:47:00       47.104       62.216       75.035       38.412       43.423       40.017     1475.458     1885.545     1601.328        0.834        0.248       78.036       30.339        0.151      346.401       24.622      859.711
08/24/2014  11:48:00       65.238       78.359       48.808       74.719       56.004       52.740     5582.950     3136.478     2781.473        1.214        0.575      101.961       33.947        0.111      346.758       25.237      859.704
08/24/2014  11:49:00       24.330       34.167       59.441       82.384       88.665       53.473     6787.109     7861.441     2859.372        1.140        0.875       41.944       42.441        1.024      347.203       26.002      859.694
08/24/2014  11:50:00      105.885       73.852       41.054       57.027       53.167       47.497     3252.026     2826.749     2255.948        1.334        0.417      129.096       27.693        0.046      346.178       24.238      859.701
08/24/2014  11:51:00      117.802      127.552      123.541      105.391       99.768       81.229    11107.253     9953.671     6598.125        3.653        1.383      173.628       79.117        0.208      346.513       24.812      859.705
08/24/2014  11:52:00      170.142      136.187       92.673      109.623       78.241       83.646    12017.244     6121.695     6996.713        4.060        1.257      217.933       66.843        0.094      346.149       24.185      859.714
08/24/2014  11:53:00      133.832       38.024       45.677       96.322       64.171       57.811     9277.925     4117.938     3342.093        1.909        0.837      139.129       37.744        0.074      346.323       24.487      859.716
08/24/2014  11:54:00      144.298     -212.673      -34.533      110.536      111.449       59.749    12218.101    12420.896     3569.917        4.772        1.410      257.005       74.684        0.084      346.170       24.222      859.718
08/24/2014  11:55:00       32.976      -38.385       20.066       63.390      111.305       62.763     4018.283    12388.743     3939.145        1.165        1.017       50.605       71.989        2.024      346.388       24.599      859.719
08/24/2014  11:56:00       -0.831       58.336       -7.455       34.509       23.820       29.882     1190.901      567.389      892.962        0.305        0.133       58.342       18.710        0.103      346.253       24.366      859.693
08/24/2014  11:57:00       25.460      -95.311       -7.400       72.651      100.451       40.008     5278.188    10090.461     1600.676        1.337        0.848       98.653       42.279        0.184      346.483       24.761      859.672
08/24/2014  11:58:00       71.004      -96.139       25.953       99.015      121.978       74.506     9803.907    14878.604     5551.202        2.259        1.512      119.517       68.161        0.325      346.648       25.046      859.641
08/24/2014  11:59:00       94.429     -142.736       12.169       95.703       85.452       52.618     9159.126     7302.053     2768.667        2.433        0.961      171.144       54.148        0.100      346.534       24.848      859.637
08/24/2014  12:00:00      124.044     -175.663      -22.495       90.690       65.796       33.771     8224.690     4329.152     1140.479        3.022        0.685      215.045       46.065        0.046      346.065       24.043      859.622
08/24/2014  12:01:00      120.476     -183.825      -53.417      106.728      112.708       58.222    11390.873    12703.132     3389.765        3.932        1.374      219.786       46.808        0.045      346.434       24.674      859.592
08/24/2014  12:02:00       65.354     -111.207       -0.930       70.174       63.555       43.088     4924.385     4039.244     1856.560        1.373        0.541      128.989       47.951        0.138      346.424       24.661      859.611
08/24/2014  12:03:00       36.050      -74.089        3.515       32.892       65.511       39.697     1081.894     4291.631     1575.849        0.687        0.347       82.394       38.621        0.220      346.519       24.827      859.584
08/24/2014  12:04:00       -6.758      -25.805       27.062       29.220       32.152       19.957      853.820     1033.748      398.289        0.186        0.114       26.675       19.999        0.562      347.090       25.807      859.572
08/24/2014  12:05:00      -25.959      -17.461       18.813       57.638       35.281       30.686     3322.188     1244.752      941.646        0.342        0.275       31.286       25.566        0.668      347.017       25.682      859.557
08/24/2014  12:06:00      -47.439      -28.473        2.112       43.605       29.924       30.134     1901.398      895.420      908.030        0.338        0.185       55.328       26.870        0.236      346.615       24.991      859.554
08/24/2014  12:07:00        3.329        9.915       28.222       21.996       31.343       24.720      483.841      982.405      611.084        0.149        0.104       10.459       15.092        2.082      347.341       26.239      859.532
08/24/2014  12:08:00       34.316        8.321       19.491       32.067       23.721       19.880     1028.274      562.672      395.207        0.181        0.099       35.310       14.010        0.157      347.253       26.090      859.540
08/24/2014  12:09:00       38.768       42.115       49.206       58.656       33.912       33.676     3440.527     1150.043     1134.092        0.571        0.286       57.242       12.150        0.045      347.280       26.135      859.536
08/24/2014  12:10:00       61.920      -28.210       31.448       87.382      101.001       43.842     7635.688    10201.262     1922.104        1.269        0.988       68.043       35.545        0.273      346.890       25.463      859.513
08/24/2014  12:11:00      127.570       68.610       17.291       94.198       56.531       57.935     8873.212     3195.732     3356.509        1.835        0.771      144.849       37.820        0.068      346.819       25.340      859.509
08/24/2014  12:12:00       99.036       84.818       30.755       83.912       71.369       41.894     7041.267     5093.475     1755.081        1.592        0.694      130.392       40.391        0.096      346.973       25.605      859.491
08/24/2014  12:13:00      128.140      122.988       53.916      127.138       64.892       58.197    16164.112     4210.929     3386.896        2.910        1.188      177.612       53.506        0.091      346.587       24.940      859.479
08/24/2014  12:14:00      223.066      132.683       40.577      143.288       75.022       62.105    20531.561     5628.359     3856.983        4.951        1.501      259.544       48.516        0.035      346.601       24.965      859.460
08/24/2014  12:15:00      217.350      121.817        6.117      113.750       80.911       58.296    12939.114     6546.527     3398.439        4.250        1.144      249.159       52.773        0.045      346.491       24.773      859.447
08/24/2014  12:16:00      145.994      103.115       74.818       98.964       70.816       72.099     9793.884     5014.976     5198.295        2.877        1.000      178.737       62.775        0.123      346.745       25.210      859.414
08/24/2014  12:17:00      115.511       65.500       45.173      109.538       66.614       71.601    11998.540     4437.421     5126.740        2.061        1.078      132.790       35.291        0.071      346.552       24.879      859.398
08/24/2014  12:18:00      157.945       82.648       12.053       87.302       65.227       42.569     7621.567     4254.526     1812.096        2.280        0.684      178.262       29.785        0.028      346.799       25.305      859.360
08/24/2014  12:19:00      107.270       92.410       61.230       50.276       43.919       40.142     2527.649     1928.835     1611.412        1.493        0.303      141.585       28.862        0.042      346.897       25.476      859.346
08/24/2014  12:20:00       96.659       61.816       66.180       95.605       73.308       67.420     9140.401     5374.094     4545.391        1.830        0.953      114.735       59.903        0.273      346.936       25.541      859.328
08/24/2014  12:21:00       57.520       72.832       13.715       72.299       44.935       58.580     5227.081     2019.146     3431.602        0.974        0.534       92.807       38.223        0.170      346.518       24.824      859.280
08/24/2014  12:22:00       10.601       46.033       77.761       58.663      112.550       87.902     3441.331    12667.503     7726.763        1.605        1.192       47.238       90.772        3.692      347.013       25.675      859.245
08/24/2014  12:23:00       82.990       68.948       88.640       86.301       81.640       58.954     7447.911     6665.029     3475.589        1.854        0.879      107.894       66.807        0.383      347.108       25.839      859.220
08/24/2014  12:24:00       20.912      -13.597       49.842       42.867       68.803       43.795     1837.612     4733.817     1918.019        0.580        0.424       24.944       47.194        3.580      347.272       26.122      859.201
08/24/2014  12:25:00        0.633      -57.011      -10.080       21.203       22.390       22.391      449.552      501.329      501.376        0.240        0.073       57.014       11.871        0.043      346.358       24.548      859.183
08/24/2014  12:26:00       31.919      -88.217       43.445       45.997       91.472       62.007     2115.678     8367.082     3844.857        1.251        0.716       93.814       51.569        0.302      347.177       25.958      859.153
08/24/2014  12:27:00       90.931     -159.468      -13.421       68.817      110.176       39.867     4735.836    12138.721     1589.411        2.617        0.923      183.571       47.602        0.067      346.710       25.152      859.155
08/24/2014  12:28:00       39.491     -132.546        3.849      105.381      108.477       68.896    11105.211    11767.156     4746.618        2.338        1.381      138.304       66.891        0.234      346.901       25.481      859.145
08/24/2014  12:29:00      -34.954      -81.767        5.088       81.710       87.235       43.289     6676.599     7609.865     1873.934        1.204        0.808       88.924       38.240        0.185      346.935       25.541      859.134
08/24/2014  12:30:00      -74.547      -40.496       17.137      125.450       76.623       54.752    15737.631     5871.087     2997.813        1.604        1.230       84.836       68.886        0.659      347.030       25.704      859.106
08/24/2014  12:31:00      156.166     -141.077      -13.264      126.588      162.629       89.061    16024.521    26448.337     7931.788        4.743        2.520      210.453      110.887        0.278      346.965       25.591      859.090
08/24/2014  12:32:00       74.005      -81.420       -6.889      116.588      122.705       54.392    13592.657    15056.563     2958.479        2.187        1.580      110.027       82.687        0.565      346.870       25.428      859.096
08/24/2014  12:33:00        9.677      -16.237       30.539       36.057       30.150       38.167     1300.080      909.015     1456.691        0.248        0.183       18.902       27.594        2.131      347.409       26.357      859.101
08/24/2014  12:34:00      -27.302       20.770       73.910       33.221       48.297       41.189     1103.607     2332.572     1696.542        0.589        0.257       34.304       35.483        1.070      347.642       26.760      859.069
08/24/2014  12:35:00     -107.157      -30.932       -2.240       60.768       38.310       29.200     3692.691     1467.671      852.615        0.923        0.301      111.532       24.149        0.047      346.952       25.569      859.066
08/24/2014  12:36:00      -93.252       15.823       22.002       91.736       33.492       31.262     8415.516     1121.718      977.338        0.997        0.526       94.585       41.772        0.195      346.924       25.522      859.040
08/24/2014  12:37:00        9.160       18.456       47.901       23.410       21.715       25.584      548.051      471.558      654.536        0.220        0.084       20.604       22.308        1.172      347.792       27.019      859.027
08/24/2014  12:38:00       -0.715       15.098       45.680       20.154       26.267       22.160      406.172      689.938      491.084        0.195        0.079       15.115       19.792        1.715      347.769       26.978      859.012
08/24/2014  12:39:00       68.222     -147.039        6.396       55.725      130.445       43.105     3105.241    17015.993     1858.059        2.414        1.099      162.095       53.148        0.108      346.978       25.613      859.012
08/24/2014  12:40:00       88.231       25.122       46.539       46.787       82.879       39.567     2189.001     6868.972     1565.529        1.060        0.531       91.738       31.665        0.119      347.203       26.003      858.999
08/24/2014  12:41:00       23.653       10.540       71.528       52.660      103.731       53.214     2773.115    10760.064     2831.736        1.107        0.818       25.895       61.735        5.684      347.670       26.807      858.988
08/24/2014  12:42:00       56.472       36.759       80.508       95.880       93.440       68.904     9192.958     8730.963     4747.811        1.684        1.134       67.382       62.617        0.864      347.711       26.878      858.977
08/24/2014  12:43:00      106.457       89.234       61.479       80.945       65.865       73.144     6552.123     4338.157     5350.015        1.965        0.812      138.909       33.627        0.059      347.147       25.905      858.979
08/24/2014  12:44:00      130.883       77.781       88.787       89.234       74.440       59.547     7962.642     5541.355     3545.888        2.405        0.852      152.250       29.623        0.038      347.126       25.867      858.951
08/24/2014  12:45:00      194.183      152.238       92.723       93.774      102.528       91.124     8793.567    10511.979     8303.583        4.854        1.380      246.746       75.111        0.093      346.723       25.174      858.947
08/24/2014  12:46:00       51.394       52.737       62.958       58.853       66.920       33.372     3463.734     4478.255     1113.697        0.922        0.453       73.638       30.106        0.167      347.283       26.141      858.937
08/24/2014  12:47:00       59.942      -42.522       34.084       71.967      108.292       44.754     5179.264    11727.117     2002.942        1.273        0.945       73.493       41.822        0.324      347.521       26.550      858.919
08/24/2014  12:48:00       51.273      -31.183       17.250       58.606       78.808       38.607     3434.681     6210.767     1490.512        0.752        0.557       60.011       36.007        0.360      347.434       26.400      858.913
08/24/2014  12:49:00      230.739      131.145       73.248      112.204       71.632       74.166    12589.732     5131.145     5500.534        4.951        1.161      265.404       56.318        0.045      347.227       26.040      858.883
08/24/2014  12:50:00      154.433      105.157       53.171       97.477       76.721       78.762     9501.671     5886.154     6203.481        2.966        1.080      186.836       41.461        0.049      347.288       26.146      858.895
08/24/2014  12:51:00      191.194      161.121       86.457      142.793       94.616       95.811    20389.768     8952.175     9179.805        5.425        1.926      250.030       67.613        0.073      347.282       26.135      858.881
08/24/2014  12:52:00      211.246      146.126       53.039       87.703       74.217       62.548     7691.869     5508.161     3912.243        4.295        0.856      256.861       49.048        0.036      346.671       25.081      858.891
08/24/2014  12:53:00      137.666       80.916       34.619       75.211       65.028       53.044     5656.649     4228.679     2813.617        1.970        0.635      159.685       37.192        0.054      346.861       25.413      858.892
08/24/2014  12:54:00      100.022       78.141       12.705       66.145       59.873       39.035     4375.119     3584.797     1523.740        1.288        0.474      126.927       30.799        0.059      346.981       25.619      858.872
08/24/2014  12:55:00      141.063      -30.156       26.102       37.898       72.312       37.434     1436.248     5229.052     1401.292        1.478        0.403      144.251       27.483        0.036      346.800       25.308      858.856
08/24/2014  12:56:00       57.841       62.923       99.782       64.173      120.480       76.161     4118.125    14515.526     5800.472        2.084        1.222       85.469       91.374        1.143      347.140       25.891      858.828
08/24/2014  12:57:00       68.530        2.178       61.036       58.931       72.609       43.956     3472.895     5272.087     1932.116        0.955        0.534       68.564       50.419        0.541      347.028       25.700      858.817
08/24/2014  12:58:00      100.017      103.261       42.969       90.788       72.776       68.338     8242.499     5296.299     4670.119        2.036        0.910      143.757       56.165        0.153      347.296       26.161      858.789
08/24/2014  12:59:00      170.940       67.859       35.570       61.661       57.163       52.004     3802.094     3267.588     2704.366        2.243        0.489      183.917       36.253        0.039      346.793       25.294      858.778
08/24/2014  13:00:00      203.900      127.440       38.101       96.049       64.001       69.390     9225.449     4096.118     4815.018        3.870        0.907      240.450       54.827        0.052      346.947       25.559      858.786
08/24/2014  13:01:00      119.466      119.023       -3.813       79.610       51.955       36.828     6337.749     2699.372     1356.310        1.942        0.520      168.637       20.524        0.015      346.812       25.325      858.794
08/24/2014  13:02:00       58.557       74.880        6.812       59.064       55.870       37.584     3488.602     3121.483     1412.576        0.855        0.401       95.057       29.269        0.095      346.939       25.548      858.764
08/24/2014  13:03:00        6.736       96.325       -8.788       24.397       34.767       26.800      595.232     1208.749      718.264        0.596        0.126       96.560       21.282        0.049      346.927       25.529      858.734
08/24/2014  13:04:00       22.778      134.836       -9.682       38.999       73.634       33.920     1520.954     5421.973     1150.539        1.344        0.405      136.746       37.909        0.077      347.039       25.719      858.702
08/24/2014  13:05:00       12.219       86.301        4.514       45.327       72.542       37.747     2054.523     5262.365     1424.807        0.818        0.437       87.162       40.928        0.220      347.475       26.471      858.690
08/24/2014  13:06:00      188.311      110.442       -0.926       61.851       57.611       45.212     3825.598     3319.019     2044.092        2.842        0.459      218.308       29.992        0.019      347.094       25.809      858.659
08/24/2014  13:07:00      172.545      116.424       10.682       85.245       68.606       46.435     7266.629     4706.746     2156.217        2.878        0.706      208.150       33.102        0.025      347.021       25.686      858.667
08/24/2014  13:08:00       82.168      139.362      -14.807       68.889       64.388       47.334     4745.758     4145.795     2240.543        1.876        0.557      161.782       42.612        0.069      346.960       25.582      858.669
08/24/2014  13:09:00      -23.970      152.208      -35.499       41.958       50.512       24.244     1760.437     2551.439      587.749        1.495        0.245      154.084       11.839        0.006      346.752       25.226      858.652
08/24/2014  13:10:00      -22.202      156.747      -10.668       52.164       95.439       33.768     2721.127     9108.656     1140.286        1.907        0.649      158.312       24.615        0.024      347.133       25.880      858.601
08/24/2014  13:11:00      -43.881       88.455      -19.762       65.070       60.409       36.957     4234.114     3649.188     1365.828        0.969        0.462       98.741       38.446        0.152      347.202       26.001      858.557
08/24/2014  13:12:00     -122.719      107.721      -20.398       68.109       76.745       35.137     4638.847     5889.861     1234.593        1.942        0.588      163.290       38.771        0.056      347.270       26.115      858.522
08/24/2014  13:13:00       -2.666       91.665       10.650       54.897       55.267       36.411     3013.727     3054.410     1325.726        0.796        0.370       91.704       24.476        0.071      347.734       26.918      858.528
08/24/2014  13:14:00      116.211       80.277       14.891       65.754       38.921       40.066     4323.621     1514.857     1605.258        1.381        0.372      141.242       19.881        0.020      347.452       26.430      858.521
08/24/2014  13:15:00       50.437      -12.933       33.188       74.731      121.546       54.329     5584.716    14773.413     2951.622        1.356        1.165       52.069       43.365        0.694      347.624       26.728      858.524
08/24/2014  13:16:00       61.783      -95.239       -4.802       67.030       97.322       60.777     4493.027     9471.514     3693.864        1.528        0.883      113.523       57.954        0.261      347.547       26.595      858.502
08/24/2014  13:17:00       57.459      -75.190       27.873       81.224      116.049       58.530     6597.295    13467.403     3425.787        1.661        1.175       94.631       54.180        0.328      347.827       27.078      858.477
08/24/2014  13:18:00      173.529       -6.003       35.493      118.029       77.370       71.973    13930.911     5986.173     5180.053        2.825        1.255      173.633       51.182        0.087      347.530       26.564      858.476
08/24/2014  13:19:00      172.948     -142.144        6.916      138.979      138.971       97.581    19315.173    19312.897     9522.038        4.915        2.408      223.866      105.858        0.224      347.536       26.572      858.439
08/24/2014  13:20:00      125.062     -143.711       -4.946       65.444       95.694       74.457     4282.909     9157.316     5543.799        2.765        0.949      190.508       67.585        0.126      347.236       26.058      858.461
08/24/2014  13:21:00       55.208      -55.796       46.217       83.792      129.187       67.257     7021.090    16689.171     4523.517        1.826        1.412       78.492       82.077        1.093      347.702       26.861      858.453
08/24/2014  13:22:00      109.585     -166.747      -24.288       90.746       78.393       47.680     8234.804     6145.474     2273.418        2.853        0.833      199.533       34.933        0.031      347.197       25.989      858.464
08/24/2014  13:23:00       53.805     -129.829       -2.163       47.252       62.898       38.289     2232.733     3956.178     1466.019        1.370        0.383      140.536       26.032        0.034      347.410       26.359      858.454
08/24/2014  13:24:00       80.572     -170.522       -7.905       58.188      130.261       50.792     3385.858    16967.873     2579.784        2.928        1.147      188.599       59.562        0.100      347.215       26.021      858.455
08/24/2014  13:25:00       18.040      -88.857       17.299       77.692       97.535       52.680     6036.027     9513.166     2775.229        1.342        0.916       90.670       48.709        0.289      347.447       26.423      858.447
08/24/2014  13:26:00      151.908     -178.511      -34.878      104.654       70.757       61.288    10952.445     5006.607     3756.219        3.793        0.986      234.398       66.703        0.081      347.115       25.848      858.426
08/24/2014  13:27:00      -76.370     -102.935       -5.299      124.448       74.044       47.418    15487.333     5482.493     2248.498        1.983        1.161      128.171       37.344        0.085      347.436       26.403      858.421
08/24/2014  13:28:00      -94.747      -76.044       32.610      143.410       73.856       55.576    20566.569     5454.754     3088.646        2.246        1.455      121.489       66.410        0.299      347.586       26.661      858.383
08/24/2014  13:29:00      -16.113      -95.711       -2.966       61.804       63.251       44.098     3819.787     4000.752     1944.622        0.960        0.488       97.058       18.660        0.037      347.483       26.485      858.396
08/24/2014  13:30:00      -20.324      -50.190        3.069       58.158       44.221       34.291     3382.332     1955.464     1175.858        0.473        0.326       54.149       25.701        0.225      347.573       26.641      858.403
08/24/2014  13:31:00      -68.674      -39.926       19.147       70.333       47.343       29.762     4946.686     2241.313      885.770        0.737        0.404       79.437       41.078        0.267      347.594       26.677      858.398
08/24/2014  13:32:00        9.375       48.302       29.386       33.992       65.314       36.491     1155.423     4265.911     1331.616        0.502        0.338       49.203       42.669        0.752      348.121       27.587      858.392
08/24/2014  13:33:00       88.470       49.638        6.251       76.362       68.108       48.080     5831.177     4638.740     2311.692        1.155        0.639      101.444       37.653        0.138      347.699       26.856      858.374
08/24/2014  13:34:00       89.827       24.925       38.810       89.861       58.431       49.112     8074.912     3414.146     2412.005        1.205        0.695       93.222       27.700        0.088      347.882       27.172      858.362
08/24/2014  13:35:00      123.538       -4.158       21.248      116.796       73.045       52.461    13641.237     5335.621     2752.164        1.873        1.086      123.608       43.235        0.122      347.787       27.008      858.331
08/24/2014  13:36:00        1.402       11.875       50.183       60.090       59.980       52.178     3610.761     3597.574     2722.492        0.629        0.497       11.958       43.998       13.538      348.019       27.411      858.334
08/24/2014  13:37:00      116.734       73.909      117.099      100.865       72.035       62.976    10173.829     5189.097     3965.932        2.606        0.966      138.164       37.508        0.074      347.846       27.111      858.326
08/24/2014  13:38:00       81.342      153.267      135.897       92.068       79.260       62.345     8476.466     6282.143     3886.881        3.361        0.932      173.515       53.149        0.094      347.769       26.976      858.312
08/24/2014  13:39:00      194.752      103.355       63.619      115.410       84.039       80.122    13319.542     7062.546     6419.574        3.972        1.340      220.479       54.224        0.060      347.324       26.208      858.309
08/24/2014  13:40:00      122.525       70.480       57.244       83.748       98.304       59.427     7013.793     9663.774     3531.542        2.173        1.010      141.350       53.320        0.142      347.273       26.121      858.309
08/24/2014  13:41:00       57.246       45.470       14.674       65.463       44.033       45.166     4285.427     1938.903     2039.924        0.691        0.413       73.107       23.854        0.106      347.614       26.710      858.301
08/24/2014  13:42:00      -10.164       16.761       30.184       19.589       32.818       34.047      383.748     1077.053     1159.164        0.196        0.131       19.602       17.749        0.820      348.322       27.932      858.292
08/24/2014  13:43:00       40.496      112.290      120.174       58.921       55.657       47.428     3471.682     3097.667     2249.421        1.875        0.441      119.369       43.396        0.132      347.701       26.860      858.269
08/24/2014  13:44:00      141.012       90.613       32.720       80.537       63.967       51.970     6486.236     4091.724     2700.927        2.122        0.664      167.616       45.217        0.073      347.661       26.790      858.255
08/24/2014  13:45:00      142.266      101.666       30.403       65.312       39.174       44.323     4265.594     1534.633     1964.559        1.963        0.388      174.859       31.087        0.032      347.232       26.050      858.257
08/24/2014  13:46:00       66.772       79.306       15.724       44.946       38.777       37.589     2020.174     1503.685     1412.951        0.797        0.247      103.672       26.481        0.065      347.453       26.434      858.240
08/24/2014  13:47:00      134.057       87.663       15.700       64.912       65.175       49.332     4213.564     4247.786     2433.632        1.840        0.545      160.175       22.876        0.020      347.558       26.613      858.208
08/24/2014  13:48:00       82.371       89.618       -1.290       85.593       68.903       52.070     7326.166     4747.687     2711.250        1.480        0.739      121.723       36.398        0.089      347.750       26.944      858.173
08/24/2014  13:49:00      141.491      197.804      209.244      119.793      136.122      131.243    14350.350    18529.185    17224.744        7.651        2.505      243.200      101.720        0.175      347.542       26.585      858.124
08/24/2014  13:50:00      159.084      116.552       92.340      104.383       74.903       70.490    10895.866     5610.516     4968.807        3.444        1.074      197.210       53.542        0.074      347.364       26.276      858.157
08/24/2014  13:51:00       75.711      152.468      126.747      109.304       65.156       69.979    11947.445     4245.314     4897.072        3.306        1.054      170.231       70.100        0.170      347.434       26.396      858.135
08/24/2014  13:52:00       42.293       76.007       -3.237       70.400       26.050       18.411     4956.185      678.618      338.960        0.677        0.299       86.981       13.204        0.023      347.189       25.979      858.120
08/24/2014  13:53:00       58.203       20.896       33.711       66.691       47.082       37.544     4447.719     2216.707     1409.544        0.652        0.404       61.841       29.099        0.221      347.654       26.781      858.066
08/24/2014  13:54:00       98.092       51.185       51.854       88.604       55.709       58.085     7850.617     3103.502     3373.827        1.463        0.716      110.643       35.437        0.103      347.783       27.001      858.031
08/24/2014  13:55:00       -6.777      109.683       29.765       66.947       57.443       52.897     4481.963     3299.698     2798.087        1.177        0.529      109.893       39.441        0.129      348.013       27.400      858.031
08/24/2014  13:56:00      101.404       69.313       -4.555       52.691       45.040       42.195     2776.306     2028.605     1780.459        1.085        0.329      122.830       32.007        0.068      347.525       26.558      858.034
08/24/2014  13:57:00       35.716        8.919       -1.175       43.519       45.933       30.660     1893.865     2109.866      940.061        0.315        0.247       36.813       23.136        0.395      347.565       26.628      858.026
08/24/2014  13:58:00        0.006       14.294       34.184       53.746       34.895       39.415     2888.590     1217.670     1553.543        0.352        0.283       14.294       36.664        6.580      348.026       27.424      858.017
08/24/2014  13:59:00       20.310       28.057        0.938       35.332       36.271       22.568     1248.365     1315.616      509.307        0.214        0.154       34.636       16.815        0.236      347.770       26.979      858.014
08/24/2014  14:00:00       -8.161       32.112       12.593       30.468       26.362       30.797      928.282      694.963      948.468        0.191        0.129       33.133       21.843        0.435      348.305       27.904      857.990
08/24/2014  14:01:00       14.048       59.320        3.287       34.700       49.446       34.825     1204.104     2444.884     1212.762        0.429        0.243       60.961       25.773        0.179      348.030       27.429      857.976
08/24/2014  14:02:00        6.388       44.641       -9.786       29.020       51.695       20.488      842.140     2672.402      419.753        0.303        0.197       45.096        8.825        0.038      347.726       26.905      857.984
08/24/2014  14:03:00       86.944        8.994       34.779       88.185       51.917       46.956     7776.561     2695.423     2204.889        1.076        0.634       87.408       29.179        0.111      347.893       27.192      857.965
08/24/2014  14:04:00       55.748       96.352      -10.931       46.952       58.441       41.818     2204.495     3415.376     1748.768        0.994        0.368      111.318       28.248        0.064      347.592       26.673      857.940
08/24/2014  14:05:00       44.845        1.553       -0.304       55.614       51.078       27.855     3092.926     2608.984      775.902        0.424        0.324       44.872       30.562        0.464      347.858       27.133      857.934
08/24/2014  14:06:00        6.890        5.196       31.810       39.110       59.833       51.291     1529.593     3579.930     2630.769        0.441        0.387        8.630       47.667       30.509      348.339       27.964      857.934
08/24/2014  14:07:00       19.506       45.210       56.701       41.995       54.555       52.487     1763.586     2976.217     2754.901        0.657        0.375       49.238       47.935        0.948      348.240       27.791      857.920
08/24/2014  14:08:00      177.659     -142.063       24.989      121.744      144.377       94.738    14821.604    20844.798     8975.381        4.850        2.232      227.474       99.991        0.193      347.970       27.322      857.893
08/24/2014  14:09:00      132.059      -89.503       10.957       99.214      124.632       74.865     9843.403    15533.170     5604.733        2.827        1.549      159.532       97.989        0.377      347.563       26.621      857.886
08/24/2014  14:10:00      156.924       42.156       83.581       94.521      121.399       76.257     8934.175    14737.663     5815.067        3.143        1.474      162.488       78.104        0.231      347.938       27.266      857.880
08/24/2014  14:11:00       35.009      107.903      135.923       70.266       99.407       81.356     4937.317     9881.840     6618.780        2.639        1.072      113.440       74.208        0.428      348.062       27.483      857.864
08/24/2014  14:12:00      152.109       87.497       10.547       98.082       71.544       41.172     9620.109     5118.610     1695.121        2.367        0.822      175.479       32.443        0.034      347.662       26.791      857.843
08/24/2014  14:13:00       88.912      -96.663      -16.482      101.414      163.889       50.667    10284.748    26859.679     2567.148        2.861        1.986      131.336       79.982        0.371      347.941       27.274      857.844
08/24/2014  14:14:00      147.529     -233.495      -30.942      101.920       85.020       52.228    10387.650     7228.365     2727.723        4.879        1.017      276.197       52.454        0.036      347.528       26.558      857.816
08/24/2014  14:15:00      161.754     -259.517      -61.226       90.838       80.058       49.332     8251.525     6409.358     2433.628        5.717        0.855      305.799       43.719        0.020      347.471       26.460      857.797
08/24/2014  14:16:00      137.667     -178.610      -23.574       68.024       56.588       39.690     4627.321     3202.215     1575.274        3.041        0.470      225.508       42.895        0.036      347.531       26.565      857.799
08/24/2014  14:17:00       52.961      -97.301        6.381       39.219       47.056       28.215     1538.160     2214.241      796.091        0.843        0.227      110.781       19.549        0.031      347.761       26.964      857.792
08/24/2014  14:18:00        3.957       -0.003       29.059       17.717       39.871       20.694      313.884     1589.714      428.261        0.160        0.117        3.957       23.590       35.541      348.264       27.835      857.789
08/24/2014  14:19:00        7.053        9.105       26.757       28.136       33.082       18.084      791.618     1094.451      327.020        0.153        0.111       11.517        6.997        0.369      348.651       28.503      857.773
08/24/2014  14:20:00     -103.605      -64.337        7.070      101.070       66.167       46.965    10215.104     4378.054     2205.743        1.586        0.840      121.956       57.640        0.223      347.889       27.185      857.733
08/24/2014  14:21:00     -240.459      -63.145       -7.967      104.460      101.233       44.822    10911.936    10248.056     2009.028        4.252        1.158      248.611       38.514        0.024      347.730       26.908      857.690
08/24/2014  14:22:00     -243.683       14.126      -23.518      115.594      118.943       47.265    13361.953    14147.321     2234.017        4.493        1.487      244.092       48.473        0.039      347.629       26.733      857.698
08/24/2014  14:23:00     -136.933      155.023      -19.836       55.636       97.782       36.641     3095.314     9561.378     1342.557        2.858        0.700      206.840       38.283        0.034      347.792       27.014      857.676
08/24/2014  14:24:00      -48.190      257.571      -37.400       53.424       57.185       24.423     2854.075     3270.172      596.482        3.839        0.336      262.040       14.696        0.003      347.381       26.303      857.631
08/24/2014  14:25:00       -1.603      178.679      -24.480       51.744       59.457       33.347     2677.431     3535.103     1112.042        1.992        0.366      178.686       30.640        0.029      347.645       26.763      857.612
08/24/2014  14:26:00      -12.883      159.338       -5.628       57.243       86.373       39.382     3276.816     7460.335     1550.929        1.893        0.614      159.858       38.744        0.059      347.869       27.149      857.615
08/24/2014  14:27:00       83.700      105.769        6.437       98.316       74.813       53.411     9665.982     5597.022     2852.748        1.817        0.906      134.881       39.174        0.084      348.113       27.570      857.603
08/24/2014  14:28:00       84.968       87.510       60.275       81.750       49.404       57.979     6682.987     2440.719     3361.584        1.550        0.624      121.974       57.277        0.221      348.235       27.783      857.594
08/24/2014  14:29:00       46.164       69.291       57.706       77.524       54.528       67.670     6010.046     2973.321     4579.198        1.191        0.678       83.260       49.353        0.351      348.453       28.161      857.593
08/24/2014  14:30:00       50.481      115.510       -9.186       63.880       74.004       40.402     4080.637     5476.519     1632.337        1.358        0.559      126.059       46.653        0.137      348.296       27.889      857.604
08/24/2014  14:31:00       73.062      148.358      -18.002       48.717      104.466       43.096     2373.318    10913.141     1857.235        2.140        0.757      165.373       53.926        0.106      347.653       26.776      857.599
08/24/2014  14:32:00      116.779       95.638       -5.837       54.438       42.947       38.969     2963.479     1844.403     1518.570        1.457        0.316      150.944       27.407        0.033      347.831       27.084      857.593
08/24/2014  14:33:00       24.363       67.186       -6.062       46.262       54.521       33.380     2140.207     2972.565     1114.250        0.568        0.311       71.467       34.601        0.234      347.986       27.353      857.591
08/24/2014  14:34:00      105.933       54.377       14.258       66.122       60.037       34.113     4372.139     3604.479     1163.674        1.176        0.457      119.074       32.268        0.073      348.390       28.050      857.577
08/24/2014  14:35:00       18.817      104.344       -2.193       70.154       45.295       46.459     4921.617     2051.630     2158.435        1.019        0.457      106.027       43.895        0.171      347.891       27.190      857.555
08/24/2014  14:36:00      -15.523       58.841        7.113       42.685       37.405       29.469     1822.032     1399.168      868.406        0.392        0.204       60.854       25.129        0.171      348.352       27.985      857.519
08/24/2014  14:37:00       40.995        2.420       54.630       74.073       82.879       66.557     5486.860     6869.007     4429.776        1.072        0.839       41.067       62.310        2.302      348.518       28.271      857.500
08/24/2014  14:38:00       31.523       11.084      104.388       63.926       98.889       68.299     4086.484     9779.005     4664.820        1.527        0.927       33.415       71.160        4.535      348.418       28.098      857.490
08/24/2014  14:39:00       71.337     -185.916      -29.804       52.795       42.622       29.796     2787.270     1816.665      887.794        2.302        0.275      199.133       17.986        0.008      347.874       27.159      857.468
08/24/2014  14:40:00       73.158       39.140       80.980       96.126      110.041       61.644     9240.268    12108.976     3799.929        1.929        1.257       82.970       67.977        0.671      348.175       27.677      857.451
08/24/2014  14:41:00      106.689       16.799       75.463       93.167      146.111       77.708     8680.007    21348.400     6038.494        2.671        1.803      108.003       92.182        0.728      348.120       27.582      857.427
08/24/2014  14:42:00       68.248       97.449       87.326       70.986       83.429       86.268     5039.010     6960.413     7442.228        2.061        0.972      118.971       58.912        0.245      347.884       27.176      857.445
08/24/2014  14:43:00       82.703       86.726       -1.480       43.137       37.394       31.966     1860.798     1398.328     1021.829        0.932        0.214      119.838       26.583        0.049      347.757       26.957      857.424
08/24/2014  14:44:00       51.615       65.002       -7.936       48.269       49.243       32.339     2329.900     2424.846     1045.821        0.638        0.290       83.002       12.781        0.024      347.737       26.923      857.409
08/24/2014  14:45:00       68.857       61.384        5.038       61.798       57.694       42.032     3818.971     3328.552     1766.710        0.872        0.446       92.246       28.514        0.096      347.822       27.070      857.392
08/24/2014  14:46:00       64.369       67.165       10.743       54.579       38.526       34.390     2978.829     1484.262     1182.668        0.721        0.282       93.029       20.512        0.049      347.800       27.030      857.364
08/24/2014  14:47:00       13.389       50.478       -6.855       30.675       34.915       29.116      940.940     1219.034      847.734        0.289        0.150       52.223        2.988        0.003      347.961       27.311      857.356
08/24/2014  14:48:00       77.399      -60.966       -7.083       62.831       69.190       37.693     3947.737     4787.224     1420.776        0.995        0.508       98.526       46.750        0.225      348.063       27.485      857.346
08/24/2014  14:49:00       37.057      -49.286       30.362       57.090       97.101       60.822     3259.268     9428.696     3699.255        1.055        0.819       61.663       47.221        0.586      348.256       27.820      857.320
08/24/2014  14:50:00        8.359      -88.891       -2.865       46.545       67.113       40.704     2166.419     4504.210     1656.823        0.815        0.416       89.283       40.754        0.208      348.323       27.935      857.306
08/24/2014  14:51:00       38.598     -151.460      -12.784      112.020       94.097       54.450    12548.383     8854.244     2964.764        2.448        1.218      156.300       52.277        0.112      348.157       27.648      857.303
08/24/2014  14:52:00      165.898     -193.373      -34.302       84.301      107.495       56.551     7106.619    11555.279     3198.054        4.397        1.093      254.785       54.075        0.045      347.745       26.933      857.299
08/24/2014  14:53:00       82.949      -50.085       26.303       70.391       79.260       64.095     4954.951     6282.106     4108.106        1.271        0.767       96.897       57.124        0.348      348.091       27.534      857.304
08/24/2014  14:54:00       59.222      -94.971       32.859       58.625       80.561       44.140     3436.844     6490.053     1948.368        1.274        0.594      111.923       44.384        0.157      348.080       27.514      857.276
08/24/2014  14:55:00        0.383      -95.255       20.290       43.048       43.339       37.282     1853.112     1878.236     1389.929        0.730        0.256       95.256       12.465        0.017      348.152       27.638      857.269
08/24/2014  14:56:00       82.782     -172.171      -12.066       67.063       75.017       53.513     4497.459     5627.527     2863.656        2.481        0.649      191.038       43.525        0.052      348.148       27.629      857.259
08/24/2014  14:57:00      165.869     -156.293       -2.075       86.260      100.170       47.982     7440.774    10034.115     2302.230        3.586        0.989      227.903       51.764        0.052      347.926       27.246      857.255
08/24/2014  14:58:00      110.335      -71.627       19.375       59.496       63.791       47.217     3539.812     4069.324     2229.489        1.376        0.492      131.545       52.179        0.157      348.001       27.377      857.267
08/24/2014  14:59:00       64.119        9.468       50.077       44.108       70.046       41.859     1945.474     4906.508     1752.164        0.765        0.430       64.815       49.225        0.577      348.225       27.766      857.250
08/24/2014  15:00:00        4.862       26.952       44.792       30.288       36.867       37.625      917.349     1359.143     1415.622        0.322        0.185       27.387       28.158        1.057      348.600       28.415      857.236
08/24/2014  15:01:00      -34.795      -15.831       12.219       50.095       38.568       18.770     2509.551     1487.463      352.312        0.298        0.217       38.227       22.375        0.343      348.705       28.597      857.214
08/24/2014  15:02:00      -11.293      -48.233       -8.115       48.057       34.842       26.025     2309.441     1213.948      677.298        0.336        0.210       49.537        8.897        0.032      348.462       28.176      857.205
08/24/2014  15:03:00      -93.920      -20.994       -0.675       50.570       44.704       24.552     2557.296     1998.443      602.812        0.721        0.258       96.238       27.392        0.081      347.977       27.337      857.198
08/24/2014  15:04:00       -6.280        4.256       27.559       23.330       29.266       24.088      544.289      856.517      580.221        0.140        0.099        7.586       15.999        4.447      348.725       28.633      857.186
08/24/2014  15:05:00        7.937       42.574       80.006       35.897       48.599       39.104     1288.624     2361.869     1529.093        0.673        0.259       43.308       37.101        0.734      348.522       28.280      857.162
08/24/2014  15:06:00       61.079      -56.396       30.047       52.783       50.257       42.637     2786.015     2525.747     1817.893        0.747        0.356       83.134       32.223        0.150      348.377       28.028      857.141
08/24/2014  15:07:00       14.387     -111.807        9.125       33.397       61.611       29.871     1115.376     3795.928      892.295        0.930        0.290      112.729       22.387        0.039      348.276       27.855      857.114
08/24/2014  15:08:00       27.724     -157.578      -12.420       31.252       46.357       31.683      976.693     2149.008     1003.801        1.494        0.206      159.998       28.774        0.032      348.148       27.631      857.091
08/24/2014  15:09:00       82.531     -178.596      -24.848       60.721       40.585       33.199     3687.003     1647.145     1102.148        2.288        0.322      196.744       24.826        0.016      347.813       27.054      857.056
08/24/2014  15:10:00       42.049      -85.105       16.990       51.589       70.302       34.628     2661.389     4942.390     1199.124        0.905        0.440       94.926       38.010        0.160      347.997       27.371      857.030
08/24/2014  15:11:00       14.139      -33.689       15.306       32.195       54.837       43.026     1036.517     3007.047     1851.237        0.373        0.295       36.536       41.592        1.296      348.442       28.141      857.005
08/24/2014  15:12:00       -4.953       36.806       23.475       36.186       19.580       27.166     1309.396      383.372      737.972        0.218        0.122       37.138       23.221        0.391      348.202       27.726      856.993
08/24/2014  15:13:00        9.128       50.509        4.895       49.478       54.277       29.613     2448.105     2945.983      876.930        0.446        0.314       51.327       27.194        0.281      348.370       28.015      856.984
08/24/2014  15:14:00      135.971       81.495       28.101       79.305       66.262       56.095     6289.280     4390.597     3146.703        1.987        0.691      158.523       29.656        0.035      348.501       28.242      856.958
08/24/2014  15:15:00       88.877       85.319       79.047       76.601       65.894       52.811     5867.743     4342.024     2789.035        1.721        0.650      123.201       42.233        0.118      348.333       27.950      856.946
08/24/2014  15:16:00       29.879       50.913       78.546       66.735       55.010       55.887     4453.613     3026.078     3123.398        1.013        0.530       59.033       54.401        0.849      348.636       28.476      856.937
08/24/2014  15:17:00      133.557       83.490       59.999       91.248       69.808       52.760     8326.282     4873.213     2783.580        2.219        0.799      157.506       45.746        0.084      348.531       28.292      856.924
08/24/2014  15:18:00      124.495       72.436       43.276       87.656       69.840       46.297     7683.521     4877.628     2143.414        1.866        0.735      144.034       28.793        0.040      348.477       28.200      856.921
08/24/2014  15:19:00        6.111       47.969        8.584       55.978       99.294       44.110     3133.569     9859.333     1945.711        0.867        0.747       48.356       55.243        1.305      348.474       28.197      856.906
08/24/2014  15:20:00      103.439      108.323       89.227      118.556       89.022       82.603    14055.503     7924.857     6823.279        2.959        1.440      149.778       71.877        0.230      348.611       28.432      856.877
08/24/2014  15:21:00      131.968       57.826       12.755       71.229       95.305       60.193     5073.509     9083.095     3623.192        1.935        0.889      144.081       39.891        0.077      348.494       28.229      856.872
08/24/2014  15:22:00       35.669       34.618       52.597       69.979       70.798       36.771     4897.067     5012.288     1352.083        0.825        0.563       49.706       20.628        0.172      348.990       29.089      856.872
08/24/2014  15:23:00       72.439      102.875       44.907       78.163       64.043       77.824     6109.478     4101.496     6056.526        1.705        0.813      125.820       60.181        0.229      348.356       27.991      856.877
08/24/2014  15:24:00      223.039      150.155       50.960      103.406       87.575       64.116    10692.779     7669.416     4110.883        4.868        1.124      268.874       31.792        0.014      348.308       27.907      856.877
08/24/2014  15:25:00       65.534       71.983       72.804      102.242       81.324       59.919    10453.469     6613.618     3590.253        1.771        1.033       97.346       63.420        0.424      348.297       27.889      856.877
08/24/2014  15:26:00       79.085     -198.165        1.408       60.120       89.436       35.478     3614.428     7998.753     1258.710        2.920        0.644      213.363       27.342        0.016      347.979       27.340      856.891
08/24/2014  15:27:00      -63.914     -239.293       -6.576       74.529       68.539       47.164     5554.597     4697.619     2224.449        3.693        0.624      247.681       13.997        0.003      347.934       27.260      856.892
08/24/2014  15:28:00      -41.929     -204.036      -17.964       37.699       70.645       28.876     1421.228     4990.657      833.824        2.548        0.362      208.299       22.148        0.011      347.928       27.251      856.899
08/24/2014  15:29:00        6.495     -163.462       18.629       54.931       36.048       39.622     3017.405     1299.463     1569.883        1.650        0.294      163.591       23.595        0.021      347.978       27.337      856.872
08/24/2014  15:30:00       37.230        6.867        5.117       38.916       34.552       28.646     1514.425     1193.807      820.600        0.249        0.176       37.858       18.776        0.246      348.454       28.163      856.858
08/24/2014  15:31:00       30.238       25.595        5.568       51.308       32.070       22.749     2632.514     1028.483      517.523        0.289        0.209       39.616       18.757        0.224      348.480       28.206      856.849
08/24/2014  15:32:00       60.840       47.807       14.936       39.471       29.274       24.673     1557.931      856.995      608.742        0.462        0.151       77.376       18.127        0.055      348.341       27.967      856.840
08/24/2014  15:33:00       77.778       45.573       24.382       48.567       48.998       40.355     2358.772     2400.772     1628.505        0.755        0.319       90.146       28.397        0.099      348.213       27.746      856.814
08/24/2014  15:34:00       71.560       33.069        3.650       48.121       53.783       42.247     2315.630     2892.590     1784.849        0.661        0.350       78.832       14.919        0.036      348.382       28.036      856.783
08/24/2014  15:35:00       -1.347      -72.008       -9.493       53.114       66.148       38.773     2821.070     4375.574     1503.320        0.699        0.435       72.021       39.743        0.305      348.579       28.377      856.777
08/24/2014  15:36:00      -69.813      -73.602        5.151       73.698       53.861       45.464     5431.424     2901.051     2066.992        1.036        0.520      101.445       41.199        0.165      348.713       28.609      856.767
08/24/2014  15:37:00      -60.551      -10.695       20.353       91.088       66.170       53.747     8296.934     4378.451     2888.762        0.988        0.778       61.489       65.567        1.137      348.876       28.892      856.738
08/24/2014  15:38:00      -28.407      -13.103       18.004       82.208       66.034       47.690     6758.150     4360.487     2274.377        0.735        0.670       31.283       37.891        1.467      348.813       28.784      856.722
08/24/2014  15:39:00      -58.286      -28.496        9.341       47.632       51.934       33.137     2268.782     2697.092     1098.042        0.518        0.303       64.879       31.517        0.236      348.567       28.357      856.707
08/24/2014  15:40:00      -19.504       18.259        6.161       25.575       21.584       25.195      654.105      465.852      634.778        0.125        0.088       26.717       19.412        0.528      348.642       28.487      856.682
08/24/2014  15:41:00     -107.259       -6.514       -4.338       35.961       37.699       21.498     1293.173     1421.236      462.163        0.737        0.159      107.457       17.055        0.025      348.363       28.005      856.670
08/24/2014  15:42:00       71.606       56.956       24.444       76.927       52.317       37.592     5917.752     2737.083     1413.164        0.952        0.503       91.496       31.660        0.120      348.399       28.067      856.663
08/24/2014  15:43:00      138.719       81.926       10.965       71.583       33.886       41.907     5124.067     1148.286     1756.181        1.705        0.401      161.105       26.477        0.027      348.389       28.050      856.658
08/24/2014  15:44:00      132.729       73.818       17.818       89.391       57.267       52.634     7990.711     3279.549     2770.307        1.871        0.702      151.876       20.685        0.019      348.299       27.892      856.640
08/24/2014  15:45:00       83.199       86.718       40.752      134.214       82.658       50.633    18013.405     6832.331     2563.729        2.175        1.370      120.175       32.498        0.073      348.499       28.239      856.602
08/24/2014  15:46:00      166.437       85.920        6.735       90.836       78.224       51.217     8251.257     6118.934     2623.195        2.606        0.850      187.306       30.138        0.026      348.233       27.777      856.598
08/24/2014  15:47:00      156.926      106.958       16.186       93.886       63.526       40.580     8814.647     4035.560     1646.714        2.541        0.725      189.910       22.546        0.014      348.204       27.727      856.594
08/24/2014  15:48:00       22.654       45.180       -0.241       54.697       59.849       28.923     2991.813     3581.862      836.551        0.498        0.371       50.542       31.517        0.389      348.471       28.192      856.580
08/24/2014  15:49:00       85.642       59.202       14.727      105.952       81.139       53.520    11225.731     6583.573     2864.383        1.586        1.034      104.113       27.563        0.070      348.726       28.632      856.568
08/24/2014  15:50:00       62.126       24.074       25.679       78.112       48.322       32.143     6101.489     2335.017     1033.187        0.728        0.473       66.628       23.395        0.123      348.509       28.256      856.552
08/24/2014  15:51:00       49.988       82.772        3.098       69.738       98.704       48.853     4863.365     9742.558     2386.663        1.317        0.850       96.695       50.702        0.275      348.464       28.178      856.538
08/24/2014  15:52:00      206.235      139.206       41.472       96.162       67.139       67.125     9247.213     4507.640     4505.788        4.094        0.913      248.819       40.384        0.026      348.174       27.675      856.520
08/24/2014  15:53:00       90.821       55.315       15.931      118.057       64.363       43.492    13937.510     4142.611     1891.550        1.576        0.999      106.340       17.660        0.028      348.482       28.209      856.509
08/24/2014  15:54:00       59.479       35.460        3.310       38.949       38.420       28.409     1517.053     1476.135      807.047        0.430        0.190       69.247       15.730        0.052      348.356       27.992      856.494
08/24/2014  15:55:00       83.435       78.511       66.938       95.202       64.011       58.842     9063.387     4097.461     3462.359        1.711        0.831      114.566       37.431        0.107      348.384       28.039      856.469
08/24/2014  15:56:00       57.850      131.403      -11.616       55.637       85.855       53.130     3095.449     7371.104     2822.776        1.702        0.664      143.574       54.050        0.142      348.164       27.658      856.483
08/24/2014  15:57:00      -11.675       57.625      -15.583       35.916       32.230       17.922     1289.927     1038.793      321.207        0.317        0.132       58.796       19.075        0.105      348.234       27.781      856.454
08/24/2014  15:58:00       17.190       60.422        2.286       26.622       27.774       26.403      708.708      771.420      697.126        0.306        0.109       62.820       20.612        0.108      348.322       27.933      856.425
08/24/2014  15:59:00       70.439       52.296       50.193       54.395       52.974       32.180     2958.785     2806.255     1035.571        0.851        0.340       87.730       29.185        0.111      348.351       27.984      856.413
08/24/2014  16:00:00       92.927        8.514       54.155       61.371       84.966       54.367     3766.380     7219.231     2955.729        1.279        0.697       93.317       60.263        0.417      348.470       28.189      856.393
08/24/2014  16:01:00       56.544     -128.747       -2.382       60.320       64.938       49.205     3638.537     4216.974     2421.130        1.503        0.514      140.617       42.688        0.092      348.610       28.431      856.360
08/24/2014  16:02:00       75.772      -79.708       43.015       90.448      150.462       68.813     8180.836    22638.842     4735.188        2.474        1.778      109.976       88.121        0.642      348.724       28.626      856.342
08/24/2014  16:03:00       68.451       -8.333       86.337       89.366      111.596       69.999     7986.305    12453.739     4899.923        1.877        1.267       68.956       63.449        0.847      348.606       28.425      856.342
08/24/2014  16:04:00       83.507      -23.868       63.990       72.712      140.133       81.068     5287.007    19637.291     6571.974        2.156        1.575       86.851       84.214        0.940      348.290       27.877      856.347
08/24/2014  16:05:00       77.515       50.844      103.913       87.067      145.030       78.653     7580.688    21033.792     6186.350        2.709        1.740       92.702       90.957        0.963      348.348       27.978      856.329
08/24/2014  16:06:00       61.729      -30.255       50.335       54.522      139.974       76.179     2972.647    19592.645     5803.181        1.781        1.418       68.745       92.283        1.802      348.336       27.955      856.344
08/24/2014  16:07:00       45.965      -78.433        1.404       92.932       86.504       70.393     8636.364     7482.970     4955.145        1.467        1.054       90.910       53.952        0.352      348.421       28.104      856.315
08/24/2014  16:08:00       95.206     -203.058      -24.807       84.285       85.767       42.061     7103.958     7355.906     1769.115        3.357        0.811      224.270       27.124        0.015      348.396       28.059      856.293
08/24/2014  16:09:00      104.881     -209.969      -40.512       52.191       92.175       39.444     2723.941     8496.165     1555.798        3.475        0.639      234.706       36.142        0.024      348.185       27.694      856.301
08/24/2014  16:10:00       37.601      -18.095       17.884       28.200       42.102       29.075      795.230     1772.577      845.373        0.274        0.171       41.728       30.026        0.518      348.357       27.994      856.315
08/24/2014  16:11:00      -14.282        1.697       -6.246       14.294       29.917       16.571      204.316      895.049      274.602        0.081        0.069       14.382       13.658        0.902      348.361       28.000      856.297
08/24/2014  16:12:00       49.395      -15.782       22.970       48.434       60.040       28.696     2345.821     3604.747      823.452        0.499        0.339       51.855       32.753        0.399      348.468       28.186      856.300
08/24/2014  16:13:00       27.874      -30.301       19.764       38.069       43.430       25.760     1449.265     1886.152      663.600        0.304        0.200       41.172       16.328        0.157      348.628       28.462      856.313
08/24/2014  16:14:00       67.585      -57.149       15.860       37.001       35.981       33.173     1369.098     1294.613     1100.422        0.592        0.188       88.508       28.963        0.107      348.599       28.413      856.313
08/24/2014  16:15:00       34.656       58.030       84.371       49.730       93.464       51.881     2473.096     8735.555     2691.651        1.279        0.695       67.591       61.615        0.831      348.698       28.584      856.307
08/24/2014  16:16:00       24.264      100.661      110.123       52.446       62.786       39.938     2750.557     3942.081     1595.028        1.557        0.414      103.544       35.832        0.120      348.594       28.404      856.312
08/24/2014  16:17:00       40.188       87.768       -4.828       49.668       54.819       44.409     2466.930     3005.141     1972.180        0.839        0.372       96.532       36.271        0.141      348.554       28.334      856.322
08/24/2014  16:18:00       80.786      115.758        1.942       68.662       74.579       49.307     4714.459     5561.984     2431.196        1.632        0.635      141.160       43.255        0.094      348.468       28.185      856.302
08/24/2014  16:19:00      192.014      134.155       19.879       99.935       72.470       51.985     9987.060     5251.853     2702.458        3.660        0.897      234.237       33.539        0.021      348.312       27.913      856.276
08/24/2014  16:20:00       78.138      119.158      125.077       91.094       82.736       77.093     8298.099     6845.218     5943.389        2.851        1.054      142.493       59.967        0.177      348.243       27.795      856.252
08/24/2014  16:21:00       67.200       15.302       73.034       74.200       84.627       52.327     5505.689     7161.669     2738.126        1.274        0.770       68.920       45.302        0.432      348.296       27.888      856.224
08/24/2014  16:22:00       99.476      -73.579       32.312       73.246      121.468       68.686     5365.046    14754.483     4717.736        2.059        1.242      123.731       82.902        0.449      348.351       27.981      856.202
08/24/2014  16:23:00       93.567      -65.194        7.389       69.741      117.723       47.709     4863.849    13858.683     2276.166        1.703        1.050      114.040       48.658        0.182      348.392       28.051      856.194
08/24/2014  16:24:00        0.532       36.006       59.518       35.569       47.926       37.658     1265.130     2296.922     1418.128        0.491        0.249       36.010       32.137        0.796      348.455       28.163      856.202
08/24/2014  16:25:00       27.884       49.467       56.336       50.118       37.711       37.002     2511.846     1422.143     1369.155        0.585        0.265       56.785       35.157        0.383      348.232       27.778      856.202
08/24/2014  16:26:00       86.013       49.235        3.928       23.710       25.129       18.779      562.144      631.481      352.649        0.569        0.077       99.107       10.308        0.011      348.238       27.788      856.188
08/24/2014  16:27:00       52.408       22.860       17.574       36.577       30.707       22.325     1337.866      942.931      498.410        0.318        0.139       57.176       20.579        0.130      348.328       27.944      856.177
08/24/2014  16:28:00       10.105        5.317       40.149       25.611       55.857       32.975      655.939     3119.949     1087.342        0.330        0.243       11.419       36.140       10.017      348.409       28.084      856.166
08/24/2014  16:29:00       24.851        2.049       41.863       39.466       51.103       34.960     1557.565     2611.496     1222.205        0.388        0.270       24.936       38.648        2.402      348.455       28.164      856.156
08/24/2014  16:30:00       13.718        2.151       20.408       27.484       32.630       20.173      755.350     1064.714      406.955        0.142        0.111       13.886       14.533        1.095      348.395       28.060      856.146
08/24/2014  16:31:00       19.280        6.016       20.913       39.383       32.445       26.189     1551.047     1052.674      685.885        0.207        0.164       20.196       27.837        1.900      348.329       27.945      856.138
08/24/2014  16:32:00        5.359       34.624       49.458       17.820       25.571       18.163      317.567      653.900      329.892        0.249        0.065       35.036       16.111        0.211      348.404       28.075      856.126
08/24/2014  16:33:00       31.310       28.825       46.702       26.367       32.949       17.960      695.194     1085.649      322.551        0.305        0.105       42.558       15.409        0.131      348.381       28.035      856.117
08/24/2014  16:34:00      -23.792       -9.549        3.115       19.694       23.858       20.577      387.839      569.225      423.421        0.102        0.069       25.637       17.319        0.456      348.429       28.119      856.103
08/24/2014  16:35:00      -32.766        0.028       15.592       26.411       15.481       13.879      697.549      239.665      192.639        0.122        0.056       32.766       14.031        0.183      348.575       28.371      856.101
08/24/2014  16:36:00       35.679       29.072        9.619       35.791       22.750       17.559     1281.014      517.559      308.305        0.216        0.105       46.024       10.454        0.052      348.367       28.012      856.087
08/24/2014  16:37:00      -17.329       43.132      -14.520       21.326       21.086        9.276      454.805      444.622       86.045        0.168        0.049       46.483        7.967        0.029      348.250       27.808      856.073
08/24/2014  16:38:00      -55.015        9.084       -9.095       18.867       20.721       15.216      355.951      429.350      231.533        0.210        0.051       55.760       10.583        0.036      348.338       27.961      856.062
08/24/2014  16:39:00      -62.640        6.044        2.127       28.417       16.412       14.244      807.507      269.355      202.893        0.262        0.064       62.930       13.411        0.045      348.496       28.235      856.049
08/24/2014  16:40:00      -18.933       -1.648        0.520       17.641       16.107       15.262      311.205      259.422      232.936        0.058        0.040       19.004       12.757        0.451      348.636       28.477      856.034
08/24/2014  16:41:00        3.530       14.672        6.239       25.958       27.134       19.815      673.841      736.247      392.638        0.103        0.090       15.091       15.547        1.061      348.550       28.327      856.022
08/24/2014  16:42:00       37.830       59.608        3.416       31.338       41.529       25.418      982.061     1724.643      646.095        0.417        0.168       70.599       25.009        0.125      348.438       28.133      856.010
08/24/2014  16:43:00       46.200      174.146      -11.083       46.385      146.988       54.785     2151.560    21605.352     3001.388        2.967        1.338      180.170       74.796        0.172      348.451       28.156      856.005
08/24/2014  16:44:00       -3.815      215.551      -37.616       36.116       54.248       27.732     1304.360     2942.855      769.068        2.645        0.251      215.584       20.872        0.009      348.415       28.091      856.008
08/24/2014  16:45:00        4.230      140.015       -7.081       52.810       71.106       42.269     2788.900     5056.013     1786.665        1.465        0.482      140.079       37.367        0.071      348.529       28.291      855.994
08/24/2014  16:46:00      -91.168      133.298      -20.922      111.867       71.226       50.216    12514.272     5073.145     2521.612        2.331        1.005      161.493       39.593        0.060      348.641       28.484      855.996
08/24/2014  16:47:00     -121.721      110.587      -16.631       59.686       57.321       44.326     3562.381     3285.747     1964.815        1.807        0.441      164.455       42.376        0.066      348.775       28.716      855.993
08/24/2014  16:48:00     -117.596       68.918      -27.726       40.448       51.035       29.214     1636.018     2604.609      853.483        1.222        0.255      136.303       27.184        0.040      348.577       28.375      855.979
08/24/2014  16:49:00      -99.748       34.099      -22.698       52.683       45.644       26.587     2775.485     2083.388      706.893        0.860        0.278      105.415       19.320        0.034      348.551       28.328      855.945
08/24/2014  16:50:00      -99.661      107.240      -15.482       57.782      102.044       43.450     3338.745    10412.954     1887.863        1.865        0.782      146.399       48.788        0.111      348.556       28.337      855.918
08/24/2014  16:51:00       30.113      264.711      -29.825       69.723      118.679       54.802     4861.362    14084.800     3003.222        4.690        1.097      266.419       62.444        0.055      348.550       28.323      855.929
08/24/2014  16:52:00       -8.684      218.242      -34.727       36.172       78.604       30.061     1308.427     6178.548      903.682        2.865        0.420      218.415       34.973        0.026      348.426       28.110      855.946
08/24/2014  16:53:00       13.628      175.930      -27.039       36.828       47.963       28.654     1356.299     2300.435      821.065        1.817        0.224      176.457       26.743        0.023      348.422       28.104      855.951
08/24/2014  16:54:00       -0.782      153.169       -8.012       52.646       73.860       39.226     2771.619     5455.295     1538.666        1.664        0.488      153.171       46.010        0.090      348.482       28.208      855.955
08/24/2014  16:55:00       -9.933      113.298      -12.761       43.740       68.275       25.221     1913.162     4661.434      636.090        1.015        0.361      113.732       30.772        0.073      348.538       28.307      855.944
08/24/2014  16:56:00       30.975      216.343      -32.731       56.023       87.335       45.001     3138.614     7627.459     2025.127        3.081        0.640      218.549       49.335        0.051      348.450       28.152      855.945
08/24/2014  16:57:00       13.139      127.235      -17.596       74.372       44.195       30.524     5531.122     1953.213      931.714        1.254        0.421      127.911       24.685        0.037      348.499       28.238      855.941
08/24/2014  16:58:00      -54.014      115.891      -23.591       66.359       39.598       36.624     4403.514     1568.027     1341.345        1.211        0.366      127.860       21.061        0.027      348.635       28.473      855.936
08/24/2014  16:59:00       12.063       75.614       17.151       44.097       81.112       45.769     1944.529     6579.206     2094.792        0.839        0.531       76.570       49.086        0.411      348.656       28.510      855.937
08/24/2014  17:00:00      -35.785      164.217      -21.940       44.906       56.939       30.108     2016.509     3242.090      906.471        1.745        0.308      168.071        9.869        0.003      348.468       28.184      855.937
08/24/2014  17:01:00      -61.837       -8.901       -0.029       74.566       38.808       43.598     5560.028     1506.069     1900.825        0.643        0.448       62.475       48.107        0.593      348.892       28.920      855.906
08/24/2014  17:02:00      -23.870       -9.377       -7.190       39.523       54.707       19.394     1562.066     2992.859      376.116        0.282        0.247       25.646       15.516        0.366      348.790       28.743      855.897
08/24/2014  17:03:00      -32.132      -67.676       -6.713       35.935       26.812       19.787     1291.353      718.865      391.525        0.403        0.120       74.917       18.488        0.061      348.740       28.657      855.879
08/24/2014  17:04:00      -38.293       25.704      -15.715       31.917       56.511       24.412     1018.689     3193.441      595.938        0.359        0.240       46.120       26.217        0.323      348.772       28.711      855.869
08/24/2014  17:05:00      -38.033       85.112       -5.733       92.689       98.081       45.242     8591.267     9619.907     2046.825        1.449        1.013       93.223       47.733        0.262      348.886       28.908      855.858
08/24/2014  17:06:00      -60.969      127.617      -16.006       68.875       58.680       34.521     4743.735     3443.321     1191.684        1.482        0.469      141.433       31.873        0.051      348.674       28.541      855.863
08/24/2014  17:07:00      -52.574       78.969       -8.042       45.572       73.706       32.230     2076.816     5432.560     1038.799        0.880        0.427       94.869       26.792        0.080      348.740       28.658      855.855
08/24/2014  17:08:00     -201.908      -58.881        3.765       63.394       72.433       37.547     4018.744     5246.601     1409.744        2.746        0.534      210.318       31.126        0.022      348.747       28.664      855.850
08/24/2014  17:09:00      -27.639      -14.398       13.232       61.219       54.545       30.285     3747.725     2975.189      917.203        0.439        0.382       31.165       29.742        0.911      348.729       28.638      855.851
08/24/2014  17:10:00      -47.538       99.277      -11.965       59.377       60.317       30.319     3525.598     3638.085      919.269        1.017        0.404      110.072       34.898        0.101      348.724       28.628      855.848
08/24/2014  17:11:00      -21.670      200.291      -20.448       28.700       45.923       21.228      823.712     2108.940      450.614        2.219        0.169      201.460       19.816        0.010      348.349       27.979      855.847
08/24/2014  17:12:00      -41.856      162.619      -21.588       60.178      101.289       35.591     3621.385    10259.554     1266.720        2.190        0.757      167.919       49.429        0.087      348.421       28.103      855.840
08/24/2014  17:13:00     -104.265      243.787      -18.172       64.578      112.271       42.037     4170.374    12604.698     1767.102        4.458        0.927      265.147       46.112        0.030      348.534       28.299      855.843
08/24/2014  17:14:00      -47.515       54.107       -5.920       35.001       61.970       37.613     1225.040     3840.230     1414.731        0.585        0.324       72.009       17.978        0.062      348.722       28.625      855.849
08/24/2014  17:15:00      -15.249       74.235       -8.171       25.625       41.164       23.828      656.620     1694.449      567.784        0.436        0.146       75.785       20.489        0.073      348.657       28.512      855.841
08/24/2014  17:16:00      -23.936       51.490       -5.871       21.837       43.802       15.557      476.872     1918.633      242.027        0.295        0.132       56.781        3.810        0.005      348.827       28.809      855.831
08/24/2014  17:17:00       13.363      106.643        0.622       34.908       67.221       37.888     1218.539     4518.723     1435.498        0.936        0.359      107.477       36.915        0.118      348.627       28.461      855.832
08/24/2014  17:18:00       55.584       95.401        8.985       66.229       50.935       37.468     4386.234     2594.388     1403.874        1.033        0.419      110.412       30.671        0.077      348.556       28.337      855.819
08/24/2014  17:19:00       17.156      137.390       -8.127       59.978      133.001       39.529     3597.365    17689.269     1562.570        2.104        1.142      138.457       58.959        0.181      348.702       28.589      855.793
08/24/2014  17:20:00       92.409       60.311       20.250       84.744       68.454       48.940     7181.477     4686.007     2395.080        1.342        0.713      110.348       33.985        0.095      348.709       28.602      855.780
08/24/2014  17:21:00       54.849        1.326       81.361       55.693      140.464       65.985     3101.721    19730.135     4354.020        1.840        1.359       54.865       83.424        2.312      348.890       28.914      855.733
08/24/2014  17:22:00      105.610     -227.672      -23.232       66.242       54.210       49.387     4387.938     2938.753     2439.118        3.664        0.488      250.974       36.574        0.021      348.880       28.895      855.717
08/24/2014  17:23:00       -7.771     -147.289       -1.222      104.544       63.583       53.265    10929.530     4042.785     2837.135        1.978        0.890      147.494       33.964        0.053      349.014       29.128      855.745
08/24/2014  17:24:00      -59.243     -151.939      -13.192       54.353       60.596       38.316     2954.232     3671.864     1468.100        1.743        0.405      163.081       31.077        0.036      348.567       28.356      855.778
08/24/2014  17:25:00      -20.176      -24.893       12.525       37.774       43.371       30.914     1426.863     1881.062      955.650        0.272        0.213       32.043       29.952        0.874      349.142       29.353      855.776
08/24/2014  17:26:00      -30.981       12.155        8.165       43.229       27.433       23.424     1868.732      752.548      548.691        0.217        0.158       33.280       19.793        0.354      349.190       29.436      855.777
08/24/2014  17:27:00     -183.070      -86.287       -6.795       82.239       92.661       45.394     6763.281     8585.984     2060.616        2.920        0.870      202.386       38.097        0.035      348.780       28.724      855.773
08/24/2014  17:28:00     -196.682     -126.312        5.397       88.515       75.786       52.510     7834.838     5743.489     2757.273        3.550        0.817      233.749       54.902        0.055      348.614       28.436      855.774
08/24/2014  17:29:00     -125.180      -21.968       -0.650       56.710       46.346       29.455     3216.046     2147.996      867.623        1.119        0.312      127.093       23.315        0.034      348.746       28.666      855.785
08/24/2014  17:30:00      -75.281       11.292       -3.515       40.797       48.867       29.656     1664.401     2387.984      879.475        0.537        0.247       76.124       21.906        0.083      348.678       28.549      855.766
08/24/2014  17:31:00      -57.945        7.049        2.941       69.270       40.586       23.573     4798.306     1647.228      555.682        0.521        0.350       58.372       25.060        0.184      348.805       28.769      855.755
08/24/2014  17:32:00     -174.523      -48.376       -0.610       66.871       50.689       27.274     4471.779     2569.359      743.884        2.029        0.389      181.104       30.623        0.029      348.677       28.544      855.755
08/24/2014  17:33:00      -92.238      -48.746        8.359       60.643       60.717       26.403     3677.589     3686.592      697.130        0.951        0.403      104.327       19.983        0.037      348.940       29.003      855.746
08/24/2014  17:34:00      -36.272      -39.807       22.644       60.245       62.989       25.661     3629.425     3967.586      658.487        0.583        0.413       53.854       25.502        0.224      348.908       28.946      855.737
08/24/2014  17:35:00      -49.749       45.848        2.867       42.351       34.531       27.181     1793.588     1192.420      738.800        0.415        0.186       67.654       23.280        0.118      348.838       28.825      855.731
08/24/2014  17:36:00      -55.828       -5.618        9.234       60.929       42.422       27.465     3712.355     1799.617      754.304        0.475        0.313       56.110       31.750        0.320      348.956       29.031      855.724
08/24/2014  17:37:00     -102.548        5.964      -11.418       29.051       23.757       16.395      843.950      564.388      268.802        0.618        0.084      102.721       12.451        0.015      348.673       28.541      855.698
08/24/2014  17:38:00      -14.129      -20.725        0.247       37.192       23.783       19.057     1383.266      565.652      363.183        0.147        0.116       25.083       15.532        0.383      349.003       29.111      855.698
08/24/2014  17:39:00      -89.343      -52.421       10.478       48.817       55.010       31.001     2383.137     3026.084      961.035        0.860        0.319      103.586       28.000        0.073      348.843       28.835      855.699
08/24/2014  17:40:00      -20.973      -19.279       13.461       27.032       36.802       24.047      730.726     1354.372      578.238        0.183        0.133       28.488       22.100        0.602      348.958       29.032      855.684
08/24/2014  17:41:00      -81.978      -58.033      -10.942       74.648       62.077       32.678     5572.257     3853.498     1067.829        1.035        0.525      100.440       26.131        0.068      349.044       29.183      855.684
08/24/2014  17:42:00     -113.279      -85.245        6.315       75.193       58.303       40.172     5653.987     3399.222     1613.812        1.540        0.533      141.770       30.861        0.047      348.699       28.586      855.686
08/24/2014  17:43:00      -98.359      -53.522       10.240       60.915       47.703       31.548     3710.649     2275.593      995.248        0.981        0.349      111.978       26.793        0.057      348.776       28.719      855.676
08/24/2014  17:44:00     -150.518      -99.168        2.308       63.414       64.740       40.081     4021.332     4191.310     1606.458        2.116        0.491      180.250       33.943        0.035      348.650       28.500      855.681
08/24/2014  17:45:00      -48.688      -63.317       15.118       62.393       51.969       32.828     3892.842     2700.821     1077.649        0.714        0.384       79.872       37.158        0.216      348.707       28.600      855.678
08/24/2014  17:46:00     -152.579      -95.297        4.319       73.462       47.289       27.663     5396.649     2236.281      765.251        2.039        0.420      179.894       34.093        0.036      348.538       28.305      855.677
08/24/2014  17:47:00     -141.301      -64.807        0.125       52.099       43.429       31.462     2714.261     1886.043      989.868        1.488        0.280      155.454       30.587        0.039      348.458       28.168      855.682
08/24/2014  17:48:00      -44.520      -51.969        9.401       84.282       42.464       24.881     7103.471     1803.227      619.046        0.715        0.476       68.432       34.486        0.254      348.590       28.397      855.679
08/24/2014  17:49:00      -50.638      -67.876        7.073       47.302       39.149       27.524     2237.526     1532.616      757.595        0.587        0.226       84.684       20.781        0.060      348.579       28.379      855.685
08/24/2014  17:50:00      -43.595     -116.767        5.480       61.813       68.573       36.597     3820.819     4702.312     1339.305        1.271        0.493      124.640       35.388        0.081      348.658       28.514      855.702
08/24/2014  17:51:00      -82.675     -117.740       -8.493       71.007       65.259       36.315     5042.025     4258.685     1318.800        1.569        0.531      143.867       35.501        0.061      348.604       28.420      855.689
08/24/2014  17:52:00      -58.685     -105.910       -6.424       59.565       60.252       40.322     3548.033     3630.344     1625.903        1.175        0.440      121.083       25.737        0.045      348.597       28.409      855.693
08/24/2014  17:53:00      -92.794     -105.850        2.232       73.152       71.648       37.081     5351.206     5133.392     1374.979        1.584        0.593      140.765       44.483        0.100      348.542       28.312      855.697
08/24/2014  17:54:00      -76.525      -81.116      -14.149       79.115       55.917       38.272     6259.168     3126.704     1464.734        1.174        0.543      111.516       27.773        0.062      348.571       28.364      855.685
08/24/2014  17:55:00     -122.563      -86.889        9.966       88.132       49.184       46.425     7767.194     2419.064     2155.246        1.750        0.617      150.237       49.292        0.108      348.665       28.525      855.683
08/24/2014  17:56:00      -81.097     -116.812        6.071       75.206       56.276       39.394     5655.890     3166.991     1551.895        1.531        0.519      142.203       30.876        0.047      348.573       28.366      855.690
08/24/2014  17:57:00     -112.607     -114.384       -4.875       83.091       55.649       38.317     6904.104     3096.798     1468.194        1.863        0.573      160.512       42.165        0.069      348.630       28.466      855.700
08/24/2014  17:58:00      -84.946     -217.093       17.141       65.001       67.800       36.392     4225.080     4596.827     1324.387        3.239        0.507      233.121       25.918        0.012      348.583       28.381      855.697
08/24/2014  17:59:00     -104.437      -95.431       -1.605      100.111       49.418       35.943    10022.205     2442.124     1291.875        1.688        0.688      141.472       29.984        0.045      348.623       28.453      855.694
08/24/2014  18:00:00     -134.257     -168.272       -4.529       80.973      104.431       35.612     6556.589    10905.872     1268.248        3.254        0.937      215.268       37.460        0.030      348.539       28.306      855.705
08/24/2014  18:01:00     -141.529     -203.055      -13.331       67.752       82.434       40.116     4590.283     6795.425     1609.292        3.721        0.650      247.511       34.954        0.020      348.451       28.153      855.701
08/24/2014  18:02:00      -90.978      -88.511       -6.218       75.289       85.856       40.805     5668.405     7371.198     1665.016        1.542        0.735      126.930       54.199        0.182      348.641       28.485      855.710
08/24/2014  18:03:00      -16.221      -50.527        2.801       69.095       59.686       38.984     4774.135     3562.457     1519.724        0.634        0.493       53.067       24.787        0.218      348.785       28.733      855.707
08/24/2014  18:04:00      -78.286      -89.855       -5.227       54.819       46.372       31.279     3005.173     2150.318      978.354        1.018        0.307      119.175       22.570        0.036      348.572       28.365      855.706
08/24/2014  18:05:00      -93.493      -60.842        0.940       61.075       38.743       27.719     3730.160     1501.002      768.316        0.922        0.300      111.547       23.916        0.046      348.562       28.348      855.694
08/24/2014  18:06:00      -64.434      -23.654        5.270       43.357       40.246       26.436     1879.841     1619.774      698.884        0.447        0.210       68.638       24.758        0.130      348.593       28.403      855.689
08/24/2014  18:07:00      -40.254      -32.601        9.408       67.249       50.857       34.736     4522.429     2586.434     1206.567        0.554        0.416       51.800       28.830        0.310      348.551       28.330      855.696
08/24/2014  18:08:00     -127.902     -114.811      -15.172       52.874       54.436       38.913     2795.680     2963.230     1514.220        1.852        0.364      171.873       23.960        0.019      348.538       28.306      855.704
08/24/2014  18:09:00     -132.178     -119.333      -13.702       49.483       91.683       28.700     2448.539     8405.769      823.675        2.179        0.584      178.077       19.171        0.012      348.547       28.321      855.722
08/24/2014  18:10:00     -132.697     -106.697       -1.568       70.744       80.057       32.520     5004.713     6409.186     1057.552        2.073        0.624      170.273       36.066        0.045      348.600       28.413      855.746
08/24/2014  18:11:00     -192.836      -85.350       -5.098      119.905       66.721       43.155    14377.090     4451.692     1862.363        3.259        1.035      210.880       54.900        0.068      348.592       28.397      855.770
08/24/2014  18:12:00     -161.565      -87.082       -3.359      105.065       70.733       30.919    11038.560     5003.106      955.973        2.534        0.850      183.539       34.216        0.035      348.481       28.206      855.779
08/24/2014  18:13:00      -64.815      -33.414       21.447       94.896       54.155       29.957     9005.189     2932.760      897.443        0.930        0.642       72.921       30.347        0.173      348.746       28.667      855.775
08/24/2014  18:14:00     -106.255     -158.489       -9.135       73.441       85.244       35.069     5393.518     7266.579     1229.870        2.519        0.694      190.811       30.205        0.025      348.489       28.220      855.773
08/24/2014  18:15:00     -176.918     -182.200       -4.879       78.142       66.620       43.214     6106.168     4438.284     1867.456        3.846        0.621      253.962       36.488        0.021      348.489       28.218      855.754
08/24/2014  18:16:00     -154.384     -146.919       -6.524      101.959      102.946       45.387    10395.639    10597.922     2060.014        3.425        1.153      213.119       50.029        0.055      348.577       28.372      855.761
08/24/2014  18:17:00     -136.885     -144.727        2.018       96.802      105.314       40.799     9370.685    11090.976     1664.529        3.090        1.106      199.207       35.069        0.031      348.607       28.424      855.768
08/24/2014  18:18:00     -133.199     -151.044       -3.227       89.558      109.658       49.488     8020.660    12024.852     2449.081        3.153        1.125      201.386       52.035        0.067      348.579       28.377      855.771
08/24/2014  18:19:00     -223.472      -90.208        6.762      101.904       92.196       50.918    10384.419     8500.170     2592.674        3.980        1.074      240.992       46.193        0.037      348.632       28.466      855.785
08/24/2014  18:20:00     -312.006     -186.247      -14.618      130.899      105.142       71.001    17134.419    11054.884     5041.167        8.273        1.662      363.367       68.116        0.035      348.427       28.111      855.776
08/24/2014  18:21:00     -296.051     -213.045        1.850      212.769      150.997      100.070    45270.840    22799.983    10014.054       10.555        3.904      364.739      116.484        0.102      348.454       28.158      855.760
08/24/2014  18:22:00     -174.518     -176.413       14.690      146.512      149.938       68.887    21465.845    22481.474     4745.472        5.523        2.435      248.149       64.826        0.068      348.498       28.235      855.747
08/24/2014  18:23:00     -243.203      -45.402        0.544      112.914      103.832       58.759    12749.646    10781.047     3452.587        4.409        1.349      247.404       49.329        0.040      348.589       28.392      855.750
08/24/2014  18:24:00     -242.295     -131.575        5.723      141.420      117.219       61.812    19999.681    13740.268     3820.709        5.680        1.878      275.715       71.841        0.068      348.577       28.373      855.756
08/24/2014  18:25:00     -274.186     -132.602        6.292      120.662      108.443       71.132    14559.290    11759.955     5059.759        6.208        1.569      304.567       71.204        0.055      348.565       28.349      855.779
08/24/2014  18:26:00     -188.340     -152.461       13.452      155.966      101.195       63.646    24325.482    10240.444     4050.759        4.875        1.931      242.314       77.278        0.102      348.643       28.485      855.766
08/24/2014  18:27:00     -263.862     -146.533        8.730      209.518      115.910       76.982    43897.972    13435.166     5926.274        7.720        3.163      301.820       98.629        0.107      348.626       28.457      855.765
08/24/2014  18:28:00     -475.528     -272.650       -6.908      208.116      157.701       86.334    43312.470    24869.706     7453.579       18.806        3.782      548.147      100.641        0.034      348.355       27.987      855.743
08/24/2014  18:29:00     -310.818     -120.943        6.378      174.941      120.238       79.545    30604.250    14457.180     6327.361        8.132        2.569      333.519       78.021        0.055      348.395       28.055      855.766
08/24/2014  18:30:00     -239.669     -174.432        8.528      152.140      124.862       86.455    23146.702    15590.639     7474.509        6.707        2.311      296.425       99.872        0.114      348.465       28.176      855.782
08/24/2014  18:31:00     -220.581       17.650       11.122      145.380      137.096       69.565    21135.240    18795.319     4839.240        4.692        2.238      221.286       68.237        0.095      348.454       28.160      855.806
08/24/2014  18:32:00     -444.633     -185.721       -8.159      211.235      177.100       97.845    44620.290    31364.334     9573.676       15.889        4.278      481.861      105.472        0.048      348.354       27.986      855.815
08/24/2014  18:33:00     -384.721      -91.299       -6.633      227.951      144.744       94.455    51961.647    20950.909     8921.755       11.910        4.092      395.406      105.046        0.071      348.246       27.799      855.836
08/24/2014  18:34:00     -281.071     -143.848       -5.996      136.846      142.569       74.364    18726.744    20325.904     5529.985        7.215        2.229      315.742       51.784        0.027      348.274       27.846      855.847
08/24/2014  18:35:00     -315.962      -95.519      -12.466      189.669      117.651       84.068    35974.156    13841.734     7067.385        8.299        2.844      330.085       97.431        0.087      348.292       27.878      855.859
08/24/2014  18:36:00     -259.738     -169.150       10.005      205.013      134.458       74.962    42030.193    18078.833     5619.369        8.094        3.286      309.960       86.663        0.078      348.259       27.821      855.869
08/24/2014  18:37:00     -212.882     -102.198       22.189      212.701      167.090      101.659    45241.870    27919.216    10334.465        6.986        4.175      236.143      116.926        0.245      348.305       27.901      855.860
08/24/2014  18:38:00     -534.376     -238.569      -35.799      262.475      205.274       96.500    68893.048    42137.448     9312.182       23.202        6.017      585.212       95.156        0.026      348.088       27.524      855.856
08/24/2014  18:39:00     -265.485      -77.950       -5.332      136.680      108.818       62.615    18681.530    11841.447     3920.667        5.551        1.722      276.693       66.149        0.057      348.205       27.728      855.865
08/24/2014  18:40:00     -421.732     -109.643       -6.072      198.238      120.871       68.166    39298.445    14609.820     4646.643       12.422        2.928      435.752       78.225        0.032      348.162       27.653      855.849
08/24/2014  18:41:00     -402.126      -81.699       -4.622      173.941      148.016       87.189    30255.442    21908.774     7601.850       11.407        2.988      410.342       84.954        0.043      348.111       27.565      855.847
08/24/2014  18:42:00     -364.781      -93.302      -11.193      174.782      139.775       74.893    30548.678    19536.959     5608.943        9.878        2.785      376.524       90.984        0.058      348.140       27.616      855.856
08/24/2014  18:43:00     -251.744     -142.146        2.185      181.369      128.867       66.902    32894.606    16606.749     4475.853        6.877        2.699      289.103       73.200        0.064      348.137       27.610      855.881
08/24/2014  18:44:00     -413.748     -234.975       -5.038      206.001      152.547       91.211    42436.529    23270.655     8319.369       15.021        3.701      475.815      101.525        0.046      348.038       27.438      855.852
08/24/2014  18:45:00     -311.414     -180.648       -5.899      191.254      120.080       84.416    36578.023    14419.277     7126.076        9.387        2.906      360.017      105.868        0.086      348.069       27.493      855.857
08/24/2014  18:46:00     -209.586     -120.772       10.865      163.546      131.016       83.948    26747.301    17165.118     7047.183        5.478        2.548      241.893       91.435        0.143      348.089       27.529      855.881
08/24/2014  18:47:00     -289.728     -175.401       15.526      214.519      133.659       91.074    46018.340    17864.697     8294.391        9.355        3.609      338.686      105.823        0.098      348.036       27.435      855.877
08/24/2014  18:48:00     -268.601     -165.659        6.031      187.714      135.909       84.712    35236.671    18471.356     7176.162        8.024        3.044      315.578       99.805        0.100      347.985       27.349      855.883
08/24/2014  18:49:00     -204.631      -21.615       11.606      194.950      101.697       66.419    38005.330    10342.335     4411.521        4.761        2.638      205.769       86.607        0.177      348.032       27.429      855.890
08/24/2014  18:50:00     -279.207     -193.170       -6.716      173.936      160.589       82.845    30253.860    25788.861     6863.323        8.910        3.145      339.516       78.294        0.053      347.959       27.303      855.888
08/24/2014  18:51:00     -278.087     -197.934       -8.956      146.605      106.872       74.217    21492.886    11421.722     5508.224        7.750        1.921      341.336       82.552        0.058      347.907       27.213      855.894
08/24/2014  18:52:00     -363.019     -104.894      -17.598      285.198      137.595       79.492    81337.915    18932.314     6318.911       12.482        5.329      377.870      111.094        0.086      347.924       27.243      855.892
08/24/2014  18:53:00     -285.377     -115.561        2.551      195.195      177.399       87.658    38101.079    31470.283     7683.942        8.601        3.863      307.887       98.849        0.103      347.854       27.122      855.892
08/24/2014  18:54:00     -320.251     -234.222       13.224      220.788      151.282       93.792    48747.492    22886.189     8796.969       11.900        4.022      396.763      113.383        0.082      347.832       27.084      855.905
08/24/2014  18:55:00     -326.603     -265.586       -2.000      217.878      198.778      104.466    47470.800    39512.547    10913.108       13.753        4.895      420.958      127.000        0.091      347.761       26.961      855.916
08/24/2014  18:56:00     -536.604     -158.155      -33.272      205.535      198.692       83.777    42244.681    39478.648     7018.624       20.139        4.437      559.425       74.096        0.018      347.729       26.906      855.936
08/24/2014  18:57:00     -539.975     -121.611      -13.567      246.768      200.058      114.271    60894.652    40023.046    13057.795       21.024        5.699      553.500      134.996        0.059      347.688       26.834      855.941
08/24/2014  18:58:00     -223.320     -118.188       -8.485      114.708      126.744       71.471    13157.998    16064.043     5108.076        4.911        1.717      252.666       63.713        0.064      347.760       26.960      855.973
08/24/2014  18:59:00     -260.553      -41.300       -6.451      165.115      123.199       74.782    27262.996    15177.983     5592.277        5.882        2.402      263.805       76.908        0.085      347.758       26.958      855.992
08/24/2014  19:00:00     -301.727      -50.044      -18.367      212.187      129.110       92.799    45023.170    16669.414     8611.594        8.208        3.515      305.849       96.651        0.100      347.727       26.902      855.995
08/24/2014  19:01:00     -297.709      -34.397       -9.163      159.961      169.597       79.653    25587.669    28763.269     6344.640        7.528        3.035      299.689       63.767        0.045      347.717       26.884      856.008
08/24/2014  19:02:00     -293.107     -148.493        8.443      180.617      144.178       83.328    32622.465    20787.382     6943.579        8.418        3.018      328.576       86.833        0.070      347.666       26.800      856.024
08/24/2014  19:03:00     -368.926     -101.495       -1.678      209.325      126.434       82.784    43816.978    15985.460     6853.197       10.652        3.333      382.633       99.233        0.067      347.623       26.724      856.031
08/24/2014  19:04:00     -387.189      -44.343      -20.501      185.866      150.045       69.033    34546.046    22513.620     4765.616       10.705        3.091      389.720       72.583        0.035      347.598       26.680      856.057
08/24/2014  19:05:00     -447.879      -21.112        5.985      249.127      165.738       84.517    62064.361    27468.953     7143.119       14.886        4.834      448.376       81.099        0.033      347.566       26.626      856.055
08/24/2014  19:06:00     -505.877     -226.115      -22.772      242.192      164.542      103.107    58657.135    27074.100    10631.130       20.194        4.818      554.111      102.474        0.034      347.500       26.510      856.058
08/24/2014  19:07:00     -364.058     -135.984       -6.360      221.832      119.480       87.742    49209.389    14275.361     7698.708       11.111        3.559      388.626      107.459        0.076      347.517       26.539      856.064
08/24/2014  19:08:00     -517.254     -105.999      -30.072      177.111      129.692       78.977    31368.315    16820.016     6237.395       16.705        2.721      528.004       68.263        0.017      347.493       26.497      856.075
08/24/2014  19:09:00     -253.627      -32.842       10.073      190.237      106.550       81.746    36190.270    11352.899     6682.489        5.986        2.711      255.744       93.599        0.134      347.524       26.552      856.080
08/24/2014  19:10:00     -544.732     -119.918      -28.636      237.113      168.248       94.205    56222.461    28307.418     8874.525       20.265        4.670      557.775      118.576        0.045      347.444       26.412      856.086
08/24/2014  19:11:00     -332.510     -129.424        1.522      158.963      131.904       77.696    25269.359    17398.724     6036.726        8.800        2.435      356.810       78.946        0.049      347.443       26.412      856.105
08/24/2014  19:12:00     -347.932     -157.341      -16.527      157.893      117.694       73.409    24930.183    13851.863     5388.888        9.512        2.209      381.854       67.706        0.031      347.422       26.377      856.103
08/24/2014  19:13:00     -485.711     -132.183       -6.840      179.169      153.055       85.662    32101.702    23425.765     7338.056       15.814        3.143      503.377       89.056        0.031      347.393       26.326      856.103
08/24/2014  19:14:00     -479.282     -101.573      -24.079      244.746      168.863       72.177    59900.516    28514.696     5209.589       16.710        4.681      489.927       79.624        0.026      347.377       26.299      856.109
08/24/2014  19:15:00     -392.339     -141.069      -16.789      180.607      147.327       79.901    32618.818    21705.367     6384.200       11.740        3.035      416.930       84.668        0.041      347.366       26.280      856.121
08/24/2014  19:16:00     -513.696     -108.390      -27.318      238.212      145.427       92.176    56744.745    21149.148     8496.427       18.137        4.320      525.007      109.873        0.044      347.338       26.231      856.124
08/24/2014  19:17:00     -532.582     -107.861      -27.687      139.936      160.878       87.247    19582.126    25881.663     7611.957       17.455        2.654      543.394       88.028        0.026      347.330       26.217      856.139
08/24/2014  19:18:00     -545.238     -133.860      -23.694      201.473      161.563       91.339    40591.413    26102.539     8342.752       19.539        3.752      561.429       88.686        0.025      347.309       26.179      856.146
08/24/2014  19:19:00     -364.987      -88.829      -11.593      162.477      137.634       78.013    26398.934    18943.026     6086.001        9.632        2.571      375.641       84.654        0.051      347.306       26.176      856.160
08/24/2014  19:20:00     -322.301      -68.615       -0.563      191.924      134.891       70.712    36834.945    18195.516     5000.137        8.430        3.002      329.523       93.427        0.080      347.277       26.127      856.163
08/24/2014  19:21:00     -198.837      -73.296       -1.499      134.997      117.957       63.791    18224.204    13913.739     4069.326        4.055        1.810      211.917       67.596        0.102      347.277       26.127      856.163
08/24/2014  19:22:00     -281.938      -93.354       -5.296      194.365      134.587       79.070    37777.572    18113.664     6252.111        7.518        3.107      296.992       99.531        0.112      347.302       26.168      856.160
08/24/2014  19:23:00     -409.552      -51.709      -18.488      167.006      138.159       74.606    27890.935    19087.889     5566.081       11.164        2.627      412.803       89.198        0.047      347.261       26.097      856.162
08/24/2014  19:24:00     -385.692     -111.628      -22.044      134.871      117.358       61.564    18190.282    13772.935     3790.081        9.872        1.788      401.520       57.509        0.021      347.242       26.065      856.167
08/24/2014  19:25:00     -426.055     -122.224       -6.478      167.236      138.214       77.931    27967.986    19103.034     6073.181       12.481        2.657      443.240       72.658        0.027      347.219       26.026      856.164
08/24/2014  19:26:00     -347.811     -162.302       -9.378      183.382      176.919       79.732    33628.781    31300.232     6357.162       10.933        3.564      383.815       82.562        0.046      347.207       26.007      856.155
08/24/2014  19:27:00     -236.302      -87.777       -1.687      130.238      113.422       60.537    16961.867    12864.586     3664.692        4.851        1.675      252.078       69.816        0.077      347.191       25.979      856.176
08/24/2014  19:28:00     -192.390      -34.715        2.170      146.078      105.802       74.070    21338.751    11194.000     5486.348        3.811        1.901      195.497       84.127        0.185      347.187       25.972      856.161
08/24/2014  19:29:00     -307.663     -101.502       -2.337      186.216      125.508       71.561    34676.519    15752.248     5120.937        8.025        2.777      323.974       80.845        0.062      347.161       25.928      856.180
08/24/2014  19:30:00     -177.511      -98.444       31.822      164.033      131.962       83.203    26906.959    17413.841     6922.736        4.672        2.562      202.981       92.401        0.207      347.162       25.929      856.168
08/24/2014  19:31:00     -427.359     -124.461      -25.746      215.498      161.204       81.225    46439.282    25986.849     6597.473       13.889        3.951      445.114      104.077        0.055      347.149       25.905      856.189
08/24/2014  19:32:00     -266.190     -123.255       -5.775      215.946      146.477       82.776    46632.567    21455.478     6851.936        8.050        3.747      293.341       90.730        0.096      347.147       25.904      856.190
08/24/2014  19:33:00     -337.553      -94.207      -12.351      165.556      160.489       71.986    27408.875    25756.591     5181.967        9.065        2.917      350.452       71.259        0.041      347.125       25.866      856.199
08/24/2014  19:34:00     -314.619      -50.787        0.993      205.589      194.507      103.355    42266.867    37832.789    10682.292        9.616        4.539      318.692      113.896        0.128      347.125       25.865      856.184
08/24/2014  19:35:00     -219.732      -38.473        3.630      154.955      102.146       71.436    24011.073    10433.743     5103.078        4.465        1.977      223.075       61.780        0.077      347.104       25.829      856.203
08/24/2014  19:36:00     -372.443      -33.831      -27.575      209.753      120.094       70.639    43996.495    14422.567     4989.811       10.200        3.170      373.976       73.405        0.039      347.104       25.829      856.215
08/24/2014  19:37:00     -289.808      -60.118       -7.309      193.082      163.464       79.541    37280.766    26720.554     6326.700        7.898        3.516      295.978       92.997        0.099      347.071       25.771      856.218
08/24/2014  19:38:00     -181.811      -41.076        2.917      118.508       95.672       53.944    14044.120     9153.211     2909.957        3.042        1.305      186.393       64.146        0.118      347.041       25.721      856.245
08/24/2014  19:39:00     -274.500      -59.197      -18.830      138.957      112.434       65.209    19309.156    12641.513     4252.229        5.770        1.810      280.810       64.520        0.053      347.064       25.759      856.231
08/24/2014  19:40:00     -274.075      -50.013        6.361      217.844      140.291       86.889    47456.036    19681.576     7549.635        7.616        3.734      278.601       96.125        0.119      347.042       25.721      856.225
08/24/2014  19:41:00     -223.196      -30.997      -11.561      206.365       91.156       73.992    42586.593     8309.506     5474.843        5.363        2.819      225.339       85.268        0.143      347.029       25.701      856.233
08/24/2014  19:42:00     -145.417      -38.222       14.789      145.969       94.692       64.522    21307.089     8966.628     4163.126        2.862        1.722      150.356       68.249        0.206      347.021       25.687      856.245
08/24/2014  19:43:00     -360.749      -23.533      -17.314      183.732      137.768       78.514    33757.589    18980.121     6164.380        9.494        2.945      361.515       84.483        0.055      346.991       25.634      856.237
08/24/2014  19:44:00     -214.297      -80.550       -2.687      117.974      111.989       53.522    13917.928    12541.582     2864.639        4.087        1.466      228.936       57.967        0.064      346.982       25.620      856.244
08/24/2014  19:45:00     -227.913      -53.593      -12.277      175.063      112.733       78.322    30647.178    12708.819     6134.413        5.222        2.475      234.129       92.581        0.156      346.973       25.604      856.230
08/24/2014  19:46:00     -213.935      -89.977       18.636      199.420      147.690       99.358    39768.147    21812.375     9872.069        6.282        3.573      232.086      111.238        0.230      346.965       25.589      856.230
08/24/2014  19:47:00     -336.101       -9.714      -10.319      161.022      121.716       78.515    25928.082    14814.693     6164.671        8.003        2.345      336.241       85.070        0.064      346.942       25.549      856.257
08/24/2014  19:48:00     -255.258      -50.091       -3.388      153.422       88.278       66.838    23538.214     7793.058     4467.260        5.173        1.790      260.126       76.543        0.087      346.939       25.545      856.274
08/24/2014  19:49:00     -488.780      -24.749      -28.032      201.475      121.273       79.587    40592.067    14707.055     6334.099       15.096        3.082      489.406      106.827        0.048      346.914       25.501      856.275
08/24/2014  19:50:00     -315.735      -99.170      -12.207      186.037      115.416       79.939    34609.695    13320.745     6390.169        8.199        2.716      330.943       92.645        0.078      346.911       25.495      856.287
08/24/2014  19:51:00     -227.521      -74.568        0.613      187.799      107.268       74.315    35268.436    11506.500     5522.724        5.480        2.615      239.429       75.193        0.099      346.867       25.421      856.307
08/24/2014  19:52:00     -371.161       18.933       -8.924      157.608      125.280       76.592    24840.257    15695.151     5866.399        9.229        2.320      371.643       74.262        0.040      346.846       25.383      856.334
08/24/2014  19:53:00     -378.667      -77.968       -5.911      195.231      173.633      101.166    38115.082    30148.268    10234.470       11.398        3.925      386.611      103.318        0.071      346.846       25.383      856.324
08/24/2014  19:54:00     -234.864      -66.753      -10.712      148.291      109.190       67.905    21990.348    11922.450     4611.082        4.912        1.926      244.166       55.452        0.052      346.851       25.394      856.330
08/24/2014  19:55:00     -330.498     -179.215        2.938      189.293      153.548       99.173    35831.778    23577.020     9835.337       10.529        3.462      375.961      103.527        0.076      346.838       25.368      856.334
08/24/2014  19:56:00     -358.097     -226.326      -13.659      188.731      160.023       95.708    35619.323    25607.303     9160.033       12.500        3.519      423.624       97.664        0.053      346.812       25.327      856.338
08/24/2014  19:57:00     -314.027      -15.013       -1.384      149.555      130.813       73.633    22366.698    17112.003     5421.776        7.186        2.245      314.386       74.928        0.057      346.782       25.274      856.364
08/24/2014  19:58:00     -217.831     -145.616       -2.080      229.871      152.278       86.326    52840.823    23188.578     7452.214        7.605        4.174      262.020      117.349        0.201      346.787       25.283      856.354
08/24/2014  19:59:00     -364.799     -167.939      -15.189      137.788       94.195       56.501    18985.649     8872.656     3192.409        9.628        1.553      401.599       62.453        0.024      346.786       25.280      856.373
08/24/2014  20:00:00     -397.244     -112.203      -12.738      165.276      170.084       92.861    27316.254    28928.631     8623.231       11.770        3.243      412.786       93.421        0.051      346.749       25.216      856.381
08/24/2014  20:01:00     -391.452      -17.466       -2.615      178.799      197.428       93.015    31969.154    38977.657     8651.779       11.656        3.980      391.841       88.924        0.052      346.721       25.167      856.381
08/24/2014  20:02:00     -343.546     -129.200        5.849      237.991      202.422      103.500    56639.875    40974.801    10712.321       12.152        5.416      367.037      110.184        0.090      346.702       25.136      856.380
08/24/2014  20:03:00     -345.228     -129.365       -7.720      173.503      160.002       82.672    30103.409    25600.538     6834.644        9.925        3.127      368.670       88.636        0.058      346.702       25.133      856.382
08/24/2014  20:04:00     -195.100      -84.203        2.420      165.122      130.243       76.748    27265.385    16963.261     5890.303        4.763        2.506      212.495       81.474        0.147      346.683       25.105      856.395
08/24/2014  20:05:00     -375.492     -111.948      -34.415      139.062      141.650       67.292    19338.238    20064.674     4528.178        9.931        2.197      391.825       55.853        0.020      346.657       25.058      856.410
08/24/2014  20:06:00     -426.383     -157.566      -18.688      196.493      177.814       91.249    38609.491    31617.920     8326.359       14.275        3.928      454.565       91.979        0.041      346.611       24.981      856.406
08/24/2014  20:07:00     -163.485      -31.273       17.043      121.728       84.863       60.883    14817.664     7201.680     3706.689        2.686        1.286      166.449       65.689        0.156      346.595       24.953      856.416
08/24/2014  20:08:00     -343.438      -90.116      -20.641      221.033      150.028       79.734    48855.448    22508.480     6357.581       10.209        3.886      355.065       89.687        0.064      346.615       24.986      856.410
08/24/2014  20:09:00     -306.544     -109.560       21.499      264.624      156.714      108.527    70025.860    24559.259    11778.118       10.638        5.318      325.534      137.447        0.178      346.582       24.930      856.398
08/24/2014  20:10:00     -371.035      -87.136       -6.406      208.919      182.486       84.488    43647.067    33301.045     7138.187       11.468        4.204      381.130      104.661        0.075      346.575       24.918      856.420
08/24/2014  20:11:00     -243.470      -97.241        0.957      145.096      117.525       81.099    21052.825    13812.198     6577.051        5.508        2.072      262.171       72.978        0.077      346.569       24.908      856.440
08/24/2014  20:12:00     -350.468      -63.562       10.089      183.109      126.667       82.358    33528.908    16044.540     6782.800        9.165        2.818      356.185       92.524        0.067      346.548       24.871      856.446
08/24/2014  20:13:00     -344.737      -66.252        0.885      228.395      179.228       92.635    52164.407    32122.692     8581.217       10.803        4.643      351.046      105.025        0.090      346.532       24.845      856.449
08/24/2014  20:14:00     -293.926      -91.508       -9.558      198.645      139.748       86.292    39459.753    19529.588     7446.378        8.063        3.322      307.842       74.333        0.058      346.551       24.878      856.435
08/24/2014  20:15:00     -350.875      -91.658      -10.125      186.138      129.135       78.914    34647.259    16675.896     6227.372        9.457        2.878      362.649       84.063        0.054      346.501       24.792      856.441
08/24/2014  20:16:00     -305.076     -179.889      -17.544      180.922      122.608       73.774    32732.884    15032.814     5442.617        8.946        2.660      354.164       80.985        0.052      346.504       24.797      856.457
08/24/2014  20:17:00     -305.257     -152.785      -18.963      175.755      152.181       82.809    30889.856    23159.075     6857.389        8.888        3.045      341.358       68.914        0.041      346.483       24.761      856.451
08/24/2014  20:18:00     -493.835     -158.366      -27.874      290.202      189.623      103.974    84217.440    35957.058    10810.594       20.033        6.549      518.606      127.626        0.061      346.461       24.721      856.436
08/24/2014  20:19:00     -320.106     -208.116        9.543      224.161      175.266      120.432    50248.255    30718.303    14503.810       12.065        4.774      381.811      128.013        0.112      346.446       24.695      856.439
08/24/2014  20:20:00     -326.014     -174.871        6.659      240.243      181.186      102.531    57716.744    32828.432    10512.605       11.896        5.053      369.952      114.295        0.095      346.426       24.663      856.431
08/24/2014  20:21:00     -268.992     -125.888       14.370      204.621      157.212       79.083    41869.819    24715.673     6254.144        8.061        3.642      296.992      101.334        0.116      346.424       24.659      856.465
08/24/2014  20:22:00     -222.177     -147.435        1.892      210.888      190.351      107.772    44473.873    36233.589    11614.800        8.169        4.616      266.645      123.812        0.216      346.415       24.643      856.456
08/24/2014  20:23:00     -388.364     -200.893      -15.871      210.628      170.415      101.188    44364.071    29041.128    10238.993       13.752        4.182      437.247      103.849        0.056      346.406       24.626      856.453
08/24/2014  20:24:00     -129.341      -80.288       33.998      197.339      147.881      106.292    38942.695    21868.706    11298.006        4.821        3.605      152.234      103.891        0.466      346.368       24.564      856.447
08/24/2014  20:25:00     -369.844     -147.780      -12.533      171.711      211.516       93.689    29484.612    44738.945     8777.646       12.087        4.150      398.276       87.544        0.048      346.370       24.564      856.457
08/24/2014  20:26:00     -225.349     -172.262       -4.648      188.991      156.675       98.849    35717.680    24547.083     9771.099        7.524        3.502      283.648      116.546        0.169      346.349       24.531      856.457
08/24/2014  20:27:00     -366.479     -180.400        8.098      187.254      150.616       75.580    35064.067    22685.269     5712.266       11.518        3.173      408.474       83.994        0.042      346.352       24.534      856.458
08/24/2014  20:28:00     -496.816     -307.494      -23.817      235.498      187.606      110.965    55459.178    35196.170    12313.189       22.244        5.148      584.276      134.125        0.053      346.346       24.524      856.445
08/24/2014  20:29:00     -312.929     -242.229        5.237      257.551      207.524      119.363    66332.636    43066.119    14247.529       14.011        6.182      395.727      149.633        0.143      346.319       24.478      856.404
08/24/2014  20:30:00     -524.838     -235.495      -20.569      187.479      179.052       90.820    35148.202    32059.450     8248.268       20.338        3.773      575.250       86.297        0.023      346.303       24.451      856.439
08/24/2014  20:31:00     -419.651     -203.362      -10.047      278.719      185.109      109.852    77684.210    34265.218    12067.489       17.077        6.201      466.330      119.934        0.066      346.311       24.464      856.478
08/24/2014  20:32:00     -426.788     -241.613        9.613      252.780      223.036      113.967    63897.533    49744.925    12988.365       18.360        6.332      490.433      125.629        0.066      346.280       24.411      856.489
08/24/2014  20:33:00     -457.947     -203.605      -20.929      248.921      186.602      122.940    61961.420    34820.265    15114.357       18.173        5.595      501.169      127.768        0.065      346.283       24.417      856.485
08/24/2014  20:34:00     -309.131     -160.977      -13.238      191.405      160.344       90.554    36636.001    25710.101     8200.053        9.608        3.527      348.533       93.452        0.072      346.269       24.391      856.506
08/24/2014  20:35:00     -336.068     -108.485       -6.471      257.598      187.176       99.431    66356.513    35034.867     9886.571       11.799        5.564      353.144      131.633        0.139      346.229       24.321      856.519
08/24/2014  20:36:00     -248.002      -91.973       10.985      141.527      158.159       82.125    20029.862    25014.273     6744.551        6.093        2.589      264.507       74.493        0.079      346.204       24.278      856.519
08/24/2014  20:37:00     -387.433     -114.783      -20.048      213.292      183.025       94.648    45493.599    33497.972     8958.305       12.580        4.397      404.078      102.342        0.064      346.209       24.287      856.510
08/24/2014  20:38:00     -410.147      -34.807      -12.550      242.576      152.385       81.749    58843.302    23221.232     6682.883       12.915        4.437      411.621       98.021        0.057      346.195       24.263      856.525
08/24/2014  20:39:00     -431.598     -168.805      -20.402      248.555      187.455       85.306    61779.699    35139.376     7277.187       15.967        5.210      463.435      103.423        0.050      346.193       24.261      856.526
08/24/2014  20:40:00     -368.356     -186.097       -6.938      209.603      183.854       96.858    43933.524    33802.470     9381.398       12.872        4.356      412.696      108.266        0.069      346.157       24.200      856.518
08/24/2014  20:41:00     -181.150      -97.390        5.969      174.745      156.135       93.209    30535.661    24378.239     8687.890        5.296        3.180      205.670       82.462        0.161      346.159       24.204      856.543
08/24/2014  20:42:00     -285.858     -126.355        3.182      181.180      163.846       86.096    32826.353    26845.581     7412.465        8.237        3.354      312.539       80.989        0.067      346.138       24.167      856.544
08/24/2014  20:43:00     -385.110     -143.560       -2.615      233.531      170.163      102.448    54536.891    28955.594    10495.620       13.144        4.699      410.998      124.746        0.092      346.124       24.142      856.556
08/24/2014  20:44:00     -510.870      -37.604      -42.691      183.324      136.876       84.887    33607.608    18735.008     7205.812       16.187        2.977      512.252       83.197        0.026      346.107       24.112      856.542
08/24/2014  20:45:00     -426.314      -73.657        1.495      217.828      182.206       84.417    47449.212    33198.915     7126.310       13.746        4.389      432.630       71.480        0.027      346.100       24.100      856.564
08/24/2014  20:46:00     -530.689     -129.591      -24.346      219.877      247.319       95.259    48345.718    61166.856     9074.282       20.878        5.929      546.283       99.022        0.033      346.114       24.124      856.593
08/24/2014  20:47:00     -363.312     -265.703       -6.899      269.883      219.123      115.138    72836.621    48014.746    13256.835       16.835        6.705      450.104      126.543        0.079      346.100       24.101      856.592
08/24/2014  20:48:00     -456.840      -97.200       -1.755      208.905      179.939      103.793    43641.137    32377.905    10773.021       15.246        4.340      467.066      100.209        0.046      346.074       24.055      856.626
08/24/2014  20:49:00     -371.963     -108.984        0.327      255.864      206.133      104.609    65466.208    42490.922    10943.136       13.454        5.945      387.600      125.633        0.105      346.064       24.040      856.640
08/24/2014  20:50:00     -380.825     -173.343       -9.250      286.557      187.261      106.846    82114.775    35066.524    11416.168       15.185        6.430      418.420      146.685        0.123      346.049       24.013      856.658
08/24/2014  20:51:00     -619.340     -162.098      -26.281      215.958      178.459      103.088    46638.000    31847.675    10627.189       24.981        4.456      640.202      105.861        0.027      346.038       23.995      856.692
08/24/2014  20:52:00     -499.416      -79.606      -23.094      188.951      166.596       86.219    35702.580    27754.323     7433.633       16.357        3.545      505.720       88.852        0.031      346.014       23.954      856.706
08/24/2014  20:53:00     -240.719      -60.169       10.516      181.875      118.421       77.209    33078.663    14023.595     5961.164        5.736        2.653      248.125       79.931        0.104      345.983       23.902      856.695
08/24/2014  20:54:00     -200.213      -68.648       13.784      172.664      168.807       92.367    29812.693    28495.840     8531.736        5.590        3.342      211.655       83.768        0.157      345.978       23.894      856.693
08/24/2014  20:55:00     -472.551     -164.692       -7.647      314.936      227.188      113.602    99184.815    51614.463    12905.391       20.706        8.185      500.428      150.265        0.090      345.988       23.909      856.678
08/24/2014  20:56:00     -343.379       -2.693      -27.026      241.747      147.535       77.378    58441.823    21766.702     5987.356       10.240        4.310      343.389       71.678        0.044      345.976       23.889      856.669
08/24/2014  20:57:00     -455.852      -65.705      -13.223      245.005      182.491       97.949    60027.555    33303.133     9593.954       15.759        5.146      460.563       93.810        0.041      345.945       23.836      856.675
08/24/2014  20:58:00     -549.530     -175.631      -18.280      270.504      237.565      119.443    73172.661    56437.301    14266.616       23.849        7.194      576.913      132.875        0.053      345.957       23.855      856.695
08/24/2014  20:59:00     -468.757     -311.267      -34.708      260.370      192.854      128.411    67792.656    37192.819    16489.435       21.963        6.074      562.690      140.521        0.062      345.958       23.857      856.717
08/24/2014  21:00:00     -393.311     -274.652       -4.503      275.687      219.492      120.615    76003.397    48176.833    14548.012       18.441        6.936      479.715      150.097        0.098      345.950       23.843      856.766
08/24/2014  21:01:00     -420.032     -144.448       -9.367      233.095      176.951       94.507    54333.056    31311.626     8931.535       14.596        4.729      444.176       88.249        0.039      345.949       23.842      856.809
08/24/2014  21:02:00     -386.926     -159.752      -14.212      219.145      207.531      113.755    48024.693    43069.323    12940.203       13.971        5.202      418.608      120.648        0.083      345.928       23.805      856.839
08/24/2014  21:03:00     -517.682     -108.174      -29.640      229.074      176.868       98.003    52474.704    31282.249     9604.636       18.695        4.668      528.864      113.989        0.046      345.921       23.795      856.875
08/24/2014  21:04:00     -580.549      -27.545      -38.331      187.734      175.363       93.488    35244.215    30752.254     8739.998       20.699        3.737      581.202       94.287        0.026      345.907       23.771      856.875
08/24/2014  21:05:00     -371.359     -108.727      -26.204      183.453      145.911       83.402    33655.156    21290.014     6955.968       10.615        3.095      386.948       91.948        0.056      345.894       23.747      856.903
08/24/2014  21:06:00     -413.040      -22.711      -17.444      201.325      163.991       92.253    40531.815    26893.049     8510.607       12.366        3.797      413.664       88.792        0.046      345.864       23.696      856.917
08/24/2014  21:07:00     -431.512      -43.264      -37.694      207.214      139.369       83.940    42937.474    19423.838     7045.882       12.944        3.470      433.676       95.199        0.048      345.849       23.669      856.924
08/24/2014  21:08:00     -367.894     -151.826      -19.666      140.583      131.415       65.620    19763.688    17269.894     4305.969       10.005        2.067      397.991       63.953        0.026      345.840       23.655      856.935
08/24/2014  21:09:00     -342.973      -72.604      -24.522      211.714      147.958       95.562    44822.845    21891.547     9132.187        9.966        3.792      350.573       88.518        0.064      345.819       23.619      856.922
08/24/2014  21:10:00     -540.901      -98.879      -36.719      212.444      121.843       86.855    45132.664    14845.810     7543.871       18.560        3.376      549.864       98.081        0.032      345.811       23.605      856.933
08/24/2014  21:11:00     -390.716     -160.052      -26.147      179.498      150.358       96.022    32219.548    22607.396     9220.276       12.149        3.202      422.227       89.299        0.045      345.792       23.572      856.928
08/24/2014  21:12:00     -297.764     -121.905      -17.437      107.926      103.161       60.228    11648.025    10642.100     3627.398        6.487        1.296      321.752       63.574        0.039      345.769       23.533      856.957
08/24/2014  21:13:00     -291.312     -107.176        1.113      159.557      121.475       73.827    25458.325    14756.138     5450.367        7.100        2.283      310.402       76.750        0.061      345.724       23.457      856.957
08/24/2014  21:14:00     -496.309      -78.454      -21.785      167.258      130.514       88.928    27975.403    17033.953     7908.165       15.292        2.646      502.472       84.708        0.028      345.730       23.466      856.978
08/24/2014  21:15:00     -310.571      -91.611       -3.008      161.981      121.339       74.177    26237.705    14723.067     5502.223        7.565        2.323      323.801       86.373        0.071      345.734       23.474      856.989
08/24/2014  21:16:00     -270.697      -90.191        1.992      191.714      163.661       80.927    36754.081    26784.788     6549.210        7.574        3.504      285.326       94.691        0.110      345.723       23.455      856.960
08/24/2014  21:17:00     -333.564      -57.469       -2.726      151.077      148.908       80.079    22824.268    22173.508     6412.637        8.298        2.571      338.478       78.059        0.053      345.719       23.448      856.978
08/24/2014  21:18:00     -297.960     -127.548       -2.053      152.863      145.663       69.779    23367.115    21217.706     4869.149        7.724        2.473      324.112       69.151        0.046      345.670       23.363      856.982
08/24/2014  21:19:00     -428.996     -213.799      -16.206      195.268      161.561       84.179    38129.659    26102.055     7086.177       15.065        3.566      479.320      100.630        0.044      345.685       23.388      857.012
08/24/2014  21:20:00     -436.406     -230.761       -2.286      246.668      179.512       99.547    60845.129    32224.672     9909.605       17.332        5.149      493.661      116.682        0.056      345.709       23.429      857.049
08/24/2014  21:21:00     -241.388     -129.250       22.420      167.861      165.054       87.957    28177.276    27242.813     7736.482        6.930        3.158      273.814       91.522        0.112      345.711       23.433      857.112
08/24/2014  21:22:00     -327.015     -293.144       12.092      161.001      193.604       89.509    25921.244    37482.595     8011.881       13.220        3.571      439.172       89.587        0.042      345.744       23.489      857.106
08/24/2014  21:23:00     -282.762     -123.329        0.295      154.606      126.519       66.587    23903.061    16007.107     4433.852        6.975        2.217      308.488       72.702        0.056      345.709       23.431      857.113
08/24/2014  21:24:00     -431.806     -232.318      -29.201      169.342      135.172       75.192    28676.646    18271.509     5653.765       14.693        2.630      490.335       77.309        0.025      345.715       23.442      857.115
08/24/2014  21:25:00     -321.394     -137.364       -5.062      166.147      146.766       79.120    27604.729    21540.299     6260.025        8.879        2.770      349.518       77.911        0.050      345.680       23.381      857.109
08/24/2014  21:26:00     -470.741     -244.801       -6.412      183.301      164.507       99.665    33599.257    27062.624     9933.080       17.607        3.530      530.589      101.940        0.037      345.710       23.433      857.101
08/24/2014  21:27:00     -434.233     -155.233       -1.592      217.904      204.076       96.482    47482.203    41646.849     9308.745       15.553        4.922      461.146      112.231        0.059      345.697       23.409      857.090
08/24/2014  21:28:00     -337.001     -122.675       -0.544      250.831      203.915       95.610    62916.016    41581.254     9141.261       12.111        5.682      358.635      105.488        0.087      345.655       23.338      857.081
08/24/2014  21:29:00     -246.204      -86.822       16.064      185.370      133.802       81.751    34362.199    17903.101     6683.293        6.367        2.947      261.064       88.816        0.116      345.638       23.308      857.110
08/24/2014  21:30:00     -459.670     -248.067      -19.002      212.573      160.361       92.734    45187.350    25715.661     8599.545       17.633        3.975      522.335       95.250        0.033      345.681       23.381      857.101
08/24/2014  21:31:00     -420.903     -218.453      -22.056      245.779      194.543      100.553    60407.136    37846.982    10110.950       16.684        5.418      474.216      119.579        0.064      345.662       23.349      857.091
08/24/2014  21:32:00     -316.565     -160.692       -1.121      205.270      160.046       78.598    42135.603    25614.726     6177.660        9.997        3.696      355.014       79.535        0.050      345.621       23.277      857.107
08/24/2014  21:33:00     -367.021     -136.087       -5.196      182.417      121.971       80.848    33276.037    14876.859     6536.426       10.396        2.734      391.438       79.836        0.042      345.600       23.242      857.092
08/24/2014  21:34:00     -458.033     -174.031       -5.098      220.327      174.965      101.770    48543.767    30612.722    10357.122       16.479        4.476      489.981      120.461        0.060      345.636       23.305      857.097
08/24/2014  21:35:00     -366.235     -237.853        5.588      249.397      172.701       95.736    62198.801    29825.671     9165.429       14.594        5.059      436.694      115.330        0.070      345.627       23.290      857.113
08/24/2014  21:36:00     -485.368     -176.655       -5.985      243.048      175.502      111.493    59072.280    30800.991    12430.625       18.454        5.115      516.516      118.682        0.053      345.634       23.300      857.134
08/24/2014  21:37:00     -358.145     -159.650       -4.337      212.315      166.813       82.969    45077.779    27826.702     6883.881       11.677        3.989      392.118       84.391        0.046      345.612       23.263      857.150
08/24/2014  21:38:00     -408.034     -167.084       -3.476      211.989      145.081       85.292    44939.200    21048.565     7274.691       13.383        3.663      440.918      103.447        0.055      345.604       23.247      857.155
08/24/2014  21:39:00     -416.576     -139.142       -0.146      203.299      163.865       89.833    41330.545    26851.855     8069.987       13.456        3.813      439.200      103.310        0.055      345.535       23.131      857.148
08/24/2014  21:40:00     -362.775     -149.474        0.972      226.087      178.743       86.139    51115.350    31949.095     7420.012       12.220        4.524      392.362      104.942        0.072      345.556       23.168      857.139
08/24/2014  21:41:00     -371.715     -120.854        3.743      191.296      171.696       96.796    36594.314    29479.592     9369.384       11.410        3.772      390.868      107.214        0.075      345.526       23.115      857.128
08/24/2014  21:42:00     -457.263      -98.955      -17.766      250.669      152.448       88.183    62835.127    23240.246     7776.226       15.651        4.693      467.848       95.797        0.042      345.546       23.149      857.146
08/24/2014  21:43:00     -451.229     -181.199      -12.851      197.017      165.368       86.334    38815.718    27346.500     7453.560       15.510        3.681      486.252      101.921        0.044      345.528       23.118      857.151
08/24/2014  21:44:00     -411.644     -145.341      -11.246      151.612      143.455       79.656    22986.194    20579.306     6345.044       12.030        2.496      436.549       77.332        0.031      345.491       23.056      857.173
08/24/2014  21:45:00     -276.672     -157.456        6.579      200.288      153.233      105.989    40115.303    23480.432    11233.587        8.809        3.741      318.339      117.571        0.136      345.472       23.022      857.194
08/24/2014  21:46:00     -394.443     -200.227      -13.826      181.035      170.882       77.495    32773.669    29200.587     6005.507       13.191        3.399      442.353       85.610        0.037      345.525       23.114      857.198
08/24/2014  21:47:00     -425.159     -237.190      -20.413      199.249      167.039       95.271    39700.216    27901.977     9076.504       15.704        3.834      486.846       88.866        0.033      345.559       23.171      857.192
08/24/2014  21:48:00     -279.343     -192.981        6.996      221.630      155.562       85.859    49120.060    24199.524     7371.723        9.799        4.035      339.520      107.788        0.101      345.483       23.043      857.197
08/24/2014  21:49:00     -279.473      -72.049        9.262      192.416      116.325       74.085    37023.990    13531.556     5488.636        6.970        2.802      288.611       98.521        0.117      345.434       22.958      857.201
08/24/2014  21:50:00     -297.599     -193.587      -14.347      149.963      142.101       80.662    22488.800    20192.634     6506.431        8.771        2.459      355.023       79.907        0.051      345.471       23.019      857.204
08/24/2014  21:51:00     -178.228     -143.893       -5.738      131.487      110.528       78.374    17288.701    12216.425     6142.491        4.407        1.782      229.064       80.470        0.123      345.399       22.897      857.179
08/24/2014  21:52:00     -317.279      -70.360        4.107      196.596      145.270       84.718    38650.134    21103.315     7177.157        8.627        3.347      324.987       91.084        0.079      345.398       22.895      857.185
08/24/2014  21:53:00     -260.294     -133.736      -11.867      146.977      165.101       83.830    21602.095    27258.257     7027.505        7.082        2.794      292.641       85.469        0.085      345.399       22.899      857.182
08/24/2014  21:54:00     -253.907     -179.303        5.086      155.910      121.418       76.897    24308.011    14742.262     5913.144        7.079        2.248      310.835       76.077        0.060      345.379       22.863      857.176
08/24/2014  21:55:00     -336.722      -87.062       -6.473      203.755      154.390       81.487    41516.022    23836.420     6640.105        9.648        3.600      347.796       85.897        0.061      345.399       22.897      857.166
08/24/2014  21:56:00     -358.457      -70.486       10.926      172.342      149.353       86.647    29701.866    22306.395     7507.752        9.654        2.976      365.322       88.573        0.059      345.371       22.850      857.147
08/24/2014  21:57:00     -457.507      -63.047       -9.163      224.385      139.849       94.004    50348.638    19557.757     8836.702       14.604        3.937      461.831      117.021        0.064      345.376       22.859      857.143
08/24/2014  21:58:00     -484.378     -177.408      -33.275      221.805      153.813       94.884    49197.559    23658.472     9002.997       17.452        4.093      515.845      111.545        0.047      345.377       22.860      857.146
08/24/2014  21:59:00     -430.651     -137.994       -3.800      193.257      155.198       84.275    37348.230    24086.396     7102.331       13.651        3.427      452.220       88.926        0.039      345.365       22.839      857.193
08/24/2014  22:00:00     -335.228     -172.607      -14.219      185.323      143.842       79.985    34344.525    20690.530     6397.553       10.189        3.072      377.056       81.427        0.047      345.361       22.833      857.221
08/24/2014  22:01:00     -224.683     -128.363        5.842      201.726      112.610       83.259    40693.541    12681.008     6932.005        6.364        3.015      258.765       99.628        0.148      345.342       22.801      857.261
08/24/2014  22:02:00     -407.659     -128.907      -18.273      148.749      131.512       73.522    22126.292    17295.432     5405.469       11.397        2.241      427.555       70.719        0.027      345.383       22.871      857.275
08/24/2014  22:03:00     -372.580     -159.710       -6.300      181.259      125.803       76.854    32854.795    15826.506     5906.520       10.946        2.729      405.368       87.734        0.047      345.392       22.886      857.267
08/24/2014  22:04:00     -230.594     -111.993       -1.610      143.279      116.904       69.212    20528.983    13666.502     4790.282        5.234        1.949      256.351       80.190        0.098      345.324       22.769      857.287
08/24/2014  22:05:00     -284.936      -83.267      -22.590      110.382       90.354       61.243    12184.205     8163.895     3750.756        5.636        1.205      296.853       54.522        0.034      345.325       22.770      857.290
08/24/2014  22:06:00     -378.890     -104.247      -24.844      113.933      123.672       58.743    12980.774    15294.854     3450.788        9.338        1.586      392.969       57.931        0.022      345.324       22.769      857.275
08/24/2014  22:07:00     -261.077     -114.556       -2.365      131.142      121.399       56.771    17198.167    14737.634     3222.918        5.822        1.758      285.104       57.428        0.041      345.299       22.727      857.268
08/24/2014  22:08:00     -282.244      -32.241       -3.549      118.258       83.219       53.839    13984.874     6925.482     2898.625        5.226        1.190      284.080       59.853        0.044      345.261       22.661      857.252
08/24/2014  22:09:00     -301.085      -50.024        6.501      150.687      124.539       65.982    22706.541    15509.855     4353.626        6.787        2.129      305.213       78.357        0.066      345.261       22.663      857.232
08/24/2014  22:10:00     -410.114      -65.865      -15.647      118.779      114.071       67.176    14108.492    13012.217     4512.574       10.220        1.582      415.370       66.285        0.025      345.272       22.681      857.239
08/24/2014  22:11:00     -329.819      -49.932      -14.591      173.285      116.007       70.417    30027.606    13457.583     4958.509        7.996        2.422      333.577       87.414        0.069      345.237       22.620      857.252
08/24/2014  22:12:00     -257.826     -108.846       -6.706      155.338      138.317       69.502    24129.955    19131.663     4830.562        6.322        2.405      279.860       70.912        0.064      345.225       22.601      857.261
08/24/2014  22:13:00     -318.056     -142.394      -10.295      153.098       98.087       71.019    23438.957     9620.991     5043.650        7.982        1.905      348.476       80.084        0.053      345.266       22.669      857.291
08/24/2014  22:14:00     -331.443     -117.555       -8.629      179.408      103.896       83.277    32187.132    10794.340     6935.028        8.682        2.496      351.672       94.386        0.072      345.264       22.665      857.306
08/24/2014  22:15:00     -236.029      -60.080        2.203      174.071      101.030       61.452    30300.613    10206.970     3776.337        5.180        2.214      243.555       67.352        0.076      345.239       22.623      857.306
08/24/2014  22:16:00     -308.317      -50.073       -1.378      107.007       99.329       69.919    11450.538     9866.241     4888.609        6.188        1.310      312.357       66.034        0.045      345.188       22.535      857.316
08/24/2014  22:17:00     -399.577      -67.189      -10.715      163.929      128.292       76.361    26872.586    16458.880     5831.006       10.672        2.458      405.187       80.339        0.039      345.193       22.544      857.325
08/24/2014  22:18:00     -267.141      -56.818       11.971      159.778      108.706       66.296    25529.094    11816.976     4395.128        5.823        2.087      273.116       77.576        0.081      345.177       22.518      857.320
08/24/2014  22:19:00     -242.305      -59.810      -15.067      153.475      128.897       68.123    23554.644    16614.539     4640.702        5.365        2.240      249.578       69.880        0.078      345.207       22.569      857.312
08/24/2014  22:20:00     -308.706      -97.916      -11.057      242.191      135.140       72.903    58656.616    18262.851     5314.779        9.361        4.112      323.863      100.435        0.096      345.184       22.530      857.309
08/24/2014  22:21:00     -278.480      -67.462       -8.910      149.273      140.931       80.058    22282.514    19861.670     6409.211        6.536        2.428      286.534       66.225        0.053      345.237       22.620      857.286
08/24/2014  22:22:00     -355.705     -205.880      -18.918      182.223      138.427       84.896    33205.272    19162.084     7207.303       11.441        2.979      410.990       91.937        0.050      345.264       22.668      857.288
08/24/2014  22:23:00     -330.474      -99.496      -11.723      176.301      166.519       77.375    31082.060    27728.705     5986.936        9.201        3.240      345.127       85.227        0.061      345.222       22.595      857.273
08/24/2014  22:24:00     -287.614     -213.975      -11.048      161.945      122.829       77.831    26226.306    15086.961     6057.705        8.799        2.369      358.479       79.313        0.049      345.225       22.601      857.295
08/24/2014  22:25:00     -307.532     -159.295      -20.891      157.624      122.895       76.455    24845.308    15103.073     5845.428        8.308        2.290      346.340       71.944        0.043      345.181       22.525      857.303
08/24/2014  22:26:00     -242.276     -120.948      -11.802      154.919       96.582       59.823    23999.966     9327.988     3578.822        5.518        1.845      270.787       73.105        0.073      345.152       22.476      857.302
08/24/2014  22:27:00     -301.270      -94.090       -5.052      195.228      107.570       69.500    38114.033    11571.239     4830.266        7.707        2.726      315.621       81.543        0.067      345.172       22.509      857.295
08/24/2014  22:28:00     -279.077     -166.088       -7.473      116.759       89.575       62.796    13632.603     8023.652     3943.297        6.556        1.280      324.760       60.188        0.034      345.186       22.534      857.308
08/24/2014  22:29:00     -229.779     -108.956        6.259      163.805      137.146       72.490    26832.136    18808.974     5254.820        5.779        2.545      254.303       83.026        0.107      345.153       22.476      857.314
08/24/2014  22:30:00     -300.439     -130.693      -14.862      121.703      113.600       71.740    14811.501    12904.927     5146.653        7.021        1.643      327.635       63.149        0.037      345.134       22.444      857.320
08/24/2014  22:31:00     -293.264     -155.021      -13.511      145.300      123.251       62.201    21112.078    15190.862     3868.959        7.519        2.009      331.716       51.061        0.024      345.139       22.454      857.315
08/24/2014  22:32:00     -293.132      -97.338       -2.952      204.612      113.173       81.094    41866.192    12808.181     6576.192        7.832        3.063      308.871       94.623        0.094      345.122       22.423      857.328
08/24/2014  22:33:00     -263.583     -131.308      -15.293      148.411      102.363       54.816    22025.863    10478.270     3004.751        6.122        1.775      294.479       61.207        0.043      345.082       22.355      857.335
08/24/2014  22:34:00     -314.778      -69.798        0.574      205.165      110.527       67.218    42092.716    12216.139     4518.288        8.138        2.941      322.424       91.439        0.080      345.023       22.254      857.327
08/24/2014  22:35:00     -346.715      -70.668      -19.196      156.817      100.657       57.957    24591.499    10131.857     3359.002        8.182        1.904      353.844       64.151        0.033      345.049       22.299      857.342
08/24/2014  22:36:00     -192.615      -63.882       -6.812       97.010      113.231       54.445     9411.019    12821.178     2964.278        3.321        1.260      202.932       45.745        0.051      345.033       22.271      857.354
08/24/2014  22:37:00     -351.187      -62.823      -15.943      123.821      112.192       58.811    15331.527    12586.959     3458.763        7.945        1.569      356.762       51.872        0.021      345.045       22.291      857.352
08/24/2014  22:38:00     -213.589      -58.669       26.918      182.723      111.013       83.257    33387.715    12323.822     6931.791        5.120        2.632      221.500       96.516        0.190      345.027       22.260      857.339
08/24/2014  22:39:00     -253.092     -129.220      -14.135      108.613      105.068       55.033    11796.891    11039.203     3028.629        5.340        1.293      284.171       42.462        0.022      345.035       22.275      857.339
08/24/2014  22:40:00     -439.060      -75.772      -16.603      150.198      119.492       60.387    22559.570    14278.313     3646.615       11.963        2.024      445.550       63.245        0.020      345.107       22.397      857.331
08/24/2014  22:41:00     -340.830      -55.498       -4.003      166.331      106.703       74.555    27665.939    11385.486     5558.487        8.193        2.230      345.319       84.295        0.060      345.075       22.344      857.330
08/24/2014  22:42:00     -315.468      -32.708      -10.810      118.839      105.766       54.752    14122.595    11186.552     2997.796        6.450        1.415      317.159       53.078        0.028      345.060       22.318      857.334
08/24/2014  22:43:00     -297.569      -65.644      -16.482      137.828       96.369       69.134    18996.629     9287.011     4779.560        6.309        1.653      304.724       65.640        0.046      345.030       22.267      857.334
08/24/2014  22:44:00     -280.340      -33.767      -12.827      116.734      105.806       67.106    13626.902    11194.844     4503.158        5.460        1.466      282.366       62.521        0.049      345.022       22.251      857.362
08/24/2014  22:45:00     -196.630      -53.195       -5.985      115.806      102.833       52.900    13410.951    10574.725     2798.437        3.415        1.339      203.699       53.372        0.069      344.999       22.214      857.367
08/24/2014  22:46:00     -348.063      -81.471      -12.550      118.473       96.315       66.786    14035.963     9276.596     4460.389        7.785        1.389      357.471       64.091        0.032      345.024       22.256      857.381
08/24/2014  22:47:00     -462.290      -90.503      -15.086      158.611      120.396       74.068    25157.402    14495.091     5486.085       13.363        2.257      471.066       79.309        0.028      345.046       22.294      857.401
08/24/2014  22:48:00     -273.181     -105.974       -9.571      103.855      104.588       52.861    10785.830    10938.677     2794.288        5.523        1.226      293.016       41.445        0.020      344.992       22.201      857.414
08/24/2014  22:49:00     -300.914      -62.098      -16.882      177.655      128.661       75.160    31561.371    16553.595     5649.047        7.422        2.688      307.255       90.300        0.086      344.990       22.198      857.410
08/24/2014  22:50:00     -346.698      -86.537      -18.455      133.879      103.701       55.296    17923.652    10753.964     3057.687        7.988        1.587      357.335       55.922        0.024      344.981       22.182      857.425
08/24/2014  22:51:00     -386.797     -101.776      -21.260      170.419      125.811       73.653    29042.557    15828.318     5424.735       10.535        2.515      399.962       74.764        0.035      344.989       22.197      857.419
08/24/2014  22:52:00     -449.929        5.922      -41.023      121.067      118.648       59.049    14657.140    14077.425     3486.768       11.818        1.611      449.968       54.138        0.014      345.014       22.239      857.426
08/24/2014  22:53:00     -414.411       -1.083      -37.299      160.520      103.439       71.827    25766.593    10699.570     5159.150       10.737        2.081      414.412       87.045        0.044      344.981       22.183      857.426
08/24/2014  22:54:00     -382.924      -84.750      -10.570      172.810      143.167       75.495    29863.220    20496.649     5699.451       10.498        2.803      392.191       82.990        0.045      344.965       22.155      857.424
08/24/2014  22:55:00     -357.606      -98.054      -12.653      183.455      120.594       66.818    33655.584    14542.823     4464.613        9.515        2.633      370.805       77.030        0.043      344.977       22.175      857.425
08/24/2014  22:56:00     -285.951      -64.611       -9.626      125.423      107.176       57.505    15730.988    11486.782     3306.773        5.827        1.526      293.160       51.006        0.030      344.913       22.067      857.440
08/24/2014  22:57:00     -350.036      -93.215      -24.938       94.946      104.623       59.346     9014.809    10945.981     3521.993        7.765        1.174      362.235       46.915        0.017      344.912       22.063      857.437
08/24/2014  22:58:00     -398.517      -36.884      -29.759      130.564      110.624       53.683    17046.894    12237.588     2881.903        9.661        1.608      400.220       50.088        0.016      344.935       22.104      857.429
08/24/2014  22:59:00     -331.782      -96.573      -12.980      119.348      102.528       60.572    14243.851    10511.933     3668.922        7.399        1.421      345.551       64.094        0.034      344.901       22.043      857.434
08/24/2014  23:00:00     -333.011       -3.651       -8.599      150.552      132.573       70.917    22666.034    17575.500     5029.280        7.812        2.264      333.031       81.549        0.060      344.907       22.057      857.436
08/24/2014  23:01:00     -386.939      -33.976      -39.070      113.606       84.964       60.904    12906.352     7218.906     3709.348        8.811        1.192      388.428       52.664        0.018      344.902       22.048      857.435
08/24/2014  23:02:00     -422.923      -57.357      -31.069      109.797       83.351       61.311    12055.402     6947.387     3758.985       10.294        1.138      426.795       64.686        0.023      344.923       22.085      857.437
08/24/2014  23:03:00     -400.123     -119.812       -9.964      156.086      165.404       82.024    24362.960    27358.533     6727.873       11.649        2.922      417.676       85.474        0.042      344.911       22.063      857.435
08/24/2014  23:04:00     -417.646      -84.715      -39.235      168.983      109.885       65.563    28555.262    12074.673     4298.524       11.403        2.246      426.151       71.683        0.028      344.911       22.064      857.418
08/24/2014  23:05:00     -455.363       -5.792      -47.721      123.304       90.358       48.921    15203.971     8164.584     2393.270       11.771        1.288      455.399       55.764        0.015      344.874       21.998      857.426
08/24/2014  23:06:00     -459.645     -104.015      -18.532      168.584      140.949       70.158    28420.541    19866.599     4922.150       13.781        2.660      471.267       74.479        0.025      344.901       22.046      857.401
08/24/2014  23:07:00     -425.170      -90.620      -24.313      200.664      150.591       80.233    40265.912    22677.782     6437.275       12.946        3.469      434.720      102.894        0.056      344.893       22.032      857.416
08/24/2014  23:08:00     -393.970     -101.013      -18.923      134.067      103.267       53.687    17974.058    10664.156     2882.288        9.864        1.576      406.714       61.822        0.023      344.881       22.011      857.418
08/24/2014  23:09:00     -374.141     -101.645      -26.640      127.248      148.681       61.132    16192.147    22106.176     3737.128        9.652        2.102      387.703       59.315        0.023      344.830       21.925      857.399
08/24/2014  23:10:00     -506.694      -82.425      -31.984      197.706      138.609       79.586    39087.701    19212.360     6333.971       16.458        3.232      513.355       88.256        0.030      344.874       21.999      857.387
08/24/2014  23:11:00     -394.235      -71.464      -13.425      160.981      166.963       92.608    25914.912    27876.648     8576.329       11.153        3.118      400.660       83.068        0.043      344.851       21.960      857.386
08/24/2014  23:12:00     -444.283      -77.648      -12.095      198.544      152.677       81.023    39419.550    23310.199     6564.686       13.641        3.465      451.017       92.413        0.042      344.874       22.000      857.372
08/24/2014  23:13:00     -363.286      -52.910      -11.856      150.319       89.154       68.475    22595.756     7948.449     4688.879        8.507        1.762      367.119       68.184        0.034      344.819       21.905      857.364
08/24/2014  23:14:00     -396.758      -49.052      -17.957      188.808      107.667       72.388    35648.373    11592.100     5240.059       10.630        2.624      399.778       82.425        0.043      344.817       21.899      857.370
08/24/2014  23:15:00     -436.816      -62.269      -16.157      210.915      122.727       75.978    44484.967    15061.930     5772.693       13.012        3.266      441.232       85.197        0.037      344.838       21.939      857.370
08/24/2014  23:16:00     -359.348      -49.502      -14.026      138.757      128.932       87.559    19253.587    16623.575     7666.634        8.765        2.177      362.741       86.014        0.056      344.805       21.880      857.366
08/24/2014  23:17:00     -397.478      -66.304       -9.371      149.496      127.328       73.120    22349.109    16212.409     5346.542       10.318        2.195      402.971       69.225        0.030      344.789       21.852      857.351
08/24/2014  23:18:00     -431.267      -51.030      -10.763      173.654      107.010       78.812    30155.658    11451.146     6211.309       11.825        2.391      434.275       86.829        0.040      344.794       21.862      857.345
08/24/2014  23:19:00     -393.219      -96.702      -15.089      151.540      105.753       66.281    22964.377    11183.796     4393.179       10.136        1.927      404.936       71.340        0.031      344.768       21.817      857.340
08/24/2014  23:20:00     -420.614     -136.904      -12.221      150.287      137.935       74.027    22586.316    19026.083     5479.960       12.144        2.355      442.334       77.157        0.030      344.779       21.836      857.330
08/24/2014  23:21:00     -406.929      -60.202       -6.653      178.857      115.540       76.229    31989.979    13349.495     5810.888       11.019        2.558      411.358       85.180        0.043      344.833       21.929      857.312
08/24/2014  23:22:00     -492.142     -121.832      -14.200      198.606      143.022       78.970    39444.243    20455.241     6236.253       16.168        3.307      506.997       88.334        0.030      344.824       21.913      857.294
08/24/2014  23:23:00     -490.485     -157.794      -23.119      226.646      155.663       91.830    51368.542    24231.047     8432.695       17.500        4.202      515.242       95.105        0.034      344.844       21.946      857.261
08/24/2014  23:24:00     -427.194     -138.116      -16.419      167.114      136.172       77.477    27927.230    18542.949     6002.676       12.715        2.624      448.966       80.256        0.032      344.761       21.805      857.241
08/24/2014  23:25:00     -487.509     -126.924      -13.152      170.599      128.875       85.001    29104.161    16608.683     7225.255       15.343        2.647      503.760       88.641        0.031      344.787       21.850      857.245
08/24/2014  23:26:00     -410.560     -100.931      -28.582      155.645      124.797       76.512    24225.499    15574.176     5854.115       11.260        2.283      422.785       63.740        0.023      344.760       21.804      857.244
08/24/2014  23:27:00     -383.353      -88.937      -16.494      144.026      144.823       72.795    20743.498    20973.670     5299.071       10.107        2.351      393.534       60.910        0.024      344.792       21.858      857.230
08/24/2014  23:28:00     -509.166     -166.382      -27.015      180.667      146.032       93.313    32640.589    21325.448     8707.280       17.516        3.134      535.661       86.521        0.026      344.827       21.918      857.238
08/24/2014  23:29:00     -496.905     -124.500      -26.448      174.223      137.949       68.681    30353.593    19030.057     4717.109       15.860        2.705      512.264       76.375        0.022      344.848       21.954      857.246
08/24/2014  23:30:00     -409.710     -129.550       -7.606      159.539      115.912       72.627    25452.656    13435.686     5274.746       11.442        2.208      429.704       87.606        0.042      344.759       21.802      857.247
08/24/2014  23:31:00     -428.564     -158.706       -7.537      161.829      134.183       72.269    26188.630    18005.207     5222.855       12.915        2.471      457.006       76.264        0.028      344.730       21.753      857.266
08/24/2014  23:32:00     -500.726     -114.583      -34.737      172.273      115.134       68.278    29677.890    13255.924     4661.896       15.632        2.380      513.668       67.309        0.017      344.742       21.773      857.277
08/24/2014  23:33:00     -440.608     -194.612      -30.319      162.447      142.177       66.338    26388.976    20214.348     4400.769       14.196        2.550      481.673       59.999        0.016      344.769       21.819      857.256
08/24/2014  23:34:00     -472.982      -67.679      -13.005      182.516      165.662       82.566    33312.046    27443.899     6817.169       14.800        3.379      477.799       71.946        0.023      344.786       21.849      857.263
08/24/2014  23:35:00     -419.971     -128.739      -19.839      171.174      137.007       81.470    29300.504    18770.878     6637.422       12.401        2.735      439.260       83.177        0.036      344.789       21.853      857.268
08/24/2014  23:36:00     -421.095     -108.751       -8.702      179.681      160.594       87.293    32285.168    25790.370     7620.059       12.745        3.285      434.911       95.207        0.048      344.749       21.784      857.261
08/24/2014  23:37:00     -461.433      -69.559      -21.556      181.592      138.941       88.231    32975.596    19304.594     7784.653       13.913        3.003      466.646       92.720        0.039      344.760       21.802      857.263
08/24/2014  23:38:00     -361.420     -104.758       -1.388      175.015      152.715       88.829    30630.336    23321.916     7890.510       10.171        3.092      376.295       96.614        0.066      344.753       21.792      857.269
08/24/2014  23:39:00     -448.977     -200.322       -4.167      168.837      139.097       85.404    28506.072    19347.878     7293.798       14.843        2.757      491.639       91.012        0.034      344.766       21.814      857.283
08/24/2014  23:40:00     -465.808     -104.060      -21.587      209.988      133.174       83.110    44094.763    17735.395     6907.243       14.849        3.437      477.290       92.585        0.038      344.748       21.782      857.312
08/24/2014  23:41:00     -343.350      -92.122        4.939      194.397      150.152       77.306    37790.369    22545.717     5976.143        9.634        3.316      355.494       78.309        0.049      344.683       21.671      857.330
08/24/2014  23:42:00     -521.799      -68.075      -20.208      163.929      131.162       92.071    26872.561    17203.481     8477.079       16.492        2.628      526.221       96.797        0.034      344.744       21.776      857.327
08/24/2014  23:43:00     -450.424     -156.281       -3.485      148.387      113.649       66.749    22018.804    12916.080     4455.491       13.335        1.970      476.766       66.591        0.020      344.717       21.730      857.339
08/24/2014  23:44:00     -445.421      -82.966      -17.437      191.462      119.991       72.230    36657.572    14397.748     5217.143       13.092        2.814      453.082       77.670        0.029      344.701       21.702      857.357
08/24/2014  23:45:00     -396.010      -73.381       -7.639      150.491      124.750       84.416    22647.489    15562.660     7126.133       10.379        2.267      402.752       84.831        0.044      344.650       21.616      857.364
08/24/2014  23:46:00     -441.792     -153.063      -15.882      152.232      142.088       76.348    23174.575    20188.867     5829.078       13.402        2.460      467.556       72.273        0.024      344.663       21.637      857.354
08/24/2014  23:47:00     -404.340     -101.774       -8.670      153.505      120.809       68.346    23563.760    14594.842     4671.149       10.837        2.141      416.952       72.647        0.030      344.641       21.601      857.375
08/24/2014  23:48:00     -320.827      -53.484       -5.639      178.296      133.474       70.384    31789.543    17815.224     4953.892        8.018        2.728      325.255       78.052        0.058      344.616       21.557      857.384
08/24/2014  23:49:00     -489.017     -146.438      -23.649      132.325      135.145       71.756    17509.917    18264.068     5148.952       15.102        2.046      510.472       73.196        0.021      344.654       21.622      857.383
08/24/2014  23:50:00     -452.524     -112.878      -15.574      198.624      109.103       81.203    39451.302    11903.369     6593.957       13.784        2.897      466.390      105.004        0.051      344.649       21.613      857.382
08/24/2014  23:51:00     -381.342      -71.316      -11.638      161.086      104.337       73.627    25948.621    10886.192     5421.001        9.644        2.113      387.953       77.791        0.040      344.624       21.570      857.384
08/24/2014  23:52:00     -483.186     -122.657      -23.607      186.469      144.752       76.015    34770.572    20953.073     5778.336       15.527        3.075      498.512       86.851        0.030      344.668       21.645      857.375
08/24/2014  23:53:00     -435.810     -118.581      -18.819      179.027      112.650       68.301    32050.569    12690.050     4665.083       12.687        2.470      451.655       78.627        0.030      344.643       21.603      857.373
08/24/2014  23:54:00     -478.702      -91.916      -20.605      210.914      137.886       89.184    44484.564    19012.412     7953.871       15.473        3.573      487.447       92.717        0.036      344.635       21.591      857.387
08/24/2014  23:55:00     -425.160      -45.531      -17.297      186.591      154.566       68.698    34816.016    23890.762     4719.354       12.327        3.171      427.592       75.674        0.031      344.636       21.591      857.406
08/24/2014  23:56:00     -417.022     -122.603      -11.173      181.502      128.255       70.430    32943.012    16449.290     4960.360       12.170        2.718      434.671       86.468        0.040      344.636       21.593      857.401
08/24/2014  23:57:00     -377.947      -91.155       -1.926      154.448      140.947       72.972    23854.089    19866.141     5324.935       10.009        2.452      388.784       78.267        0.041      344.632       21.585      857.404
08/24/2014  23:58:00     -447.265     -105.463      -16.365      139.585      127.346       69.267    19484.042    16216.952     4797.985       12.596        2.025      459.531       68.942        0.023      344.650       21.615      857.418
08/24/2014  23:59:00     -355.813      -82.411       -6.629      180.899      128.312       73.571    32724.373    16464.065     5412.752        9.401        2.730      365.232       86.843        0.057      344.659       21.631      857.421
